| time (UTC) | temp F | wind direction | speed MPH | gust MPH | rain 1hr in | rain 24hr in | rain mn in | humidity % | barometer mb |
| 20260509173106 | 51 | 259 | 3.0 | 7.0 | 0.00 | 0.00 | 0.00 | 74 | 1003.3 |
| 20260509173006 | 51 | 260 | 3.0 | 7.0 | 0.00 | 0.00 | 0.00 | 74 | 1003.4 |
| 20260509172906 | 51 | 258 | 3.0 | 7.0 | 0.00 | 0.00 | 0.00 | 74 | 1003.4 |
| 20260509172806 | 51 | 257 | 3.0 | 7.0 | 0.00 | 0.00 | 0.00 | 75 | 1003.4 |
| 20260509172706 | 51 | 258 | 3.0 | 6.0 | 0.00 | 0.00 | 0.00 | 76 | 1003.4 |
| 20260509172606 | 51 | 257 | 3.0 | 6.0 | 0.00 | 0.00 | 0.00 | 76 | 1003.4 |
| 20260509172506 | 51 | 255 | 3.0 | 8.0 | 0.00 | 0.00 | 0.00 | 76 | 1003.4 |
| 20260509172406 | 51 | 254 | 4.0 | 8.0 | 0.00 | 0.00 | 0.00 | 77 | 1003.4 |
| 20260509172307 | 51 | 257 | 3.0 | 8.0 | 0.00 | 0.00 | 0.00 | 77 | 1003.4 |
| 20260509172206 | 51 | 255 | 4.0 | 8.0 | 0.00 | 0.00 | 0.00 | 77 | 1003.4 |
| 20260509172106 | 51 | 252 | 4.0 | 8.0 | 0.00 | 0.00 | 0.00 | 77 | 1003.4 |
| 20260509172006 | 51 | 249 | 4.0 | 9.0 | 0.00 | 0.00 | 0.00 | 77 | 1003.3 |
| 20260509171906 | 51 | 250 | 4.0 | 9.0 | 0.00 | 0.00 | 0.00 | 77 | 1003.3 |
| 20260509171806 | 51 | 250 | 4.0 | 9.0 | 0.00 | 0.00 | 0.00 | 77 | 1003.3 |
| 20260509171706 | 51 | 249 | 4.0 | 9.0 | 0.00 | 0.00 | 0.00 | 77 | 1003.3 |
| 20260509171606 | 51 | 250 | 4.0 | 9.0 | 0.00 | 0.00 | 0.00 | 76 | 1003.3 |
| 20260509171506 | 51 | 250 | 4.0 | 9.0 | 0.00 | 0.00 | 0.00 | 76 | 1003.3 |
| 20260509171406 | 51 | 250 | 4.0 | 9.0 | 0.00 | 0.00 | 0.00 | 76 | 1003.2 |
| 20260509171327 | 51 | 247 | 4.0 | 9.0 | 0.00 | 0.00 | 0.00 | 76 | 1003.2 |
| 20260509171206 | 51 | 246 | 4.0 | 9.0 | 0.00 | 0.00 | 0.00 | 75 | 1003.1 |
| 20260509171127 | 51 | 248 | 4.0 | 9.0 | 0.00 | 0.00 | 0.00 | 76 | 1003.1 |
| 20260509171006 | 51 | 251 | 4.0 | 9.0 | 0.00 | 0.00 | 0.00 | 75 | 1003.0 |
| 20260509170906 | 51 | 250 | 3.0 | 9.0 | 0.00 | 0.00 | 0.00 | 75 | 1003.0 |
| 20260509170806 | 51 | 251 | 3.0 | 9.0 | 0.00 | 0.00 | 0.00 | 74 | 1003.0 |
| 20260509170707 | 52 | 250 | 3.0 | 9.0 | 0.00 | 0.00 | 0.00 | 74 | 1003.1 |
| 20260509170627 | 52 | 248 | 3.0 | 8.0 | 0.00 | 0.00 | 0.00 | 74 | 1003.1 |
| 20260509170506 | 52 | 247 | 3.0 | 7.0 | 0.00 | 0.00 | 0.00 | 75 | 1003.1 |
| 20260509170427 | 52 | 246 | 3.0 | 7.0 | 0.00 | 0.00 | 0.00 | 75 | 1003.1 |
| 20260509170306 | 52 | 250 | 2.0 | 7.0 | 0.00 | 0.00 | 0.00 | 75 | 1003.1 |
| 20260509170227 | 52 | 254 | 2.0 | 7.0 | 0.00 | 0.00 | 0.00 | 76 | 1003.0 |
| 20260509170106 | 52 | 251 | 3.0 | 8.0 | 0.00 | 0.00 | 0.00 | 75 | 1003.0 |
| 20260509170007 | 52 | 251 | 3.0 | 8.0 | 0.00 | 0.00 | 0.00 | 75 | 1003.0 |
| 20260509165906 | 52 | 252 | 3.0 | 8.0 | 0.00 | 0.00 | 0.00 | 75 | 1002.9 |
| 20260509165806 | 52 | 249 | 3.0 | 8.0 | 0.00 | 0.00 | 0.00 | 76 | 1002.9 |
| 20260509165706 | 52 | 251 | 3.0 | 8.0 | 0.00 | 0.00 | 0.00 | 76 | 1003.0 |
| 20260509165606 | 52 | 256 | 3.0 | 8.0 | 0.00 | 0.00 | 0.00 | 76 | 1003.2 |
| 20260509165506 | 52 | 256 | 3.0 | 8.0 | 0.00 | 0.00 | 0.00 | 77 | 1003.2 |
| 20260509165406 | 52 | 256 | 3.0 | 8.0 | 0.00 | 0.00 | 0.00 | 77 | 1003.0 |
| 20260509165307 | 52 | 254 | 2.0 | 8.0 | 0.00 | 0.00 | 0.00 | 77 | 1003.0 |
| 20260509165207 | 52 | 249 | 2.0 | 8.0 | 0.00 | 0.00 | 0.00 | 78 | 1002.9 |
| 20260509165106 | 52 | 250 | 2.0 | 6.0 | 0.00 | 0.00 | 0.00 | 78 | 1002.8 |
| 20260509165007 | 52 | 252 | 2.0 | 7.0 | 0.00 | 0.00 | 0.00 | 79 | 1002.8 |
| 20260509164906 | 52 | 249 | 2.0 | 7.0 | 0.00 | 0.00 | 0.00 | 78 | 1003.0 |
| 20260509164806 | 52 | 254 | 2.0 | 7.0 | 0.00 | 0.00 | 0.00 | 79 | 1003.0 |
| 20260509164706 | 52 | 251 | 2.0 | 10.0 | 0.00 | 0.00 | 0.00 | 79 | 1003.0 |
| 20260509164606 | 52 | 250 | 3.0 | 10.0 | 0.00 | 0.00 | 0.00 | 80 | 1002.9 |
| 20260509164506 | 52 | 250 | 3.0 | 10.0 | 0.00 | 0.00 | 0.00 | 80 | 1002.9 |
| 20260509164406 | 52 | 250 | 3.0 | 10.0 | 0.00 | 0.00 | 0.00 | 80 | 1002.8 |
| 20260509164306 | 52 | 250 | 3.0 | 10.0 | 0.00 | 0.00 | 0.00 | 80 | 1002.9 |
| 20260509164227 | 52 | 250 | 3.0 | 10.0 | 0.00 | 0.00 | 0.00 | 80 | 1002.9 |
| 20260509164128 | 52 | 250 | 3.0 | 10.0 | 0.00 | 0.00 | 0.00 | 80 | 1002.7 |
| 20260509164006 | 52 | 247 | 2.0 | 10.0 | 0.00 | 0.00 | 0.00 | 79 | 1002.7 |
| 20260509163906 | 52 | 249 | 2.0 | 10.0 | 0.00 | 0.00 | 0.00 | 80 | 1003.0 |
| 20260509163827 | 52 | 247 | 2.0 | 10.0 | 0.00 | 0.00 | 0.00 | 80 | 1003.0 |
| 20260509163727 | 52 | 247 | 1.0 | 7.0 | 0.00 | 0.00 | 0.00 | 81 | 1002.5 |
| 20260509163606 | 52 | 244 | 1.0 | 7.0 | 0.00 | 0.00 | 0.00 | 80 | 1002.5 |
| 20260509163506 | 51 | 193 | 1.0 | 4.0 | 0.00 | 0.00 | 0.00 | 81 | 1002.5 |
| 20260509163406 | 51 | 132 | 1.0 | 5.0 | 0.00 | 0.00 | 0.00 | 81 | 1002.6 |
| 20260509163306 | 51 | 132 | 1.0 | 5.0 | 0.00 | 0.00 | 0.00 | 81 | 1002.6 |
| 20260509163206 | 51 | 119 | 1.0 | 6.0 | 0.00 | 0.00 | 0.00 | 81 | 1002.6 |
| 20260509163106 | 51 | 106 | 2.0 | 8.0 | 0.00 | 0.00 | 0.00 | 81 | 1002.4 |
| 20260509163006 | 51 | 107 | 2.0 | 8.0 | 0.00 | 0.00 | 0.00 | 82 | 1002.4 |
| 20260509162906 | 51 | 120 | 2.0 | 8.0 | 0.00 | 0.00 | 0.00 | 82 | 1002.3 |
| 20260509162806 | 51 | 126 | 2.0 | 8.0 | 0.00 | 0.00 | 0.00 | 82 | 1002.3 |
| 20260509162706 | 51 | 123 | 2.0 | 8.0 | 0.00 | 0.00 | 0.00 | 81 | 1002.3 |
| 20260509162606 | 51 | 120 | 2.0 | 8.0 | 0.00 | 0.00 | 0.00 | 81 | 1002.2 |
| 20260509162506 | 51 | 121 | 2.0 | 8.0 | 0.00 | 0.00 | 0.00 | 81 | 1002.2 |
| 20260509162406 | 51 | 124 | 2.0 | 8.0 | 0.00 | 0.00 | 0.00 | 82 | 1002.0 |
| 20260509162327 | 51 | 126 | 2.0 | 8.0 | 0.00 | 0.00 | 0.00 | 82 | 1002.0 |
| 20260509162206 | 52 | 132 | 2.0 | 8.0 | 0.00 | 0.00 | 0.00 | 82 | 1002.1 |
| 20260509162106 | 52 | 156 | 2.0 | 6.0 | 0.00 | 0.00 | 0.00 | 81 | 1002.6 |
| 20260509162006 | 52 | 167 | 1.0 | 6.0 | 0.00 | 0.00 | 0.00 | 81 | 1002.6 |
| 20260509161906 | 52 | 160 | 1.0 | 6.0 | 0.00 | 0.00 | 0.00 | 82 | 1002.6 |
| 20260509161827 | 51 | 151 | 1.0 | 6.0 | 0.00 | 0.00 | 0.00 | 81 | 1002.6 |
| 20260509161706 | 51 | 166 | 1.0 | 6.0 | 0.00 | 0.00 | 0.00 | 81 | 1002.6 |
| 20260509161606 | 51 | 198 | 1.0 | 6.0 | 0.00 | 0.00 | 0.00 | 82 | 1003.0 |
| 20260509161506 | 51 | 219 | 1.0 | 6.0 | 0.00 | 0.00 | 0.00 | 81 | 1003.1 |
| 20260509161406 | 51 | 237 | 1.0 | 6.0 | 0.00 | 0.00 | 0.00 | 81 | 1003.1 |
| 20260509161306 | 51 | 237 | 1.0 | 6.0 | 0.00 | 0.00 | 0.00 | 80 | 1003.2 |
| 20260509161207 | 51 | 240 | 1.0 | 6.0 | 0.00 | 0.00 | 0.00 | 79 | 1003.2 |
| 20260509161106 | 51 | 246 | 1.0 | 4.0 | 0.00 | 0.00 | 0.00 | 78 | 1003.2 |
| 20260509161006 | 51 | 250 | 1.0 | 5.0 | 0.00 | 0.00 | 0.00 | 78 | 1003.0 |
| 20260509160906 | 51 | 248 | 1.0 | 5.0 | 0.00 | 0.00 | 0.00 | 78 | 1003.0 |
| 20260509160806 | 51 | 248 | 2.0 | 5.0 | 0.00 | 0.00 | 0.00 | 78 | 1003.0 |
| 20260509160706 | 51 | 250 | 2.0 | 5.0 | 0.00 | 0.00 | 0.00 | 78 | 1003.0 |
| 20260509160606 | 51 | 251 | 2.0 | 5.0 | 0.00 | 0.00 | 0.00 | 77 | 1003.0 |
| 20260509160506 | 51 | 252 | 2.0 | 5.0 | 0.00 | 0.00 | 0.00 | 78 | 1002.8 |
| 20260509160427 | 51 | 249 | 2.0 | 5.0 | 0.00 | 0.00 | 0.00 | 78 | 1002.8 |
| 20260509160327 | 51 | 249 | 2.0 | 5.0 | 0.00 | 0.00 | 0.00 | 79 | 1003.3 |
| 20260509160206 | 51 | 254 | 2.0 | 5.0 | 0.00 | 0.00 | 0.00 | 79 | 1003.4 |
| 20260509160106 | 51 | 255 | 2.0 | 5.0 | 0.00 | 0.00 | 0.00 | 78 | 1003.4 |
| 20260509160006 | 51 | 253 | 2.0 | 5.0 | 0.00 | 0.00 | 0.00 | 79 | 1003.3 |
| 20260509155906 | 51 | 251 | 2.0 | 5.0 | 0.00 | 0.00 | 0.00 | 79 | 1003.3 |
| 20260509155806 | 51 | 251 | 2.0 | 5.0 | 0.00 | 0.00 | 0.00 | 79 | 1003.0 |
| 20260509155706 | 51 | 247 | 2.0 | 4.0 | 0.00 | 0.00 | 0.00 | 78 | 1003.0 |
| 20260509155606 | 51 | 246 | 2.0 | 4.0 | 0.00 | 0.00 | 0.00 | 78 | 1003.0 |
| 20260509155506 | 51 | 246 | 2.0 | 4.0 | 0.00 | 0.00 | 0.00 | 78 | 1003.0 |
| 20260509155406 | 51 | 246 | 2.0 | 4.0 | 0.00 | 0.00 | 0.00 | 78 | 1003.0 |
| 20260509155306 | 51 | 250 | 2.0 | 6.0 | 0.00 | 0.00 | 0.00 | 79 | 1002.9 |
| 20260509155206 | 51 | 248 | 2.0 | 6.0 | 0.00 | 0.00 | 0.00 | 80 | 1003.0 |
| 20260509155106 | 51 | 245 | 2.0 | 6.0 | 0.00 | 0.00 | 0.00 | 80 | 1003.0 |
| 20260509155006 | 51 | 246 | 2.0 | 6.0 | 0.00 | 0.00 | 0.00 | 80 | 1003.2 |
| 20260509154927 | 51 | 248 | 2.0 | 6.0 | 0.00 | 0.00 | 0.00 | 80 | 1003.2 |
| 20260509154806 | 51 | 251 | 2.0 | 6.0 | 0.00 | 0.00 | 0.00 | 80 | 1003.2 |
| 20260509154707 | 51 | 257 | 2.0 | 6.0 | 0.00 | 0.00 | 0.00 | 80 | 1003.0 |
| 20260509154627 | 51 | 259 | 2.0 | 6.0 | 0.00 | 0.00 | 0.00 | 80 | 1003.0 |
| 20260509154506 | 51 | 260 | 2.0 | 7.0 | 0.00 | 0.00 | 0.00 | 80 | 1003.0 |
| 20260509154406 | 51 | 260 | 3.0 | 8.0 | 0.00 | 0.00 | 0.00 | 81 | 1003.0 |
| 20260509154306 | 51 | 261 | 2.0 | 8.0 | 0.00 | 0.00 | 0.00 | 81 | 1003.0 |
| 20260509154206 | 51 | 263 | 2.0 | 8.0 | 0.00 | 0.00 | 0.00 | 81 | 1003.0 |
| 20260509154127 | 51 | 264 | 2.0 | 8.0 | 0.00 | 0.00 | 0.00 | 81 | 1003.0 |
| 20260509154006 | 51 | 264 | 2.0 | 8.0 | 0.00 | 0.00 | 0.00 | 82 | 1003.1 |
| 20260509153927 | 51 | 263 | 2.0 | 8.0 | 0.00 | 0.00 | 0.00 | 82 | 1003.1 |
| 20260509153806 | 51 | 264 | 2.0 | 8.0 | 0.00 | 0.00 | 0.00 | 81 | 1003.1 |
| 20260509153706 | 51 | 260 | 3.0 | 8.0 | 0.00 | 0.00 | 0.00 | 82 | 1003.2 |
| 20260509153606 | 51 | 257 | 3.0 | 9.0 | 0.00 | 0.00 | 0.00 | 82 | 1003.2 |
| 20260509153506 | 51 | 254 | 2.0 | 9.0 | 0.00 | 0.00 | 0.00 | 83 | 1003.1 |
| 20260509153406 | 51 | 254 | 2.0 | 9.0 | 0.00 | 0.00 | 0.00 | 84 | 1003.0 |
| 20260509153306 | 51 | 251 | 2.0 | 9.0 | 0.00 | 0.00 | 0.00 | 84 | 1003.0 |
| 20260509153206 | 51 | 250 | 2.0 | 9.0 | 0.00 | 0.00 | 0.00 | 84 | 1002.9 |
| 20260509153106 | 51 | 249 | 3.0 | 9.0 | 0.00 | 0.00 | 0.00 | 85 | 1002.9 |
| 20260509153006 | 51 | 250 | 3.0 | 10.0 | 0.00 | 0.00 | 0.00 | 85 | 1002.9 |
| 20260509152906 | 51 | 252 | 3.0 | 10.0 | 0.00 | 0.00 | 0.00 | 85 | 1002.9 |
| 20260509152806 | 51 | 253 | 4.0 | 10.0 | 0.00 | 0.00 | 0.00 | 85 | 1002.9 |
| 20260509152706 | 51 | 254 | 4.0 | 10.0 | 0.00 | 0.00 | 0.00 | 85 | 1002.9 |
| 20260509152627 | 51 | 254 | 4.0 | 11.0 | 0.00 | 0.00 | 0.00 | 86 | 1002.9 |
| 20260509152506 | 51 | 254 | 4.0 | 11.0 | 0.00 | 0.00 | 0.00 | 86 | 1002.9 |
| 20260509152406 | 51 | 255 | 4.0 | 11.0 | 0.00 | 0.00 | 0.00 | 86 | 1002.9 |
| 20260509152307 | 50 | 257 | 4.0 | 11.0 | 0.00 | 0.00 | 0.00 | 86 | 1002.9 |
| 20260509152206 | 50 | 257 | 5.0 | 11.0 | 0.00 | 0.00 | 0.00 | 86 | 1002.8 |
| 20260509152106 | 50 | 255 | 4.0 | 11.0 | 0.00 | 0.00 | 0.00 | 86 | 1002.8 |
| 20260509152006 | 50 | 256 | 4.0 | 11.0 | 0.00 | 0.00 | 0.00 | 86 | 1002.8 |
| 20260509151927 | 50 | 256 | 4.0 | 11.0 | 0.00 | 0.00 | 0.00 | 86 | 1002.6 |
| 20260509151827 | 50 | 254 | 5.0 | 14.0 | 0.00 | 0.00 | 0.00 | 86 | 1002.6 |
| 20260509151706 | 50 | 254 | 5.0 | 14.0 | 0.00 | 0.00 | 0.00 | 87 | 1002.7 |
| 20260509151606 | 50 | 256 | 5.0 | 15.0 | 0.00 | 0.00 | 0.00 | 86 | 1002.6 |
| 20260509151506 | 50 | 258 | 5.0 | 15.0 | 0.00 | 0.00 | 0.00 | 87 | 1002.6 |
| 20260509151407 | 50 | 257 | 5.0 | 15.0 | 0.00 | 0.00 | 0.00 | 86 | 1002.6 |
| 20260509151306 | 50 | 255 | 6.0 | 15.0 | 0.00 | 0.00 | 0.00 | 86 | 1002.7 |
| 20260509151227 | 51 | 256 | 6.0 | 15.0 | 0.00 | 0.00 | 0.00 | 86 | 1002.7 |
| 20260509151106 | 51 | 257 | 6.0 | 15.0 | 0.00 | 0.00 | 0.00 | 86 | 1002.5 |
| 20260509151006 | 51 | 259 | 6.0 | 15.0 | 0.00 | 0.00 | 0.00 | 86 | 1002.5 |
| 20260509150906 | 51 | 258 | 5.0 | 15.0 | 0.00 | 0.00 | 0.00 | 86 | 1002.5 |
| 20260509150806 | 51 | 259 | 5.0 | 15.0 | 0.00 | 0.00 | 0.00 | 86 | 1002.5 |
| 20260509150706 | 51 | 258 | 5.0 | 15.0 | 0.00 | 0.00 | 0.00 | 85 | 1002.5 |
| 20260509150606 | 51 | 259 | 5.0 | 15.0 | 0.00 | 0.00 | 0.00 | 86 | 1002.5 |
| 20260509150506 | 51 | 256 | 6.0 | 15.0 | 0.00 | 0.00 | 0.00 | 85 | 1002.5 |
| 20260509150406 | 51 | 257 | 6.0 | 15.0 | 0.00 | 0.00 | 0.00 | 85 | 1002.6 |
| 20260509150306 | 51 | 256 | 5.0 | 14.0 | 0.00 | 0.00 | 0.00 | 85 | 1002.5 |
| 20260509150206 | 52 | 255 | 5.0 | 14.0 | 0.00 | 0.00 | 0.00 | 85 | 1002.5 |
| 20260509150106 | 52 | 256 | 6.0 | 14.0 | 0.00 | 0.00 | 0.00 | 85 | 1002.4 |
| 20260509150006 | 52 | 254 | 6.0 | 14.0 | 0.00 | 0.00 | 0.00 | 85 | 1002.4 |
| 20260509145906 | 52 | 253 | 6.0 | 14.0 | 0.00 | 0.00 | 0.00 | 85 | 1002.4 |
| 20260509145806 | 52 | 254 | 6.0 | 14.0 | 0.00 | 0.00 | 0.00 | 85 | 1002.4 |
| 20260509145706 | 52 | 255 | 6.0 | 14.0 | 0.00 | 0.00 | 0.00 | 85 | 1002.4 |
| 20260509145606 | 52 | 254 | 6.0 | 13.0 | 0.00 | 0.00 | 0.00 | 85 | 1002.3 |
| 20260509145506 | 52 | 256 | 6.0 | 13.0 | 0.00 | 0.00 | 0.00 | 85 | 1002.2 |
| 20260509145405 | 52 | 253 | 6.0 | 13.0 | 0.00 | 0.00 | 0.00 | 85 | 1002.2 |
| 20260509145306 | 52 | 255 | 6.0 | 13.0 | 0.00 | 0.00 | 0.00 | 86 | 1002.2 |
| 20260509145206 | 52 | 255 | 6.0 | 13.0 | 0.00 | 0.00 | 0.00 | 85 | 1002.2 |
| 20260509145106 | 52 | 256 | 6.0 | 15.0 | 0.00 | 0.00 | 0.00 | 85 | 1002.0 |
| 20260509145006 | 52 | 256 | 6.0 | 15.0 | 0.00 | 0.00 | 0.00 | 85 | 1002.1 |
| 20260509144927 | 52 | 257 | 6.0 | 15.0 | 0.00 | 0.00 | 0.00 | 85 | 1002.1 |
| 20260509144806 | 52 | 256 | 7.0 | 15.0 | 0.00 | 0.00 | 0.00 | 85 | 1001.9 |
| 20260509144706 | 52 | 253 | 6.0 | 15.0 | 0.00 | 0.00 | 0.00 | 85 | 1001.9 |
| 20260509144606 | 52 | 251 | 6.0 | 15.0 | 0.00 | 0.00 | 0.00 | 85 | 1001.9 |
| 20260509144506 | 52 | 250 | 7.0 | 15.0 | 0.00 | 0.00 | 0.00 | 85 | 1001.9 |
| 20260509144406 | 52 | 251 | 6.0 | 15.0 | 0.00 | 0.00 | 0.00 | 85 | 1001.9 |
| 20260509144306 | 52 | 249 | 7.0 | 15.0 | 0.00 | 0.00 | 0.00 | 85 | 1001.9 |
| 20260509144206 | 52 | 247 | 7.0 | 15.0 | 0.00 | 0.00 | 0.00 | 85 | 1002.0 |
| 20260509144106 | 52 | 246 | 7.0 | 15.0 | 0.00 | 0.00 | 0.00 | 85 | 1002.0 |
| 20260509144006 | 52 | 246 | 7.0 | 15.0 | 0.00 | 0.00 | 0.00 | 85 | 1002.0 |
| 20260509143906 | 52 | 246 | 7.0 | 18.0 | 0.00 | 0.00 | 0.00 | 85 | 1002.0 |
| 20260509143806 | 52 | 246 | 7.0 | 18.0 | 0.00 | 0.00 | 0.00 | 85 | 1001.9 |
| 20260509143706 | 52 | 247 | 7.0 | 18.0 | 0.00 | 0.00 | 0.00 | 84 | 1001.9 |
| 20260509143606 | 52 | 249 | 6.0 | 18.0 | 0.00 | 0.00 | 0.00 | 85 | 1001.9 |
| 20260509143506 | 53 | 248 | 6.0 | 18.0 | 0.00 | 0.00 | 0.00 | 85 | 1001.8 |
| 20260509143405 | 52 | 247 | 6.0 | 18.0 | 0.00 | 0.00 | 0.00 | 85 | 1001.8 |
| 20260509143306 | 53 | 246 | 6.0 | 18.0 | 0.00 | 0.00 | 0.00 | 84 | 1001.9 |
| 20260509143227 | 53 | 247 | 6.0 | 18.0 | 0.00 | 0.00 | 0.00 | 84 | 1001.9 |
| 20260509143106 | 53 | 247 | 6.0 | 18.0 | 0.00 | 0.00 | 0.00 | 84 | 1001.9 |
| 20260509143006 | 53 | 244 | 5.0 | 18.0 | 0.00 | 0.00 | 0.00 | 84 | 1001.7 |
| 20260509142905 | 53 | 240 | 6.0 | 13.0 | 0.00 | 0.00 | 0.00 | 84 | 1001.7 |
| 20260509142827 | 53 | 241 | 6.0 | 13.0 | 0.00 | 0.00 | 0.00 | 85 | 1001.8 |
| 20260509142706 | 53 | 242 | 6.0 | 13.0 | 0.00 | 0.00 | 0.00 | 85 | 1001.6 |
| 20260509142627 | 53 | 241 | 6.0 | 13.0 | 0.00 | 0.00 | 0.00 | 85 | 1001.6 |
| 20260509142506 | 53 | 241 | 6.0 | 13.0 | 0.00 | 0.00 | 0.00 | 85 | 1001.6 |
| 20260509142406 | 53 | 241 | 6.0 | 13.0 | 0.00 | 0.00 | 0.00 | 84 | 1001.6 |
| 20260509142307 | 53 | 240 | 6.0 | 12.0 | 0.00 | 0.00 | 0.00 | 84 | 1001.6 |
| 20260509142227 | 53 | 238 | 6.0 | 14.0 | 0.00 | 0.00 | 0.00 | 84 | 1001.5 |
| 20260509142127 | 53 | 238 | 5.0 | 14.0 | 0.00 | 0.00 | 0.00 | 84 | 1001.5 |
| 20260509142005 | 53 | 237 | 6.0 | 14.0 | 0.00 | 0.00 | 0.00 | 84 | 1001.5 |
| 20260509141905 | 53 | 240 | 5.0 | 14.0 | 0.00 | 0.00 | 0.00 | 84 | 1001.6 |
| 20260509141807 | 54 | 236 | 5.0 | 14.0 | 0.00 | 0.00 | 0.00 | 84 | 1001.6 |
| 20260509141727 | 54 | 234 | 5.0 | 14.0 | 0.00 | 0.00 | 0.00 | 84 | 1001.5 |
| 20260509141606 | 54 | 234 | 5.0 | 14.0 | 0.00 | 0.00 | 0.00 | 84 | 1001.5 |
| 20260509141505 | 54 | 233 | 6.0 | 14.0 | 0.00 | 0.00 | 0.00 | 84 | 1001.4 |
| 20260509141406 | 54 | 232 | 6.0 | 14.0 | 0.00 | 0.00 | 0.00 | 84 | 1001.5 |
| 20260509141306 | 54 | 234 | 6.0 | 14.0 | 0.00 | 0.00 | 0.00 | 84 | 1001.5 |
| 20260509141227 | 54 | 236 | 6.0 | 12.0 | 0.00 | 0.00 | 0.00 | 84 | 1001.5 |
| 20260509141106 | 54 | 234 | 6.0 | 12.0 | 0.00 | 0.00 | 0.00 | 84 | 1001.5 |
| 20260509141006 | 54 | 238 | 6.0 | 14.0 | 0.00 | 0.00 | 0.00 | 83 | 1001.5 |
| 20260509140906 | 54 | 238 | 6.0 | 14.0 | 0.00 | 0.00 | 0.00 | 83 | 1001.4 |
| 20260509140827 | 54 | 238 | 6.0 | 14.0 | 0.00 | 0.00 | 0.00 | 83 | 1001.4 |
| 20260509140706 | 54 | 242 | 7.0 | 16.0 | 0.00 | 0.00 | 0.00 | 84 | 1001.4 |
| 20260509140606 | 54 | 238 | 7.0 | 16.0 | 0.00 | 0.00 | 0.00 | 84 | 1001.3 |
| 20260509140505 | 54 | 238 | 7.0 | 16.0 | 0.00 | 0.00 | 0.00 | 84 | 1001.3 |
| 20260509140407 | 54 | 240 | 7.0 | 17.0 | 0.00 | 0.00 | 0.00 | 84 | 1001.4 |
| 20260509140327 | 54 | 242 | 7.0 | 17.0 | 0.00 | 0.00 | 0.00 | 84 | 1001.4 |
| 20260509140206 | 54 | 240 | 7.0 | 17.0 | 0.00 | 0.00 | 0.00 | 84 | 1001.4 |
| 20260509140127 | 54 | 240 | 7.0 | 17.0 | 0.00 | 0.00 | 0.00 | 84 | 1001.4 |
| 20260509140006 | 54 | 236 | 7.0 | 17.0 | 0.00 | 0.00 | 0.00 | 84 | 1001.4 |
| 20260509135905 | 54 | 235 | 7.0 | 17.0 | 0.00 | 0.00 | 0.00 | 84 | 1001.4 |
| 20260509135827 | 54 | 236 | 7.0 | 18.0 | 0.00 | 0.00 | 0.00 | 83 | 1001.4 |
| 20260509135727 | 54 | 236 | 7.0 | 18.0 | 0.00 | 0.00 | 0.00 | 83 | 1001.3 |
| 20260509135606 | 54 | 238 | 7.0 | 18.0 | 0.00 | 0.00 | 0.00 | 83 | 1001.4 |
| 20260509135505 | 54 | 237 | 6.0 | 18.0 | 0.00 | 0.00 | 0.00 | 83 | 1001.4 |
| 20260509135426 | 54 | 236 | 6.0 | 18.0 | 0.00 | 0.00 | 0.00 | 83 | 1001.2 |
| 20260509135306 | 54 | 234 | 6.0 | 18.0 | 0.00 | 0.00 | 0.00 | 84 | 1001.2 |
| 20260509135227 | 54 | 237 | 6.0 | 18.0 | 0.00 | 0.00 | 0.00 | 84 | 1001.3 |
| 20260509135106 | 54 | 235 | 7.0 | 18.0 | 0.00 | 0.00 | 0.00 | 84 | 1001.2 |
| 20260509135006 | 54 | 232 | 7.0 | 18.0 | 0.00 | 0.00 | 0.00 | 84 | 1001.2 |
| 20260509134905 | 54 | 235 | 6.0 | 18.0 | 0.00 | 0.00 | 0.00 | 84 | 1001.3 |
| 20260509134806 | 54 | 233 | 7.0 | 18.0 | 0.00 | 0.00 | 0.00 | 84 | 1001.3 |
| 20260509134706 | 54 | 234 | 6.0 | 18.0 | 0.00 | 0.00 | 0.00 | 84 | 1001.3 |
| 20260509134606 | 54 | 234 | 7.0 | 18.0 | 0.00 | 0.00 | 0.00 | 84 | 1001.2 |
| 20260509134505 | 54 | 236 | 7.0 | 18.0 | 0.00 | 0.00 | 0.00 | 85 | 1001.2 |
| 20260509134405 | 54 | 236 | 7.0 | 18.0 | 0.00 | 0.00 | 0.00 | 85 | 1001.0 |
| 20260509134306 | 53 | 236 | 7.0 | 18.0 | 0.00 | 0.00 | 0.00 | 85 | 1001.0 |
| 20260509134206 | 53 | 234 | 7.0 | 18.0 | 0.00 | 0.00 | 0.00 | 85 | 1001.0 |
| 20260509134105 | 53 | 233 | 7.0 | 18.0 | 0.00 | 0.00 | 0.00 | 85 | 1001.0 |
| 20260509134026 | 53 | 234 | 7.0 | 18.0 | 0.00 | 0.00 | 0.00 | 85 | 1001.0 |
| 20260509133906 | 53 | 231 | 6.0 | 18.0 | 0.00 | 0.00 | 0.00 | 85 | 1001.2 |
| 20260509133806 | 53 | 232 | 7.0 | 15.0 | 0.00 | 0.00 | 0.00 | 85 | 1001.1 |
| 20260509133706 | 53 | 232 | 7.0 | 16.0 | 0.00 | 0.00 | 0.00 | 85 | 1001.1 |
| 20260509133627 | 53 | 232 | 7.0 | 16.0 | 0.00 | 0.00 | 0.00 | 85 | 1001.2 |
| 20260509133506 | 53 | 234 | 7.0 | 16.0 | 0.00 | 0.00 | 0.00 | 85 | 1001.2 |
| 20260509133427 | 53 | 233 | 7.0 | 16.0 | 0.00 | 0.00 | 0.00 | 85 | 1001.2 |
| 20260509133327 | 54 | 233 | 7.0 | 16.0 | 0.00 | 0.00 | 0.00 | 85 | 1001.1 |
| 20260509133206 | 54 | 232 | 7.0 | 16.0 | 0.00 | 0.00 | 0.00 | 85 | 1001.1 |
| 20260509133105 | 54 | 232 | 7.0 | 16.0 | 0.00 | 0.00 | 0.00 | 85 | 1001.2 |
| 20260509133005 | 53 | 233 | 8.0 | 16.0 | 0.00 | 0.00 | 0.00 | 85 | 1001.2 |
| 20260509132906 | 53 | 232 | 7.0 | 16.0 | 0.00 | 0.00 | 0.00 | 85 | 1001.2 |
| 20260509132806 | 53 | 232 | 7.0 | 16.0 | 0.00 | 0.00 | 0.00 | 85 | 1001.3 |
| 20260509132706 | 53 | 228 | 7.0 | 16.0 | 0.00 | 0.00 | 0.00 | 85 | 1001.3 |
| 20260509132626 | 53 | 227 | 7.0 | 16.0 | 0.00 | 0.00 | 0.00 | 85 | 1001.2 |
| 20260509132506 | 53 | 225 | 7.0 | 16.0 | 0.00 | 0.00 | 0.00 | 86 | 1001.2 |
| 20260509132406 | 53 | 223 | 7.0 | 16.0 | 0.00 | 0.00 | 0.00 | 85 | 1001.2 |
| 20260509132307 | 53 | 225 | 6.0 | 16.0 | 0.00 | 0.00 | 0.00 | 86 | 1001.0 |
| 20260509132205 | 53 | 226 | 6.0 | 16.0 | 0.00 | 0.00 | 0.00 | 86 | 1001.0 |
| 20260509132105 | 53 | 229 | 7.0 | 19.0 | 0.00 | 0.00 | 0.00 | 86 | 1001.1 |
| 20260509132027 | 53 | 229 | 7.0 | 19.0 | 0.00 | 0.00 | 0.00 | 86 | 1001.1 |
| 20260509131905 | 53 | 234 | 7.0 | 19.0 | 0.00 | 0.00 | 0.00 | 86 | 1001.1 |
| 20260509131806 | 53 | 235 | 7.0 | 19.0 | 0.00 | 0.00 | 0.00 | 86 | 1001.0 |
| 20260509131705 | 53 | 235 | 7.0 | 19.0 | 0.00 | 0.00 | 0.00 | 86 | 1001.2 |
| 20260509131605 | 53 | 237 | 7.0 | 19.0 | 0.00 | 0.00 | 0.00 | 86 | 1001.2 |
| 20260509131527 | 53 | 236 | 7.0 | 19.0 | 0.00 | 0.00 | 0.00 | 86 | 1001.0 |
| 20260509131406 | 53 | 235 | 7.0 | 19.0 | 0.00 | 0.00 | 0.00 | 86 | 1001.0 |
| 20260509131306 | 53 | 235 | 7.0 | 19.0 | 0.00 | 0.00 | 0.00 | 86 | 1001.1 |
| 20260509131206 | 53 | 235 | 8.0 | 19.0 | 0.00 | 0.00 | 0.00 | 86 | 1001.1 |
| 20260509131106 | 53 | 235 | 8.0 | 18.0 | 0.00 | 0.00 | 0.00 | 86 | 1001.1 |
| 20260509131006 | 53 | 236 | 8.0 | 19.0 | 0.00 | 0.00 | 0.00 | 86 | 1001.3 |
| 20260509130906 | 53 | 236 | 8.0 | 19.0 | 0.00 | 0.00 | 0.00 | 86 | 1001.3 |
| 20260509130806 | 53 | 232 | 7.0 | 19.0 | 0.00 | 0.00 | 0.00 | 86 | 1001.2 |
| 20260509130706 | 53 | 234 | 7.0 | 19.0 | 0.00 | 0.00 | 0.00 | 86 | 1001.2 |
| 20260509130606 | 53 | 231 | 7.0 | 19.0 | 0.00 | 0.00 | 0.00 | 86 | 1001.2 |
| 20260509130506 | 53 | 229 | 7.0 | 19.0 | 0.00 | 0.00 | 0.00 | 86 | 1001.2 |
| 20260509130406 | 53 | 226 | 7.0 | 19.0 | 0.00 | 0.00 | 0.00 | 86 | 1001.2 |
| 20260509130305 | 53 | 225 | 7.0 | 19.0 | 0.00 | 0.00 | 0.00 | 86 | 1001.2 |
| 20260509130226 | 53 | 228 | 7.0 | 19.0 | 0.00 | 0.00 | 0.00 | 86 | 1001.2 |
| 20260509130105 | 53 | 225 | 6.0 | 19.0 | 0.00 | 0.00 | 0.00 | 86 | 1001.4 |
| 20260509130006 | 53 | 218 | 6.0 | 16.0 | 0.00 | 0.00 | 0.00 | 86 | 1001.1 |
| 20260509125927 | 53 | 216 | 6.0 | 16.0 | 0.00 | 0.00 | 0.00 | 87 | 1001.1 |
| 20260509125827 | 53 | 218 | 6.0 | 16.0 | 0.00 | 0.00 | 0.00 | 87 | 1001.1 |
| 20260509125705 | 53 | 225 | 7.0 | 16.0 | 0.00 | 0.00 | 0.00 | 87 | 1001.1 |
| 20260509125626 | 53 | 224 | 7.0 | 16.0 | 0.00 | 0.00 | 0.00 | 87 | 1001.1 |
| 20260509125506 | 53 | 229 | 7.0 | 16.0 | 0.00 | 0.00 | 0.00 | 87 | 1001.0 |
| 20260509125406 | 53 | 232 | 7.0 | 16.0 | 0.00 | 0.00 | 0.00 | 87 | 1001.1 |
| 20260509125308 | 53 | 235 | 7.0 | 16.0 | 0.00 | 0.00 | 0.00 | 86 | 1001.1 |
| 20260509125206 | 53 | 236 | 7.0 | 19.0 | 0.00 | 0.00 | 0.00 | 87 | 1000.9 |
| 20260509125105 | 53 | 237 | 7.0 | 19.0 | 0.00 | 0.00 | 0.00 | 87 | 1000.9 |
| 20260509125005 | 53 | 235 | 7.0 | 19.0 | 0.00 | 0.00 | 0.00 | 87 | 1001.1 |
| 20260509124906 | 53 | 232 | 7.0 | 19.0 | 0.00 | 0.00 | 0.00 | 87 | 1001.0 |
| 20260509124806 | 53 | 230 | 7.0 | 19.0 | 0.00 | 0.00 | 0.00 | 87 | 1001.0 |
| 20260509124705 | 53 | 224 | 7.0 | 19.0 | 0.00 | 0.00 | 0.00 | 87 | 1001.1 |
| 20260509124606 | 52 | 226 | 7.0 | 19.0 | 0.00 | 0.00 | 0.00 | 87 | 1001.1 |
| 20260509124505 | 52 | 228 | 7.0 | 20.0 | 0.00 | 0.00 | 0.00 | 87 | 1001.1 |
| 20260509124406 | 52 | 226 | 7.0 | 20.0 | 0.00 | 0.00 | 0.00 | 87 | 1001.1 |
| 20260509124306 | 53 | 222 | 7.0 | 20.0 | 0.00 | 0.00 | 0.00 | 86 | 1001.1 |
| 20260509124205 | 53 | 218 | 7.0 | 20.0 | 0.00 | 0.00 | 0.00 | 86 | 1001.0 |
| 20260509124105 | 53 | 215 | 7.0 | 20.0 | 0.00 | 0.00 | 0.00 | 86 | 1001.2 |
| 20260509124026 | 53 | 217 | 7.0 | 20.0 | 0.00 | 0.00 | 0.00 | 86 | 1001.2 |
| 20260509123905 | 53 | 225 | 7.0 | 20.0 | 0.00 | 0.00 | 0.00 | 87 | 1001.0 |
| 20260509123827 | 53 | 228 | 7.0 | 20.0 | 0.00 | 0.00 | 0.00 | 87 | 1001.0 |
| 20260509123705 | 52 | 231 | 7.0 | 20.0 | 0.00 | 0.00 | 0.00 | 87 | 1001.0 |
| 20260509123605 | 52 | 225 | 7.0 | 20.0 | 0.00 | 0.00 | 0.00 | 87 | 1001.1 |
| 20260509123506 | 52 | 224 | 7.0 | 17.0 | 0.00 | 0.00 | 0.00 | 87 | 1001.1 |
| 20260509123406 | 52 | 226 | 7.0 | 17.0 | 0.00 | 0.00 | 0.00 | 87 | 1001.0 |
| 20260509123328 | 52 | 228 | 7.0 | 17.0 | 0.00 | 0.00 | 0.00 | 87 | 1001.0 |
| 20260509123205 | 52 | 232 | 7.0 | 17.0 | 0.00 | 0.00 | 0.00 | 87 | 1001.1 |
| 20260509123105 | 52 | 232 | 8.0 | 17.0 | 0.00 | 0.00 | 0.00 | 87 | 1001.2 |
| 20260509123005 | 52 | 232 | 8.0 | 17.0 | 0.00 | 0.00 | 0.00 | 87 | 1001.2 |
| 20260509122906 | 52 | 230 | 7.0 | 17.0 | 0.00 | 0.00 | 0.00 | 87 | 1001.1 |
| 20260509122827 | 52 | 225 | 7.0 | 17.0 | 0.00 | 0.00 | 0.00 | 87 | 1001.1 |
| 20260509122705 | 52 | 222 | 8.0 | 18.0 | 0.00 | 0.00 | 0.00 | 87 | 1001.0 |
| 20260509122605 | 52 | 225 | 8.0 | 18.0 | 0.00 | 0.00 | 0.00 | 87 | 1001.2 |
| 20260509122506 | 52 | 226 | 8.0 | 18.0 | 0.00 | 0.00 | 0.00 | 87 | 1001.2 |
| 20260509122406 | 52 | 222 | 8.0 | 18.0 | 0.00 | 0.00 | 0.00 | 87 | 1001.1 |
| 20260509122306 | 52 | 220 | 8.0 | 18.0 | 0.00 | 0.00 | 0.00 | 87 | 1001.2 |
| 20260509122205 | 52 | 219 | 8.0 | 18.0 | 0.00 | 0.00 | 0.00 | 87 | 1001.2 |
| 20260509122127 | 52 | 222 | 8.0 | 18.0 | 0.00 | 0.00 | 0.00 | 87 | 1001.3 |
| 20260509122006 | 52 | 216 | 8.0 | 18.0 | 0.00 | 0.00 | 0.00 | 87 | 1001.3 |
| 20260509121906 | 52 | 217 | 7.0 | 18.0 | 0.00 | 0.00 | 0.00 | 87 | 1001.0 |
| 20260509121805 | 52 | 220 | 7.0 | 18.0 | 0.00 | 0.00 | 0.00 | 87 | 1001.1 |
| 20260509121705 | 52 | 220 | 7.0 | 16.0 | 0.00 | 0.00 | 0.00 | 87 | 1001.1 |
| 20260509121606 | 52 | 222 | 7.0 | 16.0 | 0.00 | 0.00 | 0.00 | 87 | 1001.1 |
| 20260509121506 | 52 | 220 | 7.0 | 16.0 | 0.00 | 0.00 | 0.00 | 87 | 1001.1 |
| 20260509121406 | 52 | 222 | 7.0 | 16.0 | 0.00 | 0.00 | 0.00 | 87 | 1001.0 |
| 20260509121305 | 52 | 223 | 7.0 | 16.0 | 0.00 | 0.00 | 0.00 | 87 | 1001.2 |
| 20260509121205 | 52 | 221 | 7.0 | 16.0 | 0.00 | 0.00 | 0.00 | 87 | 1001.2 |
| 20260509121105 | 52 | 220 | 6.0 | 16.0 | 0.00 | 0.00 | 0.00 | 87 | 1001.2 |
| 20260509121027 | 52 | 223 | 6.0 | 16.0 | 0.00 | 0.00 | 0.00 | 87 | 1001.2 |
| 20260509120906 | 52 | 222 | 6.0 | 16.0 | 0.00 | 0.00 | 0.00 | 87 | 1001.1 |
| 20260509120805 | 52 | 225 | 6.0 | 16.0 | 0.00 | 0.00 | 0.00 | 87 | 1001.4 |
| 20260509120726 | 52 | 223 | 6.0 | 16.0 | 0.00 | 0.00 | 0.00 | 87 | 1001.4 |
| 20260509120627 | 52 | 221 | 6.0 | 17.0 | 0.00 | 0.00 | 0.00 | 87 | 1001.3 |
| 20260509120505 | 52 | 218 | 6.0 | 17.0 | 0.00 | 0.00 | 0.00 | 87 | 1001.3 |
| 20260509120405 | 52 | 217 | 5.0 | 17.0 | 0.00 | 0.00 | 0.00 | 87 | 1001.3 |
| 20260509120305 | 52 | 216 | 6.0 | 17.0 | 0.00 | 0.00 | 0.00 | 87 | 1001.1 |
| 20260509120205 | 52 | 217 | 6.0 | 17.0 | 0.00 | 0.00 | 0.00 | 87 | 1001.1 |
| 20260509120105 | 52 | 218 | 6.0 | 17.0 | 0.00 | 0.00 | 0.00 | 87 | 1001.1 |
| 20260509120006 | 52 | 216 | 6.0 | 17.0 | 0.00 | 0.00 | 0.00 | 87 | 1001.3 |
| 20260509115905 | 52 | 215 | 6.0 | 17.0 | 0.00 | 0.00 | 0.00 | 87 | 1001.3 |
| 20260509115805 | 52 | 211 | 6.0 | 17.0 | 0.00 | 0.00 | 0.00 | 87 | 1001.1 |
| 20260509115705 | 52 | 214 | 6.0 | 17.0 | 0.00 | 0.00 | 0.00 | 87 | 1001.2 |
| 20260509115627 | 52 | 215 | 6.0 | 15.0 | 0.00 | 0.00 | 0.00 | 87 | 1001.2 |
| 20260509115506 | 52 | 216 | 6.0 | 15.0 | 0.00 | 0.00 | 0.00 | 87 | 1001.1 |
| 20260509115405 | 52 | 217 | 7.0 | 15.0 | 0.00 | 0.00 | 0.00 | 87 | 1001.1 |
| 20260509115307 | 52 | 219 | 7.0 | 15.0 | 0.00 | 0.00 | 0.00 | 86 | 1001.2 |
| 20260509115226 | 52 | 219 | 7.0 | 16.0 | 0.00 | 0.00 | 0.00 | 86 | 1001.2 |
| 20260509115106 | 52 | 223 | 7.0 | 16.0 | 0.00 | 0.00 | 0.00 | 86 | 1001.2 |
| 20260509115006 | 52 | 226 | 7.0 | 16.0 | 0.00 | 0.00 | 0.00 | 86 | 1001.1 |
| 20260509114926 | 52 | 227 | 7.0 | 16.0 | 0.00 | 0.00 | 0.00 | 86 | 1001.1 |
| 20260509114805 | 52 | 228 | 6.0 | 16.0 | 0.00 | 0.00 | 0.00 | 86 | 1001.2 |
| 20260509114705 | 53 | 228 | 6.0 | 16.0 | 0.00 | 0.00 | 0.00 | 86 | 1001.0 |
| 20260509114605 | 53 | 228 | 6.0 | 16.0 | 0.00 | 0.00 | 0.00 | 86 | 1001.0 |
| 20260509114527 | 53 | 228 | 6.0 | 16.0 | 0.00 | 0.00 | 0.00 | 86 | 1001.1 |
| 20260509114405 | 53 | 226 | 6.0 | 16.0 | 0.00 | 0.00 | 0.00 | 85 | 1001.1 |
| 20260509114306 | 53 | 226 | 6.0 | 16.0 | 0.00 | 0.00 | 0.00 | 86 | 1001.3 |
| 20260509114205 | 53 | 226 | 5.0 | 13.0 | 0.00 | 0.00 | 0.00 | 86 | 1001.1 |
| 20260509114105 | 52 | 227 | 5.0 | 13.0 | 0.00 | 0.00 | 0.00 | 86 | 1001.1 |
| 20260509114006 | 52 | 226 | 5.0 | 13.0 | 0.00 | 0.00 | 0.00 | 86 | 1001.1 |
| 20260509113906 | 52 | 222 | 6.0 | 13.0 | 0.00 | 0.00 | 0.00 | 86 | 1001.1 |
| 20260509113805 | 52 | 223 | 6.0 | 15.0 | 0.00 | 0.00 | 0.00 | 86 | 1001.1 |
| 20260509113705 | 52 | 219 | 6.0 | 15.0 | 0.00 | 0.00 | 0.00 | 86 | 1001.1 |
| 20260509113626 | 52 | 219 | 6.0 | 15.0 | 0.00 | 0.00 | 0.00 | 86 | 1001.1 |
| 20260509113527 | 52 | 223 | 6.0 | 15.0 | 0.00 | 0.00 | 0.00 | 86 | 1001.1 |
| 20260509113405 | 52 | 225 | 6.0 | 15.0 | 0.00 | 0.00 | 0.00 | 86 | 1001.1 |
| 20260509113305 | 52 | 221 | 6.0 | 15.0 | 0.00 | 0.00 | 0.00 | 86 | 1001.1 |
| 20260509113205 | 53 | 215 | 6.0 | 15.0 | 0.00 | 0.00 | 0.00 | 86 | 1000.9 |
| 20260509113105 | 53 | 217 | 6.0 | 15.0 | 0.00 | 0.00 | 0.00 | 85 | 1000.9 |
| 20260509113006 | 53 | 217 | 6.0 | 15.0 | 0.00 | 0.00 | 0.00 | 85 | 1001.0 |
| 20260509112905 | 53 | 219 | 6.0 | 15.0 | 0.00 | 0.00 | 0.00 | 85 | 1000.9 |
| 20260509112805 | 53 | 220 | 6.0 | 14.0 | 0.00 | 0.00 | 0.00 | 85 | 1000.9 |
| 20260509112726 | 53 | 222 | 6.0 | 14.0 | 0.00 | 0.00 | 0.00 | 85 | 1000.8 |
| 20260509112605 | 53 | 222 | 6.0 | 14.0 | 0.00 | 0.00 | 0.00 | 85 | 1000.8 |
| 20260509112505 | 53 | 217 | 6.0 | 14.0 | 0.00 | 0.00 | 0.00 | 86 | 1000.9 |
| 20260509112406 | 53 | 215 | 6.0 | 17.0 | 0.00 | 0.00 | 0.00 | 86 | 1000.8 |
| 20260509112307 | 53 | 216 | 6.0 | 17.0 | 0.00 | 0.00 | 0.00 | 86 | 1000.8 |
| 20260509112206 | 53 | 220 | 6.0 | 17.0 | 0.00 | 0.00 | 0.00 | 86 | 1000.8 |
| 20260509112126 | 53 | 220 | 6.0 | 17.0 | 0.00 | 0.00 | 0.00 | 85 | 1000.8 |
| 20260509112005 | 53 | 222 | 7.0 | 17.0 | 0.00 | 0.00 | 0.00 | 85 | 1000.8 |
| 20260509111906 | 53 | 225 | 7.0 | 17.0 | 0.00 | 0.00 | 0.00 | 85 | 1000.7 |
| 20260509111805 | 53 | 222 | 7.0 | 17.0 | 0.00 | 0.00 | 0.00 | 85 | 1000.7 |
| 20260509111726 | 53 | 224 | 7.0 | 17.0 | 0.00 | 0.00 | 0.00 | 85 | 1000.6 |
| 20260509111605 | 53 | 221 | 7.0 | 17.0 | 0.00 | 0.00 | 0.00 | 85 | 1000.6 |
| 20260509111505 | 53 | 224 | 7.0 | 17.0 | 0.00 | 0.00 | 0.00 | 85 | 1000.6 |
| 20260509111426 | 53 | 223 | 7.0 | 17.0 | 0.00 | 0.00 | 0.00 | 85 | 1000.7 |
| 20260509111305 | 53 | 223 | 6.0 | 16.0 | 0.00 | 0.00 | 0.00 | 85 | 1000.7 |
| 20260509111226 | 53 | 220 | 6.0 | 16.0 | 0.00 | 0.00 | 0.00 | 85 | 1000.5 |
| 20260509111105 | 53 | 222 | 7.0 | 15.0 | 0.00 | 0.00 | 0.00 | 85 | 1000.6 |
| 20260509111005 | 53 | 223 | 7.0 | 15.0 | 0.00 | 0.00 | 0.00 | 85 | 1000.6 |
| 20260509110905 | 53 | 222 | 7.0 | 15.0 | 0.00 | 0.00 | 0.00 | 85 | 1000.5 |
| 20260509110805 | 53 | 223 | 7.0 | 15.0 | 0.00 | 0.00 | 0.00 | 85 | 1000.5 |
| 20260509110705 | 53 | 219 | 6.0 | 15.0 | 0.00 | 0.00 | 0.00 | 85 | 1000.7 |
| 20260509110605 | 53 | 224 | 7.0 | 15.0 | 0.00 | 0.00 | 0.00 | 85 | 1000.6 |
| 20260509110526 | 53 | 225 | 7.0 | 15.0 | 0.00 | 0.00 | 0.00 | 85 | 1000.6 |
| 20260509110405 | 53 | 227 | 7.0 | 15.0 | 0.00 | 0.00 | 0.00 | 85 | 1000.7 |
| 20260509110305 | 53 | 229 | 7.0 | 15.0 | 0.00 | 0.00 | 0.00 | 85 | 1000.6 |
| 20260509110205 | 53 | 229 | 6.0 | 15.0 | 0.00 | 0.00 | 0.00 | 85 | 1000.6 |
| 20260509110126 | 53 | 228 | 6.0 | 16.0 | 0.00 | 0.00 | 0.00 | 86 | 1000.7 |
| 20260509110005 | 53 | 221 | 6.0 | 16.0 | 0.00 | 0.00 | 0.00 | 86 | 1000.7 |
| 20260509105905 | 53 | 222 | 6.0 | 16.0 | 0.00 | 0.00 | 0.00 | 86 | 1000.6 |
| 20260509105805 | 53 | 223 | 5.0 | 16.0 | 0.00 | 0.00 | 0.00 | 86 | 1000.6 |
| 20260509105706 | 53 | 225 | 5.0 | 16.0 | 0.00 | 0.00 | 0.00 | 86 | 1000.6 |
| 20260509105606 | 53 | 226 | 5.0 | 16.0 | 0.00 | 0.00 | 0.00 | 86 | 1000.7 |
| 20260509105505 | 53 | 229 | 5.0 | 16.0 | 0.00 | 0.00 | 0.00 | 86 | 1000.7 |
| 20260509105405 | 53 | 232 | 6.0 | 16.0 | 0.00 | 0.00 | 0.00 | 86 | 1000.6 |
| 20260509105306 | 53 | 228 | 6.0 | 16.0 | 0.00 | 0.00 | 0.00 | 86 | 1000.5 |
| 20260509105205 | 53 | 227 | 6.0 | 16.0 | 0.00 | 0.00 | 0.00 | 86 | 1000.5 |
| 20260509105105 | 53 | 225 | 6.0 | 15.0 | 0.00 | 0.00 | 0.00 | 86 | 1000.6 |
| 20260509105005 | 53 | 224 | 6.0 | 16.0 | 0.00 | 0.00 | 0.00 | 86 | 1000.6 |
| 20260509104926 | 53 | 226 | 6.0 | 16.0 | 0.00 | 0.00 | 0.00 | 86 | 1000.6 |
| 20260509104805 | 53 | 225 | 5.0 | 16.0 | 0.00 | 0.00 | 0.00 | 86 | 1000.8 |
| 20260509104705 | 53 | 227 | 6.0 | 16.0 | 0.00 | 0.00 | 0.00 | 86 | 1000.8 |
| 20260509104605 | 53 | 225 | 5.0 | 16.0 | 0.00 | 0.00 | 0.00 | 86 | 1000.5 |
| 20260509104505 | 53 | 220 | 5.0 | 16.0 | 0.00 | 0.00 | 0.00 | 86 | 1000.6 |
| 20260509104426 | 53 | 219 | 5.0 | 16.0 | 0.00 | 0.00 | 0.00 | 86 | 1000.6 |
| 20260509104305 | 53 | 218 | 5.0 | 16.0 | 0.00 | 0.00 | 0.00 | 87 | 1000.6 |
| 20260509104205 | 53 | 218 | 5.0 | 16.0 | 0.00 | 0.00 | 0.00 | 87 | 1000.6 |
| 20260509104108 | 53 | 218 | 5.0 | 16.0 | 0.00 | 0.00 | 0.00 | 87 | 1000.6 |
| 20260509104005 | 53 | 220 | 5.0 | 15.0 | 0.00 | 0.00 | 0.00 | 87 | 1000.7 |
| 20260509103905 | 53 | 219 | 5.0 | 15.0 | 0.00 | 0.00 | 0.00 | 87 | 1000.7 |
| 20260509103827 | 53 | 219 | 5.0 | 15.0 | 0.00 | 0.00 | 0.00 | 87 | 1000.6 |
| 20260509103705 | 53 | 210 | 5.0 | 15.0 | 0.00 | 0.00 | 0.00 | 87 | 1000.6 |
| 20260509103605 | 53 | 209 | 6.0 | 15.0 | 0.00 | 0.00 | 0.00 | 87 | 1000.7 |
| 20260509103505 | 53 | 210 | 6.0 | 15.0 | 0.00 | 0.00 | 0.00 | 86 | 1000.8 |
| 20260509103406 | 53 | 211 | 6.0 | 15.0 | 0.00 | 0.00 | 0.00 | 87 | 1000.8 |
| 20260509103305 | 53 | 211 | 6.0 | 15.0 | 0.00 | 0.00 | 0.00 | 87 | 1000.7 |
| 20260509103205 | 53 | 205 | 6.0 | 15.0 | 0.00 | 0.00 | 0.00 | 87 | 1000.9 |
| 20260509103105 | 53 | 207 | 6.0 | 14.0 | 0.00 | 0.00 | 0.00 | 87 | 1000.9 |
| 20260509103005 | 53 | 209 | 6.0 | 14.0 | 0.00 | 0.00 | 0.00 | 86 | 1000.8 |
| 20260509102905 | 53 | 208 | 6.0 | 14.0 | 0.00 | 0.00 | 0.00 | 86 | 1000.8 |
| 20260509102805 | 53 | 210 | 5.0 | 14.0 | 0.00 | 0.00 | 0.00 | 86 | 1000.8 |
| 20260509102726 | 53 | 213 | 5.0 | 14.0 | 0.00 | 0.00 | 0.00 | 86 | 1000.8 |
| 20260509102606 | 53 | 214 | 5.0 | 14.0 | 0.00 | 0.00 | 0.00 | 86 | 1000.8 |
| 20260509102505 | 53 | 212 | 5.0 | 14.0 | 0.00 | 0.00 | 0.00 | 86 | 1000.8 |
| 20260509102405 | 53 | 212 | 5.0 | 14.0 | 0.00 | 0.00 | 0.00 | 86 | 1000.8 |
| 20260509102306 | 53 | 211 | 5.0 | 13.0 | 0.00 | 0.00 | 0.00 | 86 | 1001.0 |
| 20260509102205 | 53 | 220 | 5.0 | 13.0 | 0.00 | 0.00 | 0.00 | 86 | 1001.0 |
| 20260509102105 | 53 | 221 | 4.0 | 13.0 | 0.00 | 0.00 | 0.00 | 86 | 1001.0 |
| 20260509102005 | 53 | 219 | 4.0 | 13.0 | 0.00 | 0.00 | 0.00 | 87 | 1000.9 |
| 20260509101926 | 53 | 218 | 4.0 | 13.0 | 0.00 | 0.00 | 0.00 | 87 | 1000.9 |
| 20260509101827 | 53 | 221 | 4.0 | 13.0 | 0.00 | 0.00 | 0.00 | 87 | 1001.0 |
| 20260509101705 | 53 | 222 | 4.0 | 13.0 | 0.00 | 0.00 | 0.00 | 87 | 1000.9 |
| 20260509101626 | 53 | 225 | 4.0 | 13.0 | 0.00 | 0.00 | 0.00 | 87 | 1000.9 |
| 20260509101505 | 53 | 222 | 4.0 | 13.0 | 0.00 | 0.00 | 0.00 | 87 | 1000.9 |
| 20260509101405 | 53 | 212 | 4.0 | 16.0 | 0.00 | 0.00 | 0.00 | 87 | 1000.9 |
| 20260509101305 | 53 | 214 | 4.0 | 16.0 | 0.00 | 0.00 | 0.00 | 87 | 1000.9 |
| 20260509101205 | 53 | 209 | 5.0 | 16.0 | 0.00 | 0.00 | 0.00 | 87 | 1000.8 |
| 20260509101105 | 53 | 206 | 5.0 | 16.0 | 0.00 | 0.00 | 0.00 | 87 | 1000.8 |
| 20260509101005 | 53 | 203 | 5.0 | 16.0 | 0.00 | 0.00 | 0.00 | 86 | 1000.9 |
| 20260509100926 | 53 | 204 | 5.0 | 16.0 | 0.00 | 0.00 | 0.00 | 86 | 1000.9 |
| 20260509100805 | 53 | 203 | 6.0 | 16.0 | 0.00 | 0.00 | 0.00 | 86 | 1000.9 |
| 20260509100705 | 53 | 199 | 6.0 | 16.0 | 0.00 | 0.00 | 0.00 | 86 | 1001.0 |
| 20260509100626 | 53 | 196 | 6.0 | 16.0 | 0.00 | 0.00 | 0.00 | 86 | 1001.0 |
| 20260509100505 | 53 | 200 | 6.0 | 16.0 | 0.00 | 0.00 | 0.00 | 86 | 1000.9 |
| 20260509100406 | 53 | 209 | 6.0 | 15.0 | 0.00 | 0.00 | 0.00 | 86 | 1001.0 |
| 20260509100305 | 53 | 206 | 6.0 | 15.0 | 0.00 | 0.00 | 0.00 | 86 | 1001.0 |
| 20260509100205 | 53 | 205 | 6.0 | 15.0 | 0.00 | 0.00 | 0.00 | 86 | 1000.8 |
| 20260509100105 | 53 | 209 | 5.0 | 14.0 | 0.00 | 0.00 | 0.00 | 86 | 1001.0 |
| 20260509100005 | 53 | 214 | 5.0 | 14.0 | 0.00 | 0.00 | 0.00 | 86 | 1001.0 |
| 20260509095906 | 53 | 213 | 5.0 | 14.0 | 0.00 | 0.00 | 0.00 | 86 | 1000.9 |
| 20260509095805 | 53 | 215 | 6.0 | 14.0 | 0.00 | 0.00 | 0.00 | 86 | 1000.9 |
| 20260509095705 | 53 | 217 | 6.0 | 14.0 | 0.00 | 0.00 | 0.00 | 86 | 1000.9 |
| 20260509095626 | 53 | 217 | 6.0 | 14.0 | 0.00 | 0.00 | 0.00 | 86 | 1000.9 |
| 20260509095505 | 53 | 211 | 6.0 | 14.0 | 0.00 | 0.00 | 0.00 | 86 | 1001.0 |
| 20260509095405 | 53 | 209 | 6.0 | 14.0 | 0.00 | 0.00 | 0.00 | 86 | 1000.9 |
| 20260509095306 | 53 | 212 | 6.0 | 13.0 | 0.00 | 0.00 | 0.00 | 86 | 1000.9 |
| 20260509095205 | 53 | 212 | 6.0 | 13.0 | 0.00 | 0.00 | 0.00 | 86 | 1000.9 |
| 20260509095105 | 53 | 215 | 7.0 | 17.0 | 0.00 | 0.00 | 0.00 | 86 | 1000.9 |
| 20260509095005 | 53 | 210 | 7.0 | 17.0 | 0.00 | 0.00 | 0.00 | 86 | 1000.9 |
| 20260509094905 | 53 | 210 | 7.0 | 17.0 | 0.00 | 0.00 | 0.00 | 86 | 1000.9 |
| 20260509094805 | 53 | 210 | 6.0 | 17.0 | 0.00 | 0.00 | 0.00 | 86 | 1000.9 |
| 20260509094705 | 53 | 209 | 6.0 | 17.0 | 0.00 | 0.00 | 0.00 | 86 | 1001.0 |
| 20260509094605 | 53 | 211 | 6.0 | 17.0 | 0.00 | 0.00 | 0.00 | 86 | 1001.0 |
| 20260509094505 | 54 | 213 | 6.0 | 17.0 | 0.00 | 0.00 | 0.00 | 86 | 1001.0 |
| 20260509094405 | 53 | 213 | 6.0 | 17.0 | 0.00 | 0.00 | 0.00 | 86 | 1001.0 |
| 20260509094326 | 53 | 209 | 6.0 | 17.0 | 0.00 | 0.00 | 0.00 | 86 | 1001.0 |
| 20260509094226 | 53 | 208 | 6.0 | 17.0 | 0.00 | 0.00 | 0.00 | 86 | 1001.0 |
| 20260509094105 | 53 | 203 | 5.0 | 16.0 | 0.00 | 0.00 | 0.00 | 86 | 1001.0 |
| 20260509094005 | 53 | 203 | 5.0 | 13.0 | 0.00 | 0.00 | 0.00 | 86 | 1001.0 |
| 20260509093905 | 53 | 205 | 5.0 | 13.0 | 0.00 | 0.00 | 0.00 | 86 | 1001.0 |
| 20260509093805 | 53 | 205 | 5.0 | 13.0 | 0.00 | 0.00 | 0.00 | 86 | 1001.0 |
| 20260509093705 | 53 | 205 | 5.0 | 13.0 | 0.00 | 0.00 | 0.00 | 87 | 1001.0 |
| 20260509093605 | 53 | 205 | 5.0 | 12.0 | 0.00 | 0.00 | 0.00 | 87 | 1001.1 |
| 20260509093505 | 53 | 200 | 5.0 | 13.0 | 0.00 | 0.00 | 0.00 | 87 | 1001.1 |
| 20260509093405 | 53 | 195 | 5.0 | 13.0 | 0.00 | 0.00 | 0.00 | 87 | 1001.0 |
| 20260509093305 | 53 | 198 | 5.0 | 13.0 | 0.00 | 0.00 | 0.00 | 87 | 1001.0 |
| 20260509093205 | 53 | 198 | 5.0 | 13.0 | 0.00 | 0.00 | 0.00 | 87 | 1001.0 |
| 20260509093105 | 53 | 202 | 4.0 | 13.0 | 0.00 | 0.00 | 0.00 | 87 | 1001.2 |
| 20260509093005 | 53 | 205 | 4.0 | 13.0 | 0.00 | 0.00 | 0.00 | 87 | 1001.2 |
| 20260509092905 | 53 | 205 | 4.0 | 13.0 | 0.00 | 0.00 | 0.00 | 87 | 1001.2 |
| 20260509092805 | 53 | 205 | 4.0 | 13.0 | 0.00 | 0.00 | 0.00 | 87 | 1001.2 |
| 20260509092726 | 53 | 206 | 4.0 | 13.0 | 0.00 | 0.00 | 0.00 | 87 | 1001.2 |
| 20260509092605 | 53 | 204 | 4.0 | 13.0 | 0.00 | 0.00 | 0.00 | 87 | 1001.2 |
| 20260509092526 | 53 | 208 | 4.0 | 12.0 | 0.00 | 0.00 | 0.00 | 87 | 1001.2 |
| 20260509092405 | 53 | 215 | 4.0 | 12.0 | 0.00 | 0.00 | 0.00 | 88 | 1001.2 |
| 20260509092306 | 53 | 215 | 5.0 | 12.0 | 0.00 | 0.00 | 0.00 | 88 | 1001.3 |
| 20260509092226 | 53 | 214 | 5.0 | 12.0 | 0.00 | 0.00 | 0.00 | 88 | 1001.3 |
| 20260509092105 | 53 | 209 | 5.0 | 12.0 | 0.00 | 0.00 | 0.00 | 88 | 1001.4 |
| 20260509092005 | 53 | 209 | 5.0 | 12.0 | 0.00 | 0.00 | 0.00 | 88 | 1001.3 |
| 20260509091926 | 53 | 206 | 5.0 | 12.0 | 0.00 | 0.00 | 0.00 | 88 | 1001.3 |
| 20260509091805 | 53 | 205 | 4.0 | 12.0 | 0.00 | 0.00 | 0.00 | 88 | 1001.4 |
| 20260509091705 | 53 | 204 | 4.0 | 12.0 | 0.00 | 0.00 | 0.00 | 88 | 1001.4 |
| 20260509091605 | 53 | 206 | 4.0 | 11.0 | 0.00 | 0.00 | 0.00 | 88 | 1001.3 |
| 20260509091505 | 53 | 208 | 4.0 | 11.0 | 0.00 | 0.00 | 0.00 | 88 | 1001.4 |
| 20260509091405 | 53 | 207 | 4.0 | 11.0 | 0.00 | 0.00 | 0.00 | 88 | 1001.4 |
| 20260509091305 | 52 | 208 | 4.0 | 15.0 | 0.00 | 0.00 | 0.00 | 88 | 1001.4 |
| 20260509091205 | 52 | 209 | 5.0 | 15.0 | 0.00 | 0.00 | 0.00 | 88 | 1001.5 |
| 20260509091105 | 53 | 207 | 5.0 | 15.0 | 0.00 | 0.00 | 0.00 | 88 | 1001.5 |
| 20260509091005 | 53 | 205 | 5.0 | 15.0 | 0.00 | 0.00 | 0.00 | 88 | 1001.5 |
| 20260509090905 | 53 | 204 | 6.0 | 15.0 | 0.00 | 0.00 | 0.00 | 88 | 1001.5 |
| 20260509090805 | 53 | 206 | 6.0 | 15.0 | 0.00 | 0.00 | 0.00 | 88 | 1001.4 |
| 20260509090705 | 53 | 204 | 6.0 | 15.0 | 0.00 | 0.00 | 0.00 | 88 | 1001.4 |
| 20260509090605 | 53 | 206 | 6.0 | 15.0 | 0.00 | 0.00 | 0.00 | 88 | 1001.4 |
| 20260509090505 | 53 | 203 | 6.0 | 15.0 | 0.00 | 0.00 | 0.00 | 88 | 1001.4 |
| 20260509090405 | 53 | 203 | 5.0 | 15.0 | 0.00 | 0.00 | 0.00 | 88 | 1001.4 |
| 20260509090326 | 53 | 202 | 5.0 | 15.0 | 0.00 | 0.00 | 0.00 | 88 | 1001.6 |
| 20260509090205 | 53 | 204 | 5.0 | 14.0 | 0.00 | 0.00 | 0.00 | 88 | 1001.6 |
| 20260509090126 | 53 | 206 | 5.0 | 13.0 | 0.00 | 0.00 | 0.00 | 88 | 1001.6 |
| 20260509090026 | 53 | 207 | 5.0 | 12.0 | 0.00 | 0.00 | 0.00 | 88 | 1001.6 |
| 20260509085905 | 53 | 211 | 4.0 | 12.0 | 0.00 | 0.00 | 0.00 | 88 | 1001.6 |
| 20260509085805 | 53 | 209 | 4.0 | 15.0 | 0.00 | 0.00 | 0.00 | 88 | 1001.5 |
| 20260509085705 | 53 | 211 | 4.0 | 15.0 | 0.00 | 0.00 | 0.00 | 87 | 1001.5 |
| 20260509085605 | 53 | 213 | 5.0 | 15.0 | 0.00 | 0.00 | 0.00 | 87 | 1001.5 |
| 20260509085505 | 53 | 218 | 5.0 | 15.0 | 0.00 | 0.00 | 0.00 | 87 | 1001.6 |
| 20260509085405 | 53 | 218 | 5.0 | 15.0 | 0.00 | 0.00 | 0.00 | 87 | 1001.6 |
| 20260509085326 | 53 | 220 | 5.0 | 15.0 | 0.00 | 0.00 | 0.00 | 87 | 1001.6 |
| 20260509085205 | 53 | 224 | 5.0 | 15.0 | 0.00 | 0.00 | 0.00 | 87 | 1001.6 |
| 20260509085105 | 53 | 229 | 5.0 | 15.0 | 0.00 | 0.00 | 0.00 | 87 | 1001.6 |
| 20260509085005 | 53 | 230 | 5.0 | 15.0 | 0.00 | 0.00 | 0.00 | 86 | 1001.6 |
| 20260509084926 | 53 | 231 | 5.0 | 15.0 | 0.00 | 0.00 | 0.00 | 86 | 1001.6 |
| 20260509084806 | 54 | 230 | 5.0 | 11.0 | 0.00 | 0.00 | 0.00 | 86 | 1001.6 |
| 20260509084705 | 54 | 232 | 5.0 | 11.0 | 0.00 | 0.00 | 0.00 | 86 | 1001.6 |
| 20260509084605 | 54 | 229 | 5.0 | 12.0 | 0.00 | 0.00 | 0.00 | 86 | 1001.6 |
| 20260509084505 | 54 | 230 | 5.0 | 16.0 | 0.00 | 0.00 | 0.00 | 86 | 1001.6 |
| 20260509084405 | 54 | 229 | 5.0 | 16.0 | 0.00 | 0.00 | 0.00 | 86 | 1001.6 |
| 20260509084305 | 54 | 228 | 5.0 | 16.0 | 0.00 | 0.00 | 0.00 | 86 | 1001.6 |
| 20260509084205 | 54 | 222 | 5.0 | 16.0 | 0.00 | 0.00 | 0.00 | 86 | 1001.6 |
| 20260509084105 | 54 | 214 | 5.0 | 16.0 | 0.00 | 0.00 | 0.00 | 86 | 1001.6 |
| 20260509084005 | 54 | 213 | 4.0 | 16.0 | 0.00 | 0.00 | 0.00 | 86 | 1001.7 |
| 20260509083905 | 54 | 210 | 4.0 | 16.0 | 0.00 | 0.00 | 0.00 | 86 | 1001.7 |
| 20260509083826 | 54 | 213 | 4.0 | 16.0 | 0.00 | 0.00 | 0.00 | 86 | 1001.7 |
| 20260509083726 | 54 | 216 | 5.0 | 16.0 | 0.00 | 0.00 | 0.00 | 86 | 1001.9 |
| 20260509083626 | 54 | 216 | 4.0 | 16.0 | 0.00 | 0.00 | 0.00 | 86 | 1001.9 |
| 20260509083505 | 54 | 209 | 4.0 | 14.0 | 0.00 | 0.00 | 0.00 | 86 | 1001.7 |
| 20260509083405 | 54 | 210 | 4.0 | 14.0 | 0.00 | 0.00 | 0.00 | 86 | 1001.8 |
| 20260509083326 | 54 | 210 | 4.0 | 14.0 | 0.00 | 0.00 | 0.00 | 86 | 1001.8 |
| 20260509083205 | 54 | 215 | 4.0 | 14.0 | 0.00 | 0.00 | 0.00 | 86 | 1001.8 |
| 20260509083105 | 54 | 218 | 4.0 | 14.0 | 0.00 | 0.00 | 0.00 | 86 | 1001.8 |
| 20260509083005 | 54 | 213 | 4.0 | 14.0 | 0.00 | 0.00 | 0.00 | 86 | 1001.8 |
| 20260509082905 | 54 | 212 | 4.0 | 14.0 | 0.00 | 0.00 | 0.00 | 86 | 1001.9 |
| 20260509082805 | 54 | 210 | 4.0 | 13.0 | 0.00 | 0.00 | 0.00 | 86 | 1001.9 |
| 20260509082705 | 54 | 205 | 4.0 | 13.0 | 0.00 | 0.00 | 0.00 | 86 | 1001.9 |
| 20260509082605 | 54 | 206 | 5.0 | 13.0 | 0.00 | 0.00 | 0.00 | 85 | 1001.9 |
| 20260509082505 | 54 | 202 | 5.0 | 13.0 | 0.00 | 0.00 | 0.00 | 85 | 1001.9 |
| 20260509082405 | 54 | 199 | 5.0 | 13.0 | 0.00 | 0.00 | 0.00 | 85 | 1001.9 |
| 20260509082326 | 54 | 198 | 5.0 | 13.0 | 0.00 | 0.00 | 0.00 | 85 | 1001.9 |
| 20260509082205 | 54 | 194 | 5.0 | 13.0 | 0.00 | 0.00 | 0.00 | 85 | 1001.9 |
| 20260509082105 | 54 | 197 | 5.0 | 12.0 | 0.00 | 0.00 | 0.00 | 85 | 1002.0 |
| 20260509082005 | 54 | 203 | 5.0 | 14.0 | 0.00 | 0.00 | 0.00 | 85 | 1002.0 |
| 20260509081905 | 54 | 207 | 4.0 | 14.0 | 0.00 | 0.00 | 0.00 | 85 | 1001.9 |
| 20260509081805 | 54 | 207 | 4.0 | 14.0 | 0.00 | 0.00 | 0.00 | 85 | 1002.0 |
| 20260509081705 | 54 | 210 | 4.0 | 14.0 | 0.00 | 0.00 | 0.00 | 85 | 1002.0 |
| 20260509081605 | 54 | 214 | 4.0 | 14.0 | 0.00 | 0.00 | 0.00 | 85 | 1002.0 |
| 20260509081526 | 54 | 215 | 4.0 | 14.0 | 0.00 | 0.00 | 0.00 | 85 | 1002.0 |
| 20260509081405 | 54 | 215 | 4.0 | 14.0 | 0.00 | 0.00 | 0.00 | 85 | 1002.0 |
| 20260509081305 | 54 | 217 | 4.0 | 14.0 | 0.00 | 0.00 | 0.00 | 85 | 1002.0 |
| 20260509081205 | 54 | 216 | 4.0 | 14.0 | 0.00 | 0.00 | 0.00 | 85 | 1002.0 |
| 20260509081126 | 54 | 218 | 4.0 | 14.0 | 0.00 | 0.00 | 0.00 | 85 | 1002.2 |
| 20260509081005 | 54 | 219 | 4.0 | 11.0 | 0.00 | 0.00 | 0.00 | 85 | 1002.2 |
| 20260509080905 | 54 | 213 | 4.0 | 11.0 | 0.00 | 0.00 | 0.00 | 84 | 1002.1 |
| 20260509080805 | 54 | 213 | 4.0 | 11.0 | 0.00 | 0.00 | 0.00 | 84 | 1002.2 |
| 20260509080705 | 54 | 212 | 4.0 | 11.0 | 0.00 | 0.00 | 0.00 | 84 | 1002.2 |
| 20260509080605 | 54 | 210 | 4.0 | 11.0 | 0.00 | 0.00 | 0.00 | 84 | 1002.2 |
| 20260509080505 | 54 | 211 | 4.0 | 11.0 | 0.00 | 0.00 | 0.00 | 84 | 1002.2 |
| 20260509080405 | 54 | 214 | 4.0 | 11.0 | 0.00 | 0.00 | 0.00 | 84 | 1002.2 |
| 20260509080305 | 54 | 211 | 4.0 | 11.0 | 0.00 | 0.00 | 0.00 | 84 | 1002.2 |
| 20260509080205 | 55 | 207 | 4.0 | 11.0 | 0.00 | 0.00 | 0.00 | 84 | 1002.2 |
| 20260509080105 | 55 | 200 | 4.0 | 11.0 | 0.00 | 0.00 | 0.00 | 84 | 1002.1 |
| 20260509080005 | 55 | 201 | 4.0 | 11.0 | 0.00 | 0.00 | 0.00 | 84 | 1002.0 |
| 20260509075905 | 55 | 203 | 4.0 | 11.0 | 0.00 | 0.00 | 0.00 | 84 | 1002.0 |
| 20260509075805 | 55 | 204 | 4.0 | 11.0 | 0.00 | 0.00 | 0.00 | 84 | 1002.3 |
| 20260509075726 | 54 | 201 | 4.0 | 11.0 | 0.00 | 0.00 | 0.00 | 84 | 1002.3 |
| 20260509075605 | 54 | 204 | 4.0 | 11.0 | 0.00 | 0.00 | 0.00 | 84 | 1002.3 |
| 20260509075505 | 54 | 208 | 5.0 | 11.0 | 0.00 | 0.00 | 0.00 | 84 | 1002.3 |
| 20260509075405 | 54 | 211 | 4.0 | 11.0 | 0.00 | 0.00 | 0.00 | 84 | 1002.3 |
| 20260509075306 | 54 | 214 | 4.0 | 11.0 | 0.00 | 0.00 | 0.00 | 84 | 1002.3 |
| 20260509075205 | 54 | 218 | 4.0 | 11.0 | 0.00 | 0.00 | 0.00 | 84 | 1002.3 |
| 20260509075105 | 54 | 226 | 4.0 | 11.0 | 0.00 | 0.00 | 0.00 | 84 | 1002.3 |
| 20260509075005 | 54 | 223 | 4.0 | 11.0 | 0.00 | 0.00 | 0.00 | 84 | 1002.4 |
| 20260509074926 | 54 | 223 | 4.0 | 11.0 | 0.00 | 0.00 | 0.00 | 83 | 1002.4 |
| 20260509074805 | 54 | 218 | 4.0 | 16.0 | 0.00 | 0.00 | 0.00 | 83 | 1002.4 |
| 20260509074705 | 54 | 218 | 4.0 | 16.0 | 0.00 | 0.00 | 0.00 | 83 | 1002.5 |
| 20260509074605 | 54 | 218 | 4.0 | 16.0 | 0.00 | 0.00 | 0.00 | 83 | 1002.5 |
| 20260509074505 | 55 | 218 | 3.0 | 16.0 | 0.00 | 0.00 | 0.00 | 83 | 1002.3 |
| 20260509074405 | 55 | 215 | 3.0 | 16.0 | 0.00 | 0.00 | 0.00 | 83 | 1002.3 |
| 20260509074326 | 54 | 213 | 3.0 | 16.0 | 0.00 | 0.00 | 0.00 | 83 | 1002.4 |
| 20260509074205 | 54 | 211 | 3.0 | 16.0 | 0.00 | 0.00 | 0.00 | 84 | 1002.4 |
| 20260509074105 | 54 | 207 | 3.0 | 16.0 | 0.00 | 0.00 | 0.00 | 84 | 1002.4 |
| 20260509074005 | 54 | 208 | 2.0 | 16.0 | 0.00 | 0.00 | 0.00 | 84 | 1002.5 |
| 20260509073905 | 54 | 217 | 3.0 | 11.0 | 0.00 | 0.00 | 0.00 | 84 | 1002.5 |
| 20260509073805 | 54 | 215 | 3.0 | 15.0 | 0.00 | 0.00 | 0.00 | 84 | 1002.5 |
| 20260509073705 | 54 | 210 | 3.0 | 15.0 | 0.00 | 0.00 | 0.00 | 84 | 1002.5 |
| 20260509073605 | 54 | 211 | 3.0 | 15.0 | 0.00 | 0.00 | 0.00 | 84 | 1002.5 |
| 20260509073505 | 54 | 212 | 3.0 | 15.0 | 0.00 | 0.00 | 0.00 | 84 | 1002.5 |
| 20260509073405 | 54 | 214 | 3.0 | 15.0 | 0.00 | 0.00 | 0.00 | 84 | 1002.5 |
| 20260509073305 | 54 | 220 | 4.0 | 15.0 | 0.00 | 0.00 | 0.00 | 84 | 1002.5 |
| 20260509073205 | 54 | 218 | 4.0 | 15.0 | 0.00 | 0.00 | 0.00 | 84 | 1002.6 |
| 20260509073105 | 54 | 215 | 4.0 | 15.0 | 0.00 | 0.00 | 0.00 | 84 | 1002.6 |
| 20260509073005 | 54 | 212 | 4.0 | 15.0 | 0.00 | 0.00 | 0.00 | 84 | 1002.7 |
| 20260509072905 | 54 | 209 | 4.0 | 15.0 | 0.00 | 0.00 | 0.00 | 84 | 1002.6 |
| 20260509072805 | 54 | 210 | 4.0 | 14.0 | 0.00 | 0.00 | 0.00 | 84 | 1002.6 |
| 20260509072705 | 54 | 211 | 4.0 | 14.0 | 0.00 | 0.00 | 0.00 | 84 | 1002.7 |
| 20260509072626 | 54 | 209 | 4.0 | 14.0 | 0.00 | 0.00 | 0.00 | 84 | 1002.7 |
| 20260509072505 | 54 | 209 | 4.0 | 14.0 | 0.00 | 0.00 | 0.00 | 84 | 1002.6 |
| 20260509072426 | 54 | 207 | 4.0 | 14.0 | 0.00 | 0.00 | 0.00 | 84 | 1002.6 |
| 20260509072306 | 54 | 205 | 4.0 | 14.0 | 0.00 | 0.00 | 0.00 | 84 | 1002.5 |
| 20260509072205 | 54 | 209 | 4.0 | 14.0 | 0.00 | 0.00 | 0.00 | 84 | 1002.6 |
| 20260509072126 | 54 | 214 | 4.0 | 14.0 | 0.00 | 0.00 | 0.00 | 84 | 1002.6 |
| 20260509072005 | 54 | 216 | 4.0 | 14.0 | 0.00 | 0.00 | 0.00 | 84 | 1002.7 |
| 20260509071905 | 54 | 216 | 4.0 | 14.0 | 0.00 | 0.00 | 0.00 | 84 | 1002.7 |
| 20260509071826 | 54 | 219 | 4.0 | 14.0 | 0.00 | 0.00 | 0.00 | 84 | 1002.7 |
| 20260509071705 | 54 | 216 | 4.0 | 12.0 | 0.00 | 0.00 | 0.00 | 84 | 1002.8 |
| 20260509071605 | 54 | 221 | 4.0 | 12.0 | 0.00 | 0.00 | 0.00 | 83 | 1002.8 |
| 20260509071505 | 54 | 220 | 4.0 | 12.0 | 0.00 | 0.00 | 0.00 | 83 | 1002.7 |
| 20260509071404 | 54 | 222 | 4.0 | 12.0 | 0.00 | 0.00 | 0.00 | 83 | 1002.8 |
| 20260509071305 | 54 | 221 | 4.0 | 12.0 | 0.00 | 0.00 | 0.00 | 83 | 1002.8 |
| 20260509071205 | 54 | 217 | 4.0 | 12.0 | 0.00 | 0.00 | 0.00 | 83 | 1002.9 |
| 20260509071105 | 54 | 213 | 4.0 | 12.0 | 0.00 | 0.00 | 0.00 | 83 | 1002.9 |
| 20260509071005 | 54 | 217 | 4.0 | 12.0 | 0.00 | 0.00 | 0.00 | 83 | 1002.9 |
| 20260509070904 | 54 | 215 | 4.0 | 12.0 | 0.00 | 0.00 | 0.00 | 83 | 1002.9 |
| 20260509070805 | 54 | 207 | 4.0 | 12.0 | 0.00 | 0.00 | 0.00 | 83 | 1002.9 |
| 20260509070705 | 54 | 210 | 4.0 | 12.0 | 0.00 | 0.00 | 0.00 | 83 | 1003.0 |
| 20260509070605 | 54 | 206 | 4.0 | 15.0 | 0.00 | 0.00 | 0.00 | 82 | 1002.9 |
| 20260509070505 | 54 | 202 | 4.0 | 15.0 | 0.00 | 0.00 | 0.00 | 82 | 1002.9 |
| 20260509070405 | 54 | 202 | 4.0 | 15.0 | 0.00 | 0.00 | 0.00 | 82 | 1002.9 |
| 20260509070326 | 54 | 200 | 4.0 | 15.0 | 0.00 | 0.00 | 0.00 | 82 | 1002.9 |
| 20260509070205 | 54 | 203 | 4.0 | 15.0 | 0.00 | 0.00 | 0.00 | 82 | 1003.0 |
| 20260509070105 | 54 | 202 | 4.0 | 15.0 | 0.00 | 0.00 | 0.00 | 81 | 1003.1 |
| 20260509070005 | 55 | 197 | 4.0 | 15.0 | 0.00 | 0.00 | 0.00 | 81 | 1003.1 |
| 20260509065905 | 55 | 202 | 4.0 | 15.0 | 0.00 | 0.00 | 0.00 | 81 | 1003.2 |
| 20260509065826 | 55 | 206 | 4.0 | 15.0 | 0.00 | 0.00 | 0.00 | 81 | 1003.2 |
| 20260509065705 | 55 | 208 | 4.0 | 15.0 | 0.00 | 0.00 | 0.00 | 81 | 1003.1 |
| 20260509065605 | 55 | 213 | 4.0 | 14.0 | 0.00 | 0.00 | 0.00 | 80 | 1003.1 |
| 20260509065504 | 55 | 218 | 4.0 | 14.0 | 0.00 | 0.00 | 0.00 | 80 | 1003.1 |
| 20260509065405 | 55 | 219 | 5.0 | 15.0 | 0.00 | 0.00 | 0.00 | 80 | 1003.0 |
| 20260509065306 | 55 | 214 | 5.0 | 15.0 | 0.00 | 0.00 | 0.00 | 80 | 1003.1 |
| 20260509065226 | 55 | 215 | 5.0 | 15.0 | 0.00 | 0.00 | 0.00 | 79 | 1003.1 |
| 20260509065105 | 55 | 215 | 5.0 | 15.0 | 0.00 | 0.00 | 0.00 | 79 | 1003.0 |
| 20260509065005 | 55 | 216 | 5.0 | 15.0 | 0.00 | 0.00 | 0.00 | 79 | 1003.0 |
| 20260509064905 | 56 | 215 | 5.0 | 15.0 | 0.00 | 0.00 | 0.00 | 79 | 1003.1 |
| 20260509064805 | 56 | 215 | 5.0 | 15.0 | 0.00 | 0.00 | 0.00 | 79 | 1003.1 |
| 20260509064704 | 56 | 213 | 5.0 | 15.0 | 0.00 | 0.00 | 0.00 | 79 | 1003.1 |
| 20260509064605 | 56 | 210 | 5.0 | 15.0 | 0.00 | 0.00 | 0.00 | 79 | 1003.3 |
| 20260509064505 | 56 | 211 | 5.0 | 15.0 | 0.00 | 0.00 | 0.00 | 79 | 1003.3 |
| 20260509064404 | 56 | 210 | 5.0 | 14.0 | 0.00 | 0.00 | 0.00 | 79 | 1003.2 |
| 20260509064304 | 56 | 214 | 5.0 | 12.0 | 0.00 | 0.00 | 0.00 | 78 | 1003.3 |
| 20260509064205 | 56 | 213 | 5.0 | 12.0 | 0.00 | 0.00 | 0.00 | 78 | 1003.3 |
| 20260509064126 | 56 | 213 | 5.0 | 12.0 | 0.00 | 0.00 | 0.00 | 78 | 1003.3 |
| 20260509064005 | 56 | 208 | 5.0 | 19.0 | 0.00 | 0.00 | 0.00 | 78 | 1003.4 |
| 20260509063925 | 56 | 208 | 5.0 | 19.0 | 0.00 | 0.00 | 0.00 | 78 | 1003.4 |
| 20260509063804 | 56 | 202 | 5.0 | 19.0 | 0.00 | 0.00 | 0.00 | 78 | 1003.4 |
| 20260509063726 | 56 | 204 | 5.0 | 19.0 | 0.00 | 0.00 | 0.00 | 78 | 1003.4 |
| 20260509063605 | 56 | 206 | 5.0 | 19.0 | 0.00 | 0.00 | 0.00 | 78 | 1003.4 |
| 20260509063505 | 56 | 205 | 5.0 | 19.0 | 0.00 | 0.00 | 0.00 | 78 | 1003.5 |
| 20260509063426 | 56 | 205 | 5.0 | 19.0 | 0.00 | 0.00 | 0.00 | 77 | 1003.5 |
| 20260509063326 | 56 | 207 | 5.0 | 19.0 | 0.00 | 0.00 | 0.00 | 77 | 1003.4 |
| 20260509063205 | 56 | 207 | 4.0 | 19.0 | 0.00 | 0.00 | 0.00 | 77 | 1003.4 |
| 20260509063105 | 56 | 204 | 4.0 | 19.0 | 0.00 | 0.00 | 0.00 | 77 | 1003.4 |
| 20260509063005 | 56 | 211 | 4.0 | 11.0 | 0.00 | 0.00 | 0.00 | 76 | 1003.4 |
| 20260509062926 | 56 | 213 | 4.0 | 11.0 | 0.00 | 0.00 | 0.00 | 76 | 1003.4 |
| 20260509062805 | 56 | 213 | 4.0 | 11.0 | 0.00 | 0.00 | 0.00 | 76 | 1003.3 |
| 20260509062705 | 56 | 214 | 4.0 | 11.0 | 0.00 | 0.00 | 0.00 | 76 | 1003.3 |
| 20260509062625 | 56 | 210 | 4.0 | 9.0 | 0.00 | 0.00 | 0.00 | 76 | 1003.4 |
| 20260509062505 | 56 | 207 | 3.0 | 9.0 | 0.00 | 0.00 | 0.00 | 75 | 1003.4 |
| 20260509062426 | 55 | 204 | 3.0 | 9.0 | 0.00 | 0.00 | 0.00 | 75 | 1003.4 |
| 20260509062326 | 55 | 197 | 3.0 | 9.0 | 0.00 | 0.00 | 0.00 | 75 | 1003.4 |
| 20260509062205 | 55 | 194 | 2.0 | 8.0 | 0.00 | 0.00 | 0.00 | 74 | 1003.4 |
| 20260509062104 | 55 | 199 | 2.0 | 8.0 | 0.00 | 0.00 | 0.00 | 74 | 1003.4 |
| 20260509062005 | 55 | 183 | 1.0 | 8.0 | 0.00 | 0.00 | 0.00 | 72 | 1003.3 |
| 20260509061926 | 54 | 178 | 1.0 | 8.0 | 0.00 | 0.00 | 0.00 | 72 | 1003.3 |
| 20260509061805 | 54 | 177 | 1.0 | 5.0 | 0.00 | 0.00 | 0.00 | 71 | 1003.3 |
| 20260509061705 | 54 | 176 | 1.0 | 6.0 | 0.00 | 0.00 | 0.00 | 68 | 1003.4 |
| 20260509061605 | 54 | 184 | 1.0 | 6.0 | 0.00 | 0.00 | 0.00 | 68 | 1003.4 |
| 20260509061505 | 54 | 187 | 1.0 | 6.0 | 0.00 | 0.00 | 0.00 | 66 | 1003.4 |
| 20260509061425 | 54 | 187 | 1.0 | 6.0 | 0.00 | 0.00 | 0.00 | 65 | 1003.4 |
| 20260509061304 | 54 | 0 | 0.0 | 6.0 | 0.00 | 0.00 | 0.00 | 63 | 1003.4 |
| 20260509061205 | 54 | 0 | 0.0 | 6.0 | 0.00 | 0.00 | 0.00 | 64 | 1003.5 |
| 20260509061105 | 54 | 0 | 0.0 | 6.0 | 0.00 | 0.00 | 0.00 | 62 | 1003.5 |
| 20260509061005 | 54 | 0 | 0.0 | 6.0 | 0.00 | 0.00 | 0.00 | 62 | 1003.6 |
| 20260509060905 | 54 | 0 | 0.0 | 6.0 | 0.00 | 0.00 | 0.00 | 62 | 1003.6 |
| 20260509060825 | 54 | 0 | 0.0 | 6.0 | 0.00 | 0.00 | 0.00 | 62 | 1003.6 |
| 20260509060705 | 53 | 0 | 0.0 | 6.0 | 0.00 | 0.00 | 0.00 | 60 | 1003.6 |
| 20260509060606 | 53 | 0 | 0.0 | 6.0 | 0.00 | 0.00 | 0.00 | 60 | 1003.6 |
| 20260509060505 | 53 | 0 | 0.0 | 6.0 | 0.00 | 0.00 | 0.00 | 60 | 1003.7 |
| 20260509060404 | 53 | 0 | 0.0 | 6.0 | 0.00 | 0.00 | 0.00 | 59 | 1003.7 |
| 20260509060304 | 54 | 0 | 0.0 | 6.0 | 0.00 | 0.00 | 0.00 | 59 | 1003.7 |
| 20260509060205 | 54 | 0 | 0.0 | 6.0 | 0.00 | 0.00 | 0.00 | 59 | 1003.7 |
| 20260509060105 | 54 | 181 | 1.0 | 6.0 | 0.00 | 0.00 | 0.00 | 59 | 1003.7 |
| 20260509060005 | 54 | 174 | 1.0 | 6.0 | 0.00 | 0.00 | 0.00 | 58 | 1003.7 |
| 20260509055905 | 54 | 175 | 1.0 | 6.0 | 0.00 | 0.00 | 0.00 | 58 | 1003.7 |
| 20260509055805 | 54 | 171 | 1.0 | 6.0 | 0.00 | 0.00 | 0.00 | 58 | 1003.7 |
| 20260509055705 | 54 | 152 | 1.0 | 5.0 | 0.00 | 0.00 | 0.00 | 58 | 1003.7 |
| 20260509055604 | 54 | 158 | 1.0 | 5.0 | 0.00 | 0.00 | 0.00 | 58 | 1003.7 |
| 20260509055504 | 54 | 166 | 1.0 | 5.0 | 0.00 | 0.00 | 0.00 | 58 | 1003.7 |
| 20260509055405 | 54 | 165 | 1.0 | 5.0 | 0.00 | 0.00 | 0.00 | 58 | 1003.8 |
| 20260509055306 | 54 | 160 | 1.0 | 5.0 | 0.00 | 0.00 | 0.00 | 57 | 1003.8 |
| 20260509055205 | 54 | 162 | 1.0 | 5.0 | 0.00 | 0.00 | 0.00 | 57 | 1003.8 |
| 20260509055105 | 54 | 165 | 1.0 | 5.0 | 0.00 | 0.00 | 0.00 | 57 | 1003.7 |
| 20260509055004 | 54 | 170 | 1.0 | 5.0 | 0.00 | 0.00 | 0.00 | 57 | 1003.7 |
| 20260509054905 | 54 | 170 | 1.0 | 5.0 | 0.00 | 0.00 | 0.00 | 57 | 1003.8 |
| 20260509054804 | 54 | 173 | 1.0 | 5.0 | 0.00 | 0.00 | 0.00 | 57 | 1003.8 |
| 20260509054704 | 54 | 178 | 1.0 | 4.0 | 0.00 | 0.00 | 0.00 | 57 | 1003.8 |
| 20260509054604 | 53 | 180 | 1.0 | 4.0 | 0.00 | 0.00 | 0.00 | 56 | 1003.8 |
| 20260509054505 | 53 | 179 | 1.0 | 4.0 | 0.00 | 0.00 | 0.00 | 56 | 1003.8 |
| 20260509054426 | 53 | 182 | 1.0 | 4.0 | 0.00 | 0.00 | 0.00 | 56 | 1003.8 |
| 20260509054305 | 53 | 0 | 0.0 | 4.0 | 0.00 | 0.00 | 0.00 | 56 | 1003.8 |
| 20260509054204 | 53 | 0 | 0.0 | 4.0 | 0.00 | 0.00 | 0.00 | 56 | 1003.8 |
| 20260509054105 | 53 | 0 | 0.0 | 4.0 | 0.00 | 0.00 | 0.00 | 56 | 1003.8 |
| 20260509054005 | 53 | 165 | 1.0 | 4.0 | 0.00 | 0.00 | 0.00 | 56 | 1003.8 |
| 20260509053926 | 53 | 161 | 1.0 | 4.0 | 0.00 | 0.00 | 0.00 | 56 | 1003.8 |
| 20260509053805 | 53 | 0 | 0.0 | 6.0 | 0.00 | 0.00 | 0.00 | 55 | 1003.8 |
| 20260509053704 | 53 | 0 | 0.0 | 6.0 | 0.00 | 0.00 | 0.00 | 55 | 1003.8 |
| 20260509053604 | 53 | 0 | 0.0 | 6.0 | 0.00 | 0.00 | 0.00 | 55 | 1003.8 |
| 20260509053504 | 53 | 0 | 0.0 | 6.0 | 0.00 | 0.00 | 0.00 | 55 | 1003.8 |
| 20260509053405 | 53 | 167 | 1.0 | 6.0 | 0.00 | 0.00 | 0.00 | 55 | 1003.8 |
| 20260509053305 | 53 | 171 | 1.0 | 6.0 | 0.00 | 0.00 | 0.00 | 55 | 1003.8 |
| 20260509053204 | 53 | 170 | 1.0 | 6.0 | 0.00 | 0.00 | 0.00 | 55 | 1003.8 |
| 20260509053105 | 53 | 177 | 1.0 | 6.0 | 0.00 | 0.00 | 0.00 | 55 | 1003.9 |
| 20260509053005 | 53 | 176 | 1.0 | 6.0 | 0.00 | 0.00 | 0.00 | 55 | 1003.9 |
| 20260509052905 | 53 | 180 | 1.0 | 6.0 | 0.00 | 0.00 | 0.00 | 55 | 1003.9 |
| 20260509052805 | 53 | 167 | 1.0 | 4.0 | 0.00 | 0.00 | 0.00 | 54 | 1003.9 |
| 20260509052704 | 53 | 167 | 1.0 | 4.0 | 0.00 | 0.00 | 0.00 | 54 | 1003.9 |
| 20260509052605 | 53 | 172 | 1.0 | 4.0 | 0.00 | 0.00 | 0.00 | 54 | 1003.9 |
| 20260509052526 | 53 | 166 | 1.0 | 4.0 | 0.00 | 0.00 | 0.00 | 54 | 1003.9 |
| 20260509052404 | 53 | 0 | 0.0 | 4.0 | 0.00 | 0.00 | 0.00 | 54 | 1003.9 |
| 20260509052307 | 53 | 155 | 1.0 | 4.0 | 0.00 | 0.00 | 0.00 | 54 | 1003.9 |
| 20260509052205 | 53 | 146 | 1.0 | 3.0 | 0.00 | 0.00 | 0.00 | 54 | 1003.8 |
| 20260509052126 | 53 | 146 | 1.0 | 3.0 | 0.00 | 0.00 | 0.00 | 54 | 1003.8 |
| 20260509052005 | 53 | 145 | 1.0 | 3.0 | 0.00 | 0.00 | 0.00 | 54 | 1003.9 |
| 20260509051904 | 53 | 144 | 1.0 | 3.0 | 0.00 | 0.00 | 0.00 | 54 | 1003.9 |
| 20260509051804 | 53 | 0 | 0.0 | 3.0 | 0.00 | 0.00 | 0.00 | 54 | 1003.9 |
| 20260509051726 | 53 | 0 | 0.0 | 3.0 | 0.00 | 0.00 | 0.00 | 54 | 1003.9 |
| 20260509051604 | 53 | 0 | 0.0 | 3.0 | 0.00 | 0.00 | 0.00 | 54 | 1003.9 |
| 20260509051505 | 52 | 0 | 0.0 | 3.0 | 0.00 | 0.00 | 0.00 | 54 | 1003.9 |
| 20260509051425 | 52 | 0 | 0.0 | 3.0 | 0.00 | 0.00 | 0.00 | 54 | 1003.9 |
| 20260509051304 | 52 | 0 | 0.0 | 3.0 | 0.00 | 0.00 | 0.00 | 54 | 1003.9 |
| 20260509051205 | 52 | 0 | 0.0 | 3.0 | 0.00 | 0.00 | 0.00 | 53 | 1003.9 |
| 20260509051105 | 52 | 0 | 0.0 | 2.0 | 0.00 | 0.00 | 0.00 | 53 | 1003.9 |
| 20260509051005 | 52 | 0 | 0.0 | 2.0 | 0.00 | 0.00 | 0.00 | 53 | 1003.9 |
| 20260509050904 | 52 | 0 | 0.0 | 2.0 | 0.00 | 0.00 | 0.00 | 53 | 1003.9 |
| 20260509050804 | 52 | 0 | 0.0 | 2.0 | 0.00 | 0.00 | 0.00 | 53 | 1003.9 |
| 20260509050705 | 52 | 0 | 0.0 | 2.0 | 0.00 | 0.00 | 0.00 | 53 | 1003.9 |
| 20260509050605 | 52 | 0 | 0.0 | 2.0 | 0.00 | 0.00 | 0.00 | 53 | 1003.9 |
| 20260509050504 | 52 | 0 | 0.0 | 2.0 | 0.00 | 0.00 | 0.00 | 53 | 1003.9 |
| 20260509050404 | 52 | 0 | 0.0 | 2.0 | 0.00 | 0.00 | 0.00 | 53 | 1003.9 |
| 20260509050304 | 52 | 0 | 0.0 | 2.0 | 0.00 | 0.00 | 0.00 | 53 | 1003.9 |
| 20260509050226 | 52 | 0 | 0.0 | 2.0 | 0.00 | 0.00 | 0.00 | 53 | 1004.0 |
| 20260509050105 | 52 | 0 | 0.0 | 2.0 | 0.00 | 0.00 | 0.00 | 53 | 1004.0 |
| 20260509050004 | 52 | 0 | 0.0 | 2.0 | 0.00 | 0.00 | 0.00 | 53 | 1003.9 |
| 20260509045904 | 52 | 0 | 0.0 | 2.0 | 0.00 | 0.00 | 0.00 | 53 | 1003.9 |
| 20260509045805 | 52 | 0 | 0.0 | 2.0 | 0.00 | 0.00 | 0.00 | 53 | 1003.9 |
| 20260509045705 | 52 | 0 | 0.0 | 2.0 | 0.00 | 0.00 | 0.00 | 53 | 1003.9 |
| 20260509045605 | 52 | 0 | 0.0 | 1.0 | 0.00 | 0.00 | 0.00 | 52 | 1003.9 |
| 20260509045504 | 52 | 0 | 0.0 | 2.0 | 0.00 | 0.00 | 0.00 | 52 | 1003.9 |
| 20260509045404 | 52 | 0 | 0.0 | 2.0 | 0.00 | 0.00 | 0.00 | 52 | 1004.0 |
| 20260509045306 | 52 | 0 | 0.0 | 2.0 | 0.00 | 0.00 | 0.00 | 52 | 1004.0 |
| 20260509045204 | 52 | 0 | 0.0 | 2.0 | 0.00 | 0.00 | 0.00 | 52 | 1004.0 |
| 20260509045105 | 52 | 0 | 0.0 | 2.0 | 0.00 | 0.00 | 0.00 | 52 | 1004.0 |
| 20260509045025 | 52 | 0 | 0.0 | 2.0 | 0.00 | 0.00 | 0.00 | 52 | 1004.0 |
| 20260509044904 | 52 | 0 | 0.0 | 2.0 | 0.00 | 0.00 | 0.00 | 52 | 1004.0 |
| 20260509044804 | 52 | 0 | 0.0 | 2.0 | 0.00 | 0.00 | 0.00 | 52 | 1004.0 |
| 20260509044726 | 52 | 0 | 0.0 | 2.0 | 0.00 | 0.00 | 0.00 | 52 | 1004.0 |
| 20260509044605 | 52 | 0 | 0.0 | 2.0 | 0.00 | 0.00 | 0.00 | 52 | 1004.0 |
| 20260509044525 | 52 | 0 | 0.0 | 1.0 | 0.00 | 0.00 | 0.00 | 52 | 1004.0 |
| 20260509044404 | 52 | 0 | 0.0 | 1.0 | 0.00 | 0.00 | 0.00 | 52 | 1004.0 |
| 20260509044304 | 52 | 0 | 0.0 | 1.0 | 0.00 | 0.00 | 0.00 | 52 | 1004.0 |
| 20260509044205 | 52 | 0 | 0.0 | 1.0 | 0.00 | 0.00 | 0.00 | 52 | 1004.0 |
| 20260509044104 | 52 | 0 | 0.0 | 1.0 | 0.00 | 0.00 | 0.00 | 52 | 1003.9 |
| 20260509044005 | 52 | 0 | 0.0 | 1.0 | 0.00 | 0.00 | 0.00 | 51 | 1003.9 |
| 20260509043904 | 52 | 0 | 0.0 | 1.0 | 0.00 | 0.00 | 0.00 | 51 | 1003.9 |
| 20260509043804 | 52 | 0 | 0.0 | 1.0 | 0.00 | 0.00 | 0.00 | 51 | 1003.9 |
| 20260509043704 | 52 | 0 | 0.0 | 1.0 | 0.00 | 0.00 | 0.00 | 51 | 1003.9 |
| 20260509043605 | 52 | 0 | 0.0 | 1.0 | 0.00 | 0.00 | 0.00 | 51 | 1003.9 |
| 20260509043504 | 52 | 0 | 0.0 | 1.0 | 0.00 | 0.00 | 0.00 | 51 | 1003.9 |
| 20260509043404 | 52 | 0 | 0.0 | 1.0 | 0.00 | 0.00 | 0.00 | 51 | 1003.9 |
| 20260509043325 | 52 | 0 | 0.0 | 1.0 | 0.00 | 0.00 | 0.00 | 51 | 1003.9 |
| 20260509043225 | 52 | 0 | 0.0 | 1.0 | 0.00 | 0.00 | 0.00 | 50 | 1003.9 |
| 20260509043105 | 52 | 0 | 0.0 | 1.0 | 0.00 | 0.00 | 0.00 | 50 | 1003.9 |
| 20260509043005 | 52 | 0 | 0.0 | 1.0 | 0.00 | 0.00 | 0.00 | 50 | 1003.9 |
| 20260509042925 | 52 | 0 | 0.0 | 1.0 | 0.00 | 0.00 | 0.00 | 50 | 1003.9 |
| 20260509042804 | 52 | 0 | 0.0 | 1.0 | 0.00 | 0.00 | 0.00 | 50 | 1004.0 |
| 20260509042704 | 52 | 0 | 0.0 | 1.0 | 0.00 | 0.00 | 0.00 | 50 | 1004.0 |
| 20260509042626 | 52 | 0 | 0.0 | 1.0 | 0.00 | 0.00 | 0.00 | 50 | 1004.0 |
| 20260509042505 | 52 | 0 | 0.0 | 1.0 | 0.00 | 0.00 | 0.00 | 49 | 1004.0 |
| 20260509042426 | 52 | 0 | 0.0 | 1.0 | 0.00 | 0.00 | 0.00 | 49 | 1004.0 |
| 20260509042307 | 52 | 0 | 0.0 | 1.0 | 0.00 | 0.00 | 0.00 | 49 | 1004.1 |
| 20260509042225 | 52 | 0 | 0.0 | 1.0 | 0.00 | 0.00 | 0.00 | 49 | 1004.1 |
| 20260509042104 | 52 | 0 | 0.0 | 1.0 | 0.00 | 0.00 | 0.00 | 49 | 1004.1 |
| 20260509042004 | 52 | 0 | 0.0 | 1.0 | 0.00 | 0.00 | 0.00 | 49 | 1004.1 |
| 20260509041904 | 52 | 0 | 0.0 | 1.0 | 0.00 | 0.00 | 0.00 | 49 | 1004.1 |
| 20260509041804 | 52 | 0 | 0.0 | 1.0 | 0.00 | 0.00 | 0.00 | 49 | 1004.2 |
| 20260509041705 | 52 | 0 | 0.0 | 1.0 | 0.00 | 0.00 | 0.00 | 48 | 1004.2 |
| 20260509041604 | 52 | 0 | 0.0 | 1.0 | 0.00 | 0.00 | 0.00 | 48 | 1004.2 |
| 20260509041505 | 52 | 0 | 0.0 | 2.0 | 0.00 | 0.00 | 0.00 | 48 | 1004.2 |
| 20260509041404 | 52 | 0 | 0.0 | 2.0 | 0.00 | 0.00 | 0.00 | 48 | 1004.2 |
| 20260509041304 | 52 | 0 | 0.0 | 2.0 | 0.00 | 0.00 | 0.00 | 47 | 1004.1 |
| 20260509041204 | 52 | 0 | 0.0 | 2.0 | 0.00 | 0.00 | 0.00 | 47 | 1004.1 |
| 20260509041104 | 52 | 0 | 0.0 | 2.0 | 0.00 | 0.00 | 0.00 | 47 | 1004.2 |
| 20260509041005 | 52 | 0 | 0.0 | 2.0 | 0.00 | 0.00 | 0.00 | 47 | 1004.2 |
| 20260509040904 | 52 | 0 | 0.0 | 2.0 | 0.00 | 0.00 | 0.00 | 47 | 1004.2 |
| 20260509040805 | 52 | 0 | 0.0 | 2.0 | 0.00 | 0.00 | 0.00 | 47 | 1004.2 |
| 20260509040704 | 52 | 0 | 0.0 | 2.0 | 0.00 | 0.00 | 0.00 | 47 | 1004.2 |
| 20260509040604 | 52 | 0 | 0.0 | 2.0 | 0.00 | 0.00 | 0.00 | 47 | 1004.3 |
| 20260509040505 | 52 | 0 | 0.0 | 2.0 | 0.00 | 0.00 | 0.00 | 46 | 1004.3 |
| 20260509040404 | 52 | 0 | 0.0 | 2.0 | 0.00 | 0.00 | 0.00 | 46 | 1004.3 |
| 20260509040304 | 52 | 0 | 0.0 | 1.0 | 0.00 | 0.00 | 0.00 | 46 | 1004.3 |
| 20260509040204 | 52 | 0 | 0.0 | 3.0 | 0.00 | 0.00 | 0.00 | 46 | 1004.4 |
| 20260509040104 | 52 | 0 | 0.0 | 3.0 | 0.00 | 0.00 | 0.00 | 46 | 1004.4 |
| 20260509040006 | 52 | 0 | 0.0 | 3.0 | 0.00 | 0.00 | 0.00 | 45 | 1004.4 |
| 20260509035904 | 52 | 0 | 0.0 | 3.0 | 0.00 | 0.00 | 0.00 | 45 | 1004.4 |
| 20260509035804 | 52 | 0 | 0.0 | 3.0 | 0.00 | 0.00 | 0.00 | 45 | 1004.5 |
| 20260509035704 | 52 | 0 | 0.0 | 3.0 | 0.00 | 0.00 | 0.00 | 45 | 1004.5 |
| 20260509035604 | 52 | 0 | 0.0 | 3.0 | 0.00 | 0.00 | 0.00 | 44 | 1004.5 |
| 20260509035505 | 52 | 0 | 0.0 | 3.0 | 0.00 | 0.00 | 0.00 | 44 | 1004.5 |
| 20260509035404 | 52 | 0 | 0.0 | 3.0 | 0.00 | 0.00 | 0.00 | 44 | 1004.5 |
| 20260509035306 | 52 | 0 | 0.0 | 3.0 | 0.00 | 0.00 | 0.00 | 44 | 1004.5 |
| 20260509035225 | 52 | 0 | 0.0 | 3.0 | 0.00 | 0.00 | 0.00 | 44 | 1004.5 |
| 20260509035104 | 52 | 0 | 0.0 | 2.0 | 0.00 | 0.00 | 0.00 | 44 | 1004.5 |
| 20260509035004 | 52 | 0 | 0.0 | 2.0 | 0.00 | 0.00 | 0.00 | 44 | 1004.5 |
| 20260509034926 | 52 | 0 | 0.0 | 2.0 | 0.00 | 0.00 | 0.00 | 43 | 1004.5 |
| 20260509034804 | 52 | 0 | 0.0 | 1.0 | 0.00 | 0.00 | 0.00 | 43 | 1004.5 |
| 20260509034704 | 52 | 0 | 0.0 | 1.0 | 0.00 | 0.00 | 0.00 | 43 | 1004.5 |
| 20260509034604 | 52 | 0 | 0.0 | 1.0 | 0.00 | 0.00 | 0.00 | 43 | 1004.5 |
| 20260509034504 | 52 | 0 | 0.0 | 1.0 | 0.00 | 0.00 | 0.00 | 42 | 1004.6 |
| 20260509034404 | 52 | 0 | 0.0 | 1.0 | 0.00 | 0.00 | 0.00 | 42 | 1004.6 |
| 20260509034304 | 52 | 0 | 0.0 | 1.0 | 0.00 | 0.00 | 0.00 | 42 | 1004.6 |
| 20260509034204 | 52 | 0 | 0.0 | 1.0 | 0.00 | 0.00 | 0.00 | 42 | 1004.6 |
| 20260509034104 | 52 | 0 | 0.0 | 1.0 | 0.00 | 0.00 | 0.00 | 41 | 1004.6 |
| 20260509034004 | 52 | 0 | 0.0 | 1.0 | 0.00 | 0.00 | 0.00 | 41 | 1004.6 |
| 20260509033904 | 52 | 0 | 0.0 | 1.0 | 0.00 | 0.00 | 0.00 | 41 | 1004.6 |
| 20260509033804 | 52 | 0 | 0.0 | 1.0 | 0.00 | 0.00 | 0.00 | 41 | 1004.7 |
| 20260509033704 | 52 | 0 | 0.0 | 1.0 | 0.00 | 0.00 | 0.00 | 41 | 1004.7 |
| 20260509033604 | 52 | 0 | 0.0 | 1.0 | 0.00 | 0.00 | 0.00 | 41 | 1004.7 |
| 20260509033504 | 52 | 0 | 0.0 | 1.0 | 0.00 | 0.00 | 0.00 | 40 | 1004.7 |
| 20260509033405 | 52 | 0 | 0.0 | 1.0 | 0.00 | 0.00 | 0.00 | 40 | 1004.7 |
| 20260509033325 | 52 | 0 | 0.0 | 1.0 | 0.00 | 0.00 | 0.00 | 40 | 1004.7 |
| 20260509033204 | 52 | 0 | 0.0 | 1.0 | 0.00 | 0.00 | 0.00 | 40 | 1004.7 |
| 20260509033104 | 52 | 0 | 0.0 | 1.0 | 0.00 | 0.00 | 0.00 | 40 | 1004.8 |
| 20260509033005 | 52 | 0 | 0.0 | 1.0 | 0.00 | 0.00 | 0.00 | 40 | 1004.8 |
| 20260509032904 | 52 | 0 | 0.0 | 1.0 | 0.00 | 0.00 | 0.00 | 39 | 1004.8 |
| 20260509032804 | 52 | 0 | 0.0 | 1.0 | 0.00 | 0.00 | 0.00 | 39 | 1004.8 |
| 20260509032704 | 52 | 0 | 0.0 | 1.0 | 0.00 | 0.00 | 0.00 | 39 | 1004.8 |
| 20260509032604 | 52 | 0 | 0.0 | 1.0 | 0.00 | 0.00 | 0.00 | 40 | 1004.8 |
| 20260509032504 | 52 | 0 | 0.0 | 1.0 | 0.00 | 0.00 | 0.00 | 39 | 1004.8 |
| 20260509032425 | 52 | 0 | 0.0 | 1.0 | 0.00 | 0.00 | 0.00 | 39 | 1004.8 |
| 20260509032306 | 52 | 0 | 0.0 | 2.0 | 0.00 | 0.00 | 0.00 | 39 | 1004.8 |
| 20260509032204 | 52 | 0 | 0.0 | 2.0 | 0.00 | 0.00 | 0.00 | 39 | 1004.8 |
| 20260509032104 | 52 | 0 | 0.0 | 2.0 | 0.00 | 0.00 | 0.00 | 39 | 1004.8 |
| 20260509032004 | 52 | 0 | 0.0 | 2.0 | 0.00 | 0.00 | 0.00 | 39 | 1004.9 |
| 20260509031904 | 52 | 0 | 0.0 | 2.0 | 0.00 | 0.00 | 0.00 | 39 | 1004.9 |
| 20260509031804 | 52 | 0 | 0.0 | 2.0 | 0.00 | 0.00 | 0.00 | 38 | 1004.9 |
| 20260509031704 | 52 | 0 | 0.0 | 2.0 | 0.00 | 0.00 | 0.00 | 39 | 1004.9 |
| 20260509031604 | 52 | 0 | 0.0 | 2.0 | 0.00 | 0.00 | 0.00 | 39 | 1004.9 |
| 20260509031505 | 52 | 0 | 0.0 | 2.0 | 0.00 | 0.00 | 0.00 | 39 | 1005.0 |
| 20260509031404 | 52 | 0 | 0.0 | 1.0 | 0.00 | 0.00 | 0.00 | 38 | 1005.0 |
| 20260509031304 | 52 | 0 | 0.0 | 1.0 | 0.00 | 0.00 | 0.00 | 38 | 1005.0 |
| 20260509031225 | 52 | 0 | 0.0 | 1.0 | 0.00 | 0.00 | 0.00 | 38 | 1005.0 |
| 20260509031125 | 52 | 0 | 0.0 | 0.0 | 0.00 | 0.00 | 0.00 | 38 | 1005.0 |
| 20260509031025 | 53 | 0 | 0.0 | 3.0 | 0.00 | 0.00 | 0.00 | 38 | 1005.1 |
| 20260509030904 | 53 | 0 | 0.0 | 3.0 | 0.00 | 0.00 | 0.00 | 38 | 1005.1 |
| 20260509030804 | 53 | 0 | 0.0 | 3.0 | 0.00 | 0.00 | 0.00 | 37 | 1005.1 |
| 20260509030704 | 53 | 0 | 0.0 | 3.0 | 0.00 | 0.00 | 0.00 | 37 | 1005.1 |
| 20260509030604 | 53 | 0 | 0.0 | 3.0 | 0.00 | 0.00 | 0.00 | 37 | 1005.1 |
| 20260509030504 | 53 | 0 | 0.0 | 3.0 | 0.00 | 0.00 | 0.00 | 37 | 1005.1 |
| 20260509030404 | 53 | 0 | 0.0 | 3.0 | 0.00 | 0.00 | 0.00 | 37 | 1005.1 |
| 20260509030304 | 53 | 0 | 0.0 | 3.0 | 0.00 | 0.00 | 0.00 | 37 | 1005.1 |
| 20260509030204 | 53 | 0 | 0.0 | 3.0 | 0.00 | 0.00 | 0.00 | 37 | 1005.1 |
| 20260509030105 | 53 | 0 | 0.0 | 3.0 | 0.00 | 0.00 | 0.00 | 37 | 1005.1 |
| 20260509030004 | 53 | 0 | 0.0 | 2.0 | 0.00 | 0.00 | 0.00 | 37 | 1005.1 |
| 20260509025904 | 53 | 0 | 0.0 | 2.0 | 0.00 | 0.00 | 0.00 | 37 | 1005.1 |
| 20260509025804 | 53 | 0 | 0.0 | 2.0 | 0.00 | 0.00 | 0.00 | 36 | 1005.1 |
| 20260509025704 | 53 | 0 | 0.0 | 3.0 | 0.00 | 0.00 | 0.00 | 36 | 1005.1 |
| 20260509025604 | 53 | 0 | 0.0 | 3.0 | 0.00 | 0.00 | 0.00 | 36 | 1005.1 |
| 20260509025505 | 53 | 0 | 0.0 | 3.0 | 0.00 | 0.00 | 0.00 | 36 | 1005.1 |
| 20260509025404 | 53 | 0 | 0.0 | 3.0 | 0.00 | 0.00 | 0.00 | 36 | 1005.1 |
| 20260509025306 | 53 | 0 | 0.0 | 3.0 | 0.00 | 0.00 | 0.00 | 36 | 1005.1 |
| 20260509025204 | 53 | 0 | 0.0 | 3.0 | 0.00 | 0.00 | 0.00 | 36 | 1005.2 |
| 20260509025104 | 53 | 0 | 0.0 | 3.0 | 0.00 | 0.00 | 0.00 | 36 | 1005.1 |
| 20260509025004 | 53 | 0 | 0.0 | 3.0 | 0.00 | 0.00 | 0.00 | 36 | 1005.1 |
| 20260509024904 | 53 | 0 | 0.0 | 3.0 | 0.00 | 0.00 | 0.00 | 36 | 1005.1 |
| 20260509024804 | 53 | 0 | 0.0 | 3.0 | 0.00 | 0.00 | 0.00 | 36 | 1005.1 |
| 20260509024725 | 53 | 0 | 0.0 | 3.0 | 0.00 | 0.00 | 0.00 | 36 | 1005.1 |
| 20260509024604 | 53 | 0 | 0.0 | 1.0 | 0.00 | 0.00 | 0.00 | 36 | 1005.2 |
| 20260509024504 | 53 | 0 | 0.0 | 1.0 | 0.00 | 0.00 | 0.00 | 36 | 1005.2 |
| 20260509024426 | 53 | 0 | 0.0 | 1.0 | 0.00 | 0.00 | 0.00 | 36 | 1005.2 |
| 20260509024325 | 53 | 0 | 0.0 | 1.0 | 0.00 | 0.00 | 0.00 | 36 | 1005.2 |
| 20260509024225 | 53 | 0 | 0.0 | 1.0 | 0.00 | 0.00 | 0.00 | 36 | 1005.3 |
| 20260509024125 | 53 | 0 | 0.0 | 1.0 | 0.00 | 0.00 | 0.00 | 36 | 1005.3 |
| 20260509024004 | 53 | 0 | 0.0 | 1.0 | 0.00 | 0.00 | 0.00 | 36 | 1005.2 |
| 20260509023904 | 53 | 0 | 0.0 | 1.0 | 0.00 | 0.00 | 0.00 | 36 | 1005.2 |
| 20260509023804 | 53 | 0 | 0.0 | 1.0 | 0.00 | 0.00 | 0.00 | 36 | 1005.2 |
| 20260509023704 | 53 | 0 | 0.0 | 1.0 | 0.00 | 0.00 | 0.00 | 36 | 1005.2 |
| 20260509023604 | 53 | 0 | 0.0 | 1.0 | 0.00 | 0.00 | 0.00 | 36 | 1005.2 |
| 20260509023504 | 53 | 0 | 0.0 | 1.0 | 0.00 | 0.00 | 0.00 | 36 | 1005.2 |
| 20260509023405 | 53 | 0 | 0.0 | 1.0 | 0.00 | 0.00 | 0.00 | 36 | 1005.2 |
| 20260509023304 | 53 | 0 | 0.0 | 1.0 | 0.00 | 0.00 | 0.00 | 36 | 1005.2 |
| 20260509023204 | 53 | 0 | 0.0 | 1.0 | 0.00 | 0.00 | 0.00 | 36 | 1005.2 |
| 20260509023125 | 53 | 0 | 0.0 | 0.0 | 0.00 | 0.00 | 0.00 | 36 | 1005.2 |
| 20260509023004 | 53 | 0 | 0.0 | 1.0 | 0.00 | 0.00 | 0.00 | 36 | 1005.2 |
| 20260509022925 | 53 | 0 | 0.0 | 1.0 | 0.00 | 0.00 | 0.00 | 36 | 1005.3 |
| 20260509022804 | 53 | 0 | 0.0 | 1.0 | 0.00 | 0.00 | 0.00 | 36 | 1005.3 |
| 20260509022725 | 53 | 0 | 0.0 | 1.0 | 0.00 | 0.00 | 0.00 | 36 | 1005.3 |
| 20260509022626 | 53 | 0 | 0.0 | 1.0 | 0.00 | 0.00 | 0.00 | 36 | 1005.3 |
| 20260509022504 | 53 | 0 | 0.0 | 1.0 | 0.00 | 0.00 | 0.00 | 36 | 1005.3 |
| 20260509022425 | 53 | 0 | 0.0 | 1.0 | 0.00 | 0.00 | 0.00 | 36 | 1005.3 |
| 20260509022306 | 53 | 0 | 0.0 | 1.0 | 0.00 | 0.00 | 0.00 | 36 | 1005.3 |
| 20260509022204 | 53 | 0 | 0.0 | 1.0 | 0.00 | 0.00 | 0.00 | 36 | 1005.3 |
| 20260509022104 | 53 | 0 | 0.0 | 1.0 | 0.00 | 0.00 | 0.00 | 36 | 1005.3 |
| 20260509022004 | 53 | 0 | 0.0 | 0.0 | 0.00 | 0.00 | 0.00 | 36 | 1005.4 |
| 20260509021904 | 53 | 0 | 0.0 | 0.0 | 0.00 | 0.00 | 0.00 | 36 | 1005.4 |
| 20260509021804 | 53 | 0 | 0.0 | 1.0 | 0.00 | 0.00 | 0.00 | 36 | 1005.4 |
| 20260509021725 | 53 | 0 | 0.0 | 1.0 | 0.00 | 0.00 | 0.00 | 36 | 1005.4 |
| 20260509021604 | 53 | 0 | 0.0 | 1.0 | 0.00 | 0.00 | 0.00 | 36 | 1005.4 |
| 20260509021525 | 53 | 0 | 0.0 | 1.0 | 0.00 | 0.00 | 0.00 | 36 | 1005.4 |
| 20260509021404 | 53 | 0 | 0.0 | 1.0 | 0.00 | 0.00 | 0.00 | 36 | 1005.4 |
| 20260509021304 | 53 | 0 | 0.0 | 1.0 | 0.00 | 0.00 | 0.00 | 36 | 1005.5 |
| 20260509021204 | 53 | 0 | 0.0 | 1.0 | 0.00 | 0.00 | 0.00 | 36 | 1005.5 |
| 20260509021104 | 53 | 0 | 0.0 | 1.0 | 0.00 | 0.00 | 0.00 | 36 | 1005.5 |
| 20260509021004 | 53 | 0 | 0.0 | 1.0 | 0.00 | 0.00 | 0.00 | 36 | 1005.5 |
| 20260509020904 | 53 | 0 | 0.0 | 1.0 | 0.00 | 0.00 | 0.00 | 36 | 1005.5 |
| 20260509020805 | 53 | 0 | 0.0 | 1.0 | 0.00 | 0.00 | 0.00 | 36 | 1005.4 |
| 20260509020725 | 53 | 0 | 0.0 | 1.0 | 0.00 | 0.00 | 0.00 | 36 | 1005.4 |
| 20260509020605 | 53 | 0 | 0.0 | 1.0 | 0.00 | 0.00 | 0.00 | 36 | 1005.4 |
| 20260509020504 | 53 | 0 | 0.0 | 1.0 | 0.00 | 0.00 | 0.00 | 36 | 1005.4 |
| 20260509020404 | 53 | 0 | 0.0 | 1.0 | 0.00 | 0.00 | 0.00 | 36 | 1005.4 |
| 20260509020304 | 53 | 0 | 0.0 | 1.0 | 0.00 | 0.00 | 0.00 | 36 | 1005.4 |
| 20260509020204 | 53 | 0 | 0.0 | 0.0 | 0.00 | 0.00 | 0.00 | 35 | 1005.5 |
| 20260509020104 | 53 | 0 | 0.0 | 0.0 | 0.00 | 0.00 | 0.00 | 35 | 1005.5 |
| 20260509020004 | 53 | 0 | 0.0 | 0.0 | 0.00 | 0.00 | 0.00 | 35 | 1005.4 |
| 20260509015904 | 53 | 0 | 0.0 | 1.0 | 0.00 | 0.00 | 0.00 | 35 | 1005.4 |
| 20260509015825 | 53 | 0 | 0.0 | 1.0 | 0.00 | 0.00 | 0.00 | 35 | 1005.4 |
| 20260509015725 | 53 | 0 | 0.0 | 1.0 | 0.00 | 0.00 | 0.00 | 35 | 1005.4 |
| 20260509015604 | 53 | 0 | 0.0 | 1.0 | 0.00 | 0.00 | 0.00 | 35 | 1005.4 |
| 20260509015504 | 53 | 0 | 0.0 | 1.0 | 0.00 | 0.00 | 0.00 | 35 | 1005.4 |
| 20260509015425 | 53 | 0 | 0.0 | 1.0 | 0.00 | 0.00 | 0.00 | 35 | 1005.4 |
| 20260509015325 | 53 | 0 | 0.0 | 1.0 | 0.00 | 0.00 | 0.00 | 35 | 1005.4 |
| 20260509015225 | 53 | 0 | 0.0 | 1.0 | 0.00 | 0.00 | 0.00 | 35 | 1005.4 |
| 20260509015104 | 53 | 0 | 0.0 | 1.0 | 0.00 | 0.00 | 0.00 | 35 | 1005.4 |
| 20260509015004 | 53 | 0 | 0.0 | 1.0 | 0.00 | 0.00 | 0.00 | 35 | 1005.4 |
| 20260509014904 | 54 | 0 | 0.0 | 0.0 | 0.00 | 0.00 | 0.00 | 35 | 1005.4 |
| 20260509014804 | 54 | 0 | 0.0 | 0.0 | 0.00 | 0.00 | 0.00 | 36 | 1005.4 |
| 20260509014704 | 54 | 0 | 0.0 | 0.0 | 0.00 | 0.00 | 0.00 | 36 | 1005.4 |
| 20260509014604 | 54 | 0 | 0.0 | 0.0 | 0.00 | 0.00 | 0.00 | 36 | 1005.4 |
| 20260509014525 | 54 | 0 | 0.0 | 0.0 | 0.00 | 0.00 | 0.00 | 35 | 1005.4 |
| 20260509014404 | 54 | 0 | 0.0 | 0.0 | 0.00 | 0.00 | 0.00 | 36 | 1005.4 |
| 20260509014325 | 54 | 0 | 0.0 | 0.0 | 0.00 | 0.00 | 0.00 | 36 | 1005.4 |
| 20260509014204 | 54 | 0 | 0.0 | 1.0 | 0.00 | 0.00 | 0.00 | 35 | 1005.3 |
| 20260509014104 | 54 | 0 | 0.0 | 1.0 | 0.00 | 0.00 | 0.00 | 35 | 1005.3 |
| 20260509014004 | 54 | 0 | 0.0 | 1.0 | 0.00 | 0.00 | 0.00 | 35 | 1005.3 |
| 20260509013904 | 54 | 0 | 0.0 | 1.0 | 0.00 | 0.00 | 0.00 | 35 | 1005.3 |
| 20260509013804 | 54 | 0 | 0.0 | 1.0 | 0.00 | 0.00 | 0.00 | 34 | 1005.3 |
| 20260509013704 | 54 | 0 | 0.0 | 1.0 | 0.00 | 0.00 | 0.00 | 34 | 1005.2 |
| 20260509013604 | 54 | 0 | 0.0 | 1.0 | 0.00 | 0.00 | 0.00 | 34 | 1005.2 |
| 20260509013504 | 54 | 0 | 0.0 | 1.0 | 0.00 | 0.00 | 0.00 | 34 | 1005.2 |
| 20260509013404 | 54 | 0 | 0.0 | 1.0 | 0.00 | 0.00 | 0.00 | 35 | 1005.2 |
| 20260509013304 | 54 | 0 | 0.0 | 1.0 | 0.00 | 0.00 | 0.00 | 35 | 1005.2 |
| 20260509013204 | 54 | 0 | 0.0 | 0.0 | 0.00 | 0.00 | 0.00 | 35 | 1005.2 |
| 20260509013104 | 54 | 0 | 0.0 | 1.0 | 0.00 | 0.00 | 0.00 | 35 | 1005.2 |
| 20260509013004 | 54 | 0 | 0.0 | 1.0 | 0.00 | 0.00 | 0.00 | 35 | 1005.2 |
| 20260509012904 | 54 | 0 | 0.0 | 1.0 | 0.00 | 0.00 | 0.00 | 35 | 1005.2 |
| 20260509012804 | 54 | 0 | 0.0 | 1.0 | 0.00 | 0.00 | 0.00 | 34 | 1005.2 |
| 20260509012704 | 54 | 0 | 0.0 | 1.0 | 0.00 | 0.00 | 0.00 | 34 | 1005.1 |
| 20260509012604 | 54 | 0 | 0.0 | 1.0 | 0.00 | 0.00 | 0.00 | 34 | 1005.2 |
| 20260509012504 | 54 | 0 | 0.0 | 1.0 | 0.00 | 0.00 | 0.00 | 34 | 1005.2 |
| 20260509012404 | 54 | 0 | 0.0 | 1.0 | 0.00 | 0.00 | 0.00 | 34 | 1005.1 |
| 20260509012307 | 55 | 0 | 0.0 | 1.0 | 0.00 | 0.00 | 0.00 | 34 | 1005.1 |
| 20260509012204 | 55 | 0 | 0.0 | 1.0 | 0.00 | 0.00 | 0.00 | 34 | 1005.0 |
| 20260509012104 | 55 | 0 | 0.0 | 0.0 | 0.00 | 0.00 | 0.00 | 33 | 1005.0 |
| 20260509012004 | 55 | 0 | 0.0 | 0.0 | 0.00 | 0.00 | 0.00 | 33 | 1005.0 |
| 20260509011904 | 55 | 0 | 0.0 | 0.0 | 0.00 | 0.00 | 0.00 | 33 | 1005.0 |
| 20260509011804 | 55 | 0 | 0.0 | 0.0 | 0.00 | 0.00 | 0.00 | 33 | 1005.0 |
| 20260509011704 | 55 | 0 | 0.0 | 0.0 | 0.00 | 0.00 | 0.00 | 33 | 1005.0 |
| 20260509011604 | 55 | 0 | 0.0 | 0.0 | 0.00 | 0.00 | 0.00 | 33 | 1005.1 |
| 20260509011504 | 55 | 0 | 0.0 | 0.0 | 0.00 | 0.00 | 0.00 | 33 | 1005.1 |
| 20260509011405 | 55 | 0 | 0.0 | 0.0 | 0.00 | 0.00 | 0.00 | 33 | 1005.2 |
| 20260509011304 | 55 | 0 | 0.0 | 0.0 | 0.00 | 0.00 | 0.00 | 33 | 1005.2 |
| 20260509011204 | 55 | 0 | 0.0 | 0.0 | 0.00 | 0.00 | 0.00 | 32 | 1005.2 |
| 20260509011104 | 55 | 0 | 0.0 | 0.0 | 0.00 | 0.00 | 0.00 | 32 | 1005.2 |
| 20260509011004 | 55 | 0 | 0.0 | 0.0 | 0.00 | 0.00 | 0.00 | 32 | 1005.2 |
| 20260509010904 | 55 | 0 | 0.0 | 0.0 | 0.00 | 0.00 | 0.00 | 32 | 1005.2 |
| 20260509010825 | 55 | 0 | 0.0 | 0.0 | 0.00 | 0.00 | 0.00 | 32 | 1005.2 |
| 20260509010704 | 56 | 0 | 0.0 | 0.0 | 0.00 | 0.00 | 0.00 | 32 | 1005.2 |
| 20260509010604 | 56 | 0 | 0.0 | 0.0 | 0.00 | 0.00 | 0.00 | 32 | 1005.2 |
| 20260509010504 | 56 | 0 | 0.0 | 0.0 | 0.00 | 0.00 | 0.00 | 32 | 1005.2 |
| 20260509010404 | 56 | 0 | 0.0 | 0.0 | 0.00 | 0.00 | 0.00 | 31 | 1005.2 |
| 20260509010304 | 56 | 0 | 0.0 | 0.0 | 0.00 | 0.00 | 0.00 | 31 | 1005.2 |
| 20260509010205 | 56 | 0 | 0.0 | 0.0 | 0.00 | 0.00 | 0.00 | 31 | 1005.2 |
| 20260509010104 | 56 | 0 | 0.0 | 0.0 | 0.00 | 0.00 | 0.00 | 31 | 1005.2 |
| 20260509010004 | 56 | 0 | 0.0 | 0.0 | 0.00 | 0.00 | 0.00 | 31 | 1005.2 |
| 20260509005925 | 56 | 0 | 0.0 | 0.0 | 0.00 | 0.00 | 0.00 | 30 | 1005.2 |
| 20260509005804 | 57 | 0 | 0.0 | 0.0 | 0.00 | 0.00 | 0.00 | 30 | 1005.2 |
| 20260509005704 | 57 | 0 | 0.0 | 0.0 | 0.00 | 0.00 | 0.00 | 30 | 1005.2 |
| 20260509005604 | 57 | 0 | 0.0 | 0.0 | 0.00 | 0.00 | 0.00 | 30 | 1005.2 |
| 20260509005504 | 57 | 0 | 0.0 | 0.0 | 0.00 | 0.00 | 0.00 | 30 | 1005.2 |
| 20260509005404 | 57 | 0 | 0.0 | 0.0 | 0.00 | 0.00 | 0.00 | 30 | 1005.2 |
| 20260509005306 | 57 | 0 | 0.0 | 0.0 | 0.00 | 0.00 | 0.00 | 29 | 1005.2 |
| 20260509005204 | 57 | 0 | 0.0 | 0.0 | 0.00 | 0.00 | 0.00 | 29 | 1005.2 |
| 20260509005104 | 57 | 0 | 0.0 | 0.0 | 0.00 | 0.00 | 0.00 | 28 | 1005.2 |
| 20260509005004 | 57 | 0 | 0.0 | 0.0 | 0.00 | 0.00 | 0.00 | 28 | 1005.1 |
| 20260509004904 | 57 | 0 | 0.0 | 0.0 | 0.00 | 0.00 | 0.00 | 28 | 1005.1 |
| 20260509004804 | 57 | 0 | 0.0 | 0.0 | 0.00 | 0.00 | 0.00 | 29 | 1005.2 |
| 20260509004704 | 57 | 0 | 0.0 | 1.0 | 0.00 | 0.00 | 0.00 | 29 | 1005.2 |
| 20260509004625 | 58 | 0 | 0.0 | 1.0 | 0.00 | 0.00 | 0.00 | 28 | 1005.2 |
| 20260509004504 | 58 | 0 | 0.0 | 1.0 | 0.00 | 0.00 | 0.00 | 28 | 1005.2 |
| 20260509004425 | 58 | 0 | 0.0 | 1.0 | 0.00 | 0.00 | 0.00 | 28 | 1005.2 |
| 20260509004304 | 58 | 0 | 0.0 | 1.0 | 0.00 | 0.00 | 0.00 | 28 | 1005.2 |
| 20260509004204 | 58 | 0 | 0.0 | 1.0 | 0.00 | 0.00 | 0.00 | 28 | 1005.2 |
| 20260509004104 | 58 | 0 | 0.0 | 1.0 | 0.00 | 0.00 | 0.00 | 28 | 1005.2 |
| 20260509004025 | 58 | 0 | 0.0 | 1.0 | 0.00 | 0.00 | 0.00 | 28 | 1005.2 |
| 20260509003904 | 58 | 0 | 0.0 | 1.0 | 0.00 | 0.00 | 0.00 | 27 | 1005.2 |
| 20260509003804 | 58 | 0 | 0.0 | 1.0 | 0.00 | 0.00 | 0.00 | 27 | 1005.3 |
| 20260509003704 | 58 | 0 | 0.0 | 1.0 | 0.00 | 0.00 | 0.00 | 27 | 1005.3 |
| 20260509003604 | 58 | 0 | 0.0 | 1.0 | 0.00 | 0.00 | 0.00 | 27 | 1005.3 |
| 20260509003504 | 58 | 0 | 0.0 | 1.0 | 0.00 | 0.00 | 0.00 | 27 | 1005.3 |
| 20260509003404 | 58 | 0 | 0.0 | 1.0 | 0.00 | 0.00 | 0.00 | 27 | 1005.3 |
| 20260509003304 | 58 | 0 | 0.0 | 1.0 | 0.00 | 0.00 | 0.00 | 27 | 1005.3 |
| 20260509003204 | 58 | 0 | 0.0 | 1.0 | 0.00 | 0.00 | 0.00 | 27 | 1005.2 |
| 20260509003104 | 58 | 0 | 0.0 | 1.0 | 0.00 | 0.00 | 0.00 | 27 | 1005.2 |
| 20260509003004 | 58 | 0 | 0.0 | 1.0 | 0.00 | 0.00 | 0.00 | 27 | 1005.3 |
| 20260509002904 | 58 | 0 | 0.0 | 4.0 | 0.00 | 0.00 | 0.00 | 27 | 1005.3 |
| 20260509002804 | 58 | 0 | 0.0 | 4.0 | 0.00 | 0.00 | 0.00 | 27 | 1005.3 |
| 20260509002704 | 59 | 0 | 0.0 | 4.0 | 0.00 | 0.00 | 0.00 | 27 | 1005.3 |
| 20260509002604 | 59 | 0 | 0.0 | 4.0 | 0.00 | 0.00 | 0.00 | 26 | 1005.3 |
| 20260509002525 | 59 | 0 | 0.0 | 4.0 | 0.00 | 0.00 | 0.00 | 27 | 1005.3 |
| 20260509002404 | 59 | 0 | 0.0 | 4.0 | 0.00 | 0.00 | 0.00 | 26 | 1005.3 |
| 20260509002306 | 59 | 0 | 0.0 | 4.0 | 0.00 | 0.00 | 0.00 | 26 | 1005.3 |
| 20260509002204 | 59 | 0 | 0.0 | 4.0 | 0.00 | 0.00 | 0.00 | 27 | 1005.3 |
| 20260509002105 | 59 | 98 | 1.0 | 4.0 | 0.00 | 0.00 | 0.00 | 26 | 1005.3 |
| 20260509002025 | 59 | 96 | 1.0 | 4.0 | 0.00 | 0.00 | 0.00 | 26 | 1005.4 |
| 20260509001904 | 59 | 0 | 0.0 | 4.0 | 0.00 | 0.00 | 0.00 | 26 | 1005.4 |
| 20260509001804 | 59 | 0 | 0.0 | 4.0 | 0.00 | 0.00 | 0.00 | 26 | 1005.4 |
| 20260509001704 | 59 | 0 | 0.0 | 4.0 | 0.00 | 0.00 | 0.00 | 26 | 1005.5 |
| 20260509001604 | 59 | 0 | 0.0 | 4.0 | 0.00 | 0.00 | 0.00 | 26 | 1005.5 |
| 20260509001504 | 59 | 0 | 0.0 | 4.0 | 0.00 | 0.00 | 0.00 | 26 | 1005.5 |
| 20260509001404 | 59 | 0 | 0.0 | 4.0 | 0.00 | 0.00 | 0.00 | 26 | 1005.5 |
| 20260509001304 | 59 | 0 | 0.0 | 3.0 | 0.00 | 0.00 | 0.00 | 26 | 1005.5 |
| 20260509001204 | 60 | 0 | 0.0 | 3.0 | 0.00 | 0.00 | 0.00 | 26 | 1005.5 |
| 20260509001104 | 60 | 0 | 0.0 | 3.0 | 0.00 | 0.00 | 0.00 | 26 | 1005.5 |
| 20260509001004 | 60 | 0 | 0.0 | 2.0 | 0.00 | 0.00 | 0.00 | 25 | 1005.5 |
| 20260509000904 | 60 | 216 | 1.0 | 3.0 | 0.00 | 0.00 | 0.00 | 26 | 1005.5 |
| 20260509000804 | 60 | 210 | 1.0 | 5.0 | 0.00 | 0.00 | 0.00 | 26 | 1005.5 |
| 20260509000725 | 60 | 210 | 1.0 | 5.0 | 0.00 | 0.00 | 0.00 | 26 | 1005.5 |
| 20260509000604 | 60 | 209 | 1.0 | 5.0 | 0.00 | 0.00 | 0.00 | 26 | 1005.5 |
| 20260509000506 | 60 | 207 | 1.0 | 5.0 | 0.00 | 0.00 | 0.00 | 25 | 1005.5 |
| 20260509000425 | 60 | 205 | 1.0 | 5.0 | 0.00 | 0.00 | 0.00 | 25 | 1005.5 |
| 20260509000326 | 60 | 206 | 1.0 | 5.0 | 0.00 | 0.00 | 0.00 | 25 | 1005.5 |
| 20260509000204 | 60 | 206 | 1.0 | 5.0 | 0.00 | 0.00 | 0.00 | 24 | 1005.6 |
| 20260509000104 | 60 | 203 | 1.0 | 5.0 | 0.00 | 0.00 | 0.00 | 25 | 1005.6 |
| 20260509000004 | 60 | 202 | 1.0 | 5.0 | 0.00 | 0.00 | 0.00 | 24 | 1005.6 |
| 20260508235904 | 60 | 187 | 1.0 | 5.0 | 0.00 | 0.00 | 0.00 | 24 | 1005.6 |
| 20260508235825 | 60 | 185 | 1.0 | 4.0 | 0.00 | 0.00 | 0.00 | 24 | 1005.6 |
| 20260508235704 | 61 | 192 | 1.0 | 4.0 | 0.00 | 0.00 | 0.00 | 25 | 1005.6 |
| 20260508235604 | 61 | 205 | 1.0 | 4.0 | 0.00 | 0.00 | 0.00 | 25 | 1005.6 |
| 20260508235525 | 61 | 205 | 1.0 | 4.0 | 0.00 | 0.00 | 0.00 | 24 | 1005.6 |
| 20260508235404 | 61 | 201 | 1.0 | 6.0 | 0.00 | 0.00 | 0.00 | 25 | 1005.6 |
| 20260508235325 | 61 | 201 | 1.0 | 6.0 | 0.00 | 0.00 | 0.00 | 25 | 1005.6 |
| 20260508235225 | 61 | 206 | 2.0 | 6.0 | 0.00 | 0.00 | 0.00 | 24 | 1005.7 |
| 20260508235125 | 61 | 203 | 2.0 | 6.0 | 0.00 | 0.00 | 0.00 | 25 | 1005.7 |
| 20260508235004 | 61 | 206 | 2.0 | 8.0 | 0.00 | 0.00 | 0.00 | 25 | 1005.7 |
| 20260508234904 | 61 | 206 | 2.0 | 8.0 | 0.00 | 0.00 | 0.00 | 24 | 1005.8 |
| 20260508234804 | 61 | 203 | 2.0 | 8.0 | 0.00 | 0.00 | 0.00 | 24 | 1005.7 |
| 20260508234704 | 61 | 205 | 2.0 | 8.0 | 0.00 | 0.00 | 0.00 | 24 | 1005.7 |
| 20260508234603 | 61 | 202 | 2.0 | 8.0 | 0.00 | 0.00 | 0.00 | 24 | 1005.8 |
| 20260508234504 | 62 | 204 | 2.0 | 8.0 | 0.00 | 0.00 | 0.00 | 24 | 1005.8 |
| 20260508234425 | 62 | 210 | 2.0 | 8.0 | 0.00 | 0.00 | 0.00 | 23 | 1005.8 |
| 20260508234304 | 62 | 206 | 2.0 | 8.0 | 0.00 | 0.00 | 0.00 | 23 | 1005.9 |
| 20260508234204 | 62 | 207 | 2.0 | 8.0 | 0.00 | 0.00 | 0.00 | 23 | 1005.9 |
| 20260508234125 | 62 | 208 | 2.0 | 8.0 | 0.00 | 0.00 | 0.00 | 23 | 1005.8 |
| 20260508234004 | 62 | 203 | 2.0 | 7.0 | 0.00 | 0.00 | 0.00 | 23 | 1005.9 |
| 20260508233903 | 62 | 203 | 2.0 | 7.0 | 0.00 | 0.00 | 0.00 | 23 | 1005.9 |
| 20260508233804 | 62 | 204 | 2.0 | 7.0 | 0.00 | 0.00 | 0.00 | 24 | 1005.9 |
| 20260508233704 | 62 | 201 | 2.0 | 7.0 | 0.00 | 0.00 | 0.00 | 24 | 1005.9 |
| 20260508233604 | 62 | 196 | 2.0 | 7.0 | 0.00 | 0.00 | 0.00 | 24 | 1005.9 |
| 20260508233505 | 62 | 189 | 1.0 | 7.0 | 0.00 | 0.00 | 0.00 | 24 | 1005.9 |
| 20260508233404 | 62 | 182 | 1.0 | 7.0 | 0.00 | 0.00 | 0.00 | 25 | 1005.9 |
| 20260508233304 | 62 | 177 | 1.0 | 5.0 | 0.00 | 0.00 | 0.00 | 25 | 1005.9 |
| 20260508233204 | 62 | 175 | 1.0 | 5.0 | 0.00 | 0.00 | 0.00 | 25 | 1005.9 |
| 20260508233104 | 62 | 172 | 1.0 | 7.0 | 0.00 | 0.00 | 0.00 | 25 | 1005.9 |
| 20260508233004 | 62 | 181 | 2.0 | 7.0 | 0.00 | 0.00 | 0.00 | 26 | 1006.0 |
| 20260508232904 | 62 | 199 | 2.0 | 7.0 | 0.00 | 0.00 | 0.00 | 26 | 1006.0 |
| 20260508232804 | 62 | 210 | 2.0 | 7.0 | 0.00 | 0.00 | 0.00 | 26 | 1006.0 |
| 20260508232725 | 62 | 211 | 2.0 | 7.0 | 0.00 | 0.00 | 0.00 | 26 | 1006.0 |
| 20260508232625 | 62 | 212 | 2.0 | 7.0 | 0.00 | 0.00 | 0.00 | 26 | 1006.0 |
| 20260508232504 | 62 | 210 | 2.0 | 7.0 | 0.00 | 0.00 | 0.00 | 26 | 1006.0 |
| 20260508232403 | 62 | 210 | 2.0 | 7.0 | 0.00 | 0.00 | 0.00 | 26 | 1006.0 |
| 20260508232307 | 62 | 211 | 2.0 | 7.0 | 0.00 | 0.00 | 0.00 | 25 | 1006.0 |
| 20260508232225 | 62 | 210 | 2.0 | 7.0 | 0.00 | 0.00 | 0.00 | 25 | 1006.0 |
| 20260508232104 | 62 | 208 | 3.0 | 8.0 | 0.00 | 0.00 | 0.00 | 26 | 1006.0 |
| 20260508232025 | 62 | 205 | 3.0 | 8.0 | 0.00 | 0.00 | 0.00 | 25 | 1006.0 |
| 20260508231904 | 62 | 197 | 3.0 | 8.0 | 0.00 | 0.00 | 0.00 | 26 | 1006.0 |
| 20260508231804 | 62 | 189 | 3.0 | 8.0 | 0.00 | 0.00 | 0.00 | 25 | 1006.0 |
| 20260508231704 | 62 | 188 | 3.0 | 8.0 | 0.00 | 0.00 | 0.00 | 25 | 1006.0 |
| 20260508231604 | 62 | 192 | 2.0 | 8.0 | 0.00 | 0.00 | 0.00 | 25 | 1006.0 |
| 20260508231504 | 62 | 192 | 3.0 | 8.0 | 0.00 | 0.00 | 0.00 | 25 | 1006.0 |
| 20260508231404 | 62 | 191 | 2.0 | 8.0 | 0.00 | 0.00 | 0.00 | 25 | 1006.0 |
| 20260508231304 | 62 | 188 | 2.0 | 8.0 | 0.00 | 0.00 | 0.00 | 25 | 1006.1 |
| 20260508231203 | 63 | 190 | 2.0 | 8.0 | 0.00 | 0.00 | 0.00 | 25 | 1006.0 |
| 20260508231124 | 63 | 190 | 2.0 | 7.0 | 0.00 | 0.00 | 0.00 | 25 | 1006.0 |
| 20260508231004 | 63 | 200 | 2.0 | 7.0 | 0.00 | 0.00 | 0.00 | 26 | 1006.1 |
| 20260508230904 | 63 | 200 | 1.0 | 7.0 | 0.00 | 0.00 | 0.00 | 25 | 1006.1 |
| 20260508230803 | 63 | 203 | 1.0 | 5.0 | 0.00 | 0.00 | 0.00 | 26 | 1006.1 |
| 20260508230703 | 63 | 203 | 1.0 | 5.0 | 0.00 | 0.00 | 0.00 | 26 | 1006.1 |
| 20260508230604 | 63 | 207 | 2.0 | 5.0 | 0.00 | 0.00 | 0.00 | 25 | 1006.1 |
| 20260508230504 | 63 | 217 | 2.0 | 5.0 | 0.00 | 0.00 | 0.00 | 26 | 1006.1 |
| 20260508230404 | 63 | 222 | 2.0 | 5.0 | 0.00 | 0.00 | 0.00 | 26 | 1006.1 |
| 20260508230304 | 62 | 215 | 2.0 | 5.0 | 0.00 | 0.00 | 0.00 | 26 | 1006.1 |
| 20260508230204 | 62 | 211 | 2.0 | 5.0 | 0.00 | 0.00 | 0.00 | 26 | 1006.2 |
| 20260508230104 | 62 | 218 | 2.0 | 6.0 | 0.00 | 0.00 | 0.00 | 26 | 1006.2 |
| 20260508230004 | 62 | 220 | 3.0 | 6.0 | 0.00 | 0.00 | 0.00 | 26 | 1006.2 |
| 20260508225903 | 62 | 223 | 3.0 | 7.0 | 0.00 | 0.00 | 0.00 | 26 | 1006.2 |
| 20260508225803 | 62 | 226 | 3.0 | 7.0 | 0.00 | 0.00 | 0.00 | 27 | 1006.2 |
| 20260508225704 | 62 | 229 | 3.0 | 7.0 | 0.00 | 0.00 | 0.00 | 26 | 1006.3 |
| 20260508225625 | 62 | 226 | 3.0 | 7.0 | 0.00 | 0.00 | 0.00 | 27 | 1006.3 |
| 20260508225504 | 62 | 223 | 3.0 | 7.0 | 0.00 | 0.00 | 0.00 | 27 | 1006.3 |
| 20260508225403 | 62 | 221 | 3.0 | 7.0 | 0.00 | 0.00 | 0.00 | 26 | 1006.4 |
| 20260508225306 | 62 | 226 | 3.0 | 7.0 | 0.00 | 0.00 | 0.00 | 27 | 1006.4 |
| 20260508225204 | 62 | 229 | 3.0 | 7.0 | 0.00 | 0.00 | 0.00 | 26 | 1006.4 |
| 20260508225104 | 62 | 227 | 3.0 | 7.0 | 0.00 | 0.00 | 0.00 | 26 | 1006.4 |
| 20260508225004 | 62 | 225 | 3.0 | 7.0 | 0.00 | 0.00 | 0.00 | 26 | 1006.3 |
| 20260508224904 | 62 | 219 | 3.0 | 7.0 | 0.00 | 0.00 | 0.00 | 26 | 1006.4 |
| 20260508224803 | 62 | 220 | 2.0 | 7.0 | 0.00 | 0.00 | 0.00 | 27 | 1006.4 |
| 20260508224725 | 62 | 212 | 2.0 | 7.0 | 0.00 | 0.00 | 0.00 | 28 | 1006.4 |
| 20260508224604 | 62 | 218 | 3.0 | 7.0 | 0.00 | 0.00 | 0.00 | 27 | 1006.4 |
| 20260508224504 | 62 | 216 | 3.0 | 7.0 | 0.00 | 0.00 | 0.00 | 27 | 1006.4 |
| 20260508224403 | 62 | 212 | 3.0 | 7.0 | 0.00 | 0.00 | 0.00 | 27 | 1006.3 |
| 20260508224303 | 62 | 204 | 3.0 | 7.0 | 0.00 | 0.00 | 0.00 | 27 | 1006.3 |
| 20260508224203 | 62 | 205 | 3.0 | 7.0 | 0.00 | 0.00 | 0.00 | 27 | 1006.4 |
| 20260508224125 | 62 | 206 | 3.0 | 7.0 | 0.00 | 0.00 | 0.00 | 27 | 1006.4 |
| 20260508224004 | 62 | 213 | 3.0 | 7.0 | 0.00 | 0.00 | 0.00 | 27 | 1006.4 |
| 20260508223904 | 62 | 217 | 3.0 | 7.0 | 0.00 | 0.00 | 0.00 | 27 | 1006.4 |
| 20260508223825 | 61 | 216 | 3.0 | 7.0 | 0.00 | 0.00 | 0.00 | 27 | 1006.4 |
| 20260508223704 | 61 | 217 | 3.0 | 7.0 | 0.00 | 0.00 | 0.00 | 27 | 1006.5 |
| 20260508223625 | 61 | 216 | 3.0 | 7.0 | 0.00 | 0.00 | 0.00 | 27 | 1006.5 |
| 20260508223504 | 61 | 212 | 3.0 | 7.0 | 0.00 | 0.00 | 0.00 | 27 | 1006.4 |
| 20260508223404 | 61 | 215 | 3.0 | 7.0 | 0.00 | 0.00 | 0.00 | 27 | 1006.5 |
| 20260508223324 | 61 | 215 | 3.0 | 7.0 | 0.00 | 0.00 | 0.00 | 27 | 1006.5 |
| 20260508223203 | 61 | 216 | 3.0 | 7.0 | 0.00 | 0.00 | 0.00 | 28 | 1006.6 |
| 20260508223103 | 61 | 218 | 3.0 | 7.0 | 0.00 | 0.00 | 0.00 | 27 | 1006.6 |
| 20260508223005 | 61 | 210 | 3.0 | 7.0 | 0.00 | 0.00 | 0.00 | 28 | 1006.6 |
| 20260508222925 | 60 | 209 | 3.0 | 7.0 | 0.00 | 0.00 | 0.00 | 27 | 1006.6 |
| 20260508222803 | 60 | 210 | 3.0 | 7.0 | 0.00 | 0.00 | 0.00 | 27 | 1006.6 |
| 20260508222704 | 61 | 205 | 3.0 | 7.0 | 0.00 | 0.00 | 0.00 | 27 | 1006.6 |
| 20260508222624 | 61 | 205 | 3.0 | 7.0 | 0.00 | 0.00 | 0.00 | 26 | 1006.6 |
| 20260508222504 | 61 | 211 | 3.0 | 7.0 | 0.00 | 0.00 | 0.00 | 26 | 1006.6 |
| 20260508222404 | 61 | 212 | 3.0 | 7.0 | 0.00 | 0.00 | 0.00 | 26 | 1006.6 |
| 20260508222306 | 61 | 216 | 2.0 | 7.0 | 0.00 | 0.00 | 0.00 | 27 | 1006.7 |
| 20260508222203 | 61 | 214 | 2.0 | 7.0 | 0.00 | 0.00 | 0.00 | 27 | 1006.7 |
| 20260508222104 | 61 | 213 | 3.0 | 7.0 | 0.00 | 0.00 | 0.00 | 27 | 1006.7 |
| 20260508222025 | 61 | 218 | 3.0 | 7.0 | 0.00 | 0.00 | 0.00 | 27 | 1006.7 |
| 20260508221904 | 61 | 229 | 3.0 | 9.0 | 0.00 | 0.00 | 0.00 | 27 | 1006.7 |
| 20260508221803 | 61 | 230 | 3.0 | 9.0 | 0.00 | 0.00 | 0.00 | 26 | 1006.7 |
| 20260508221704 | 61 | 230 | 3.0 | 9.0 | 0.00 | 0.00 | 0.00 | 26 | 1006.7 |
| 20260508221604 | 61 | 232 | 3.0 | 9.0 | 0.00 | 0.00 | 0.00 | 27 | 1006.7 |
| 20260508221525 | 61 | 234 | 3.0 | 9.0 | 0.00 | 0.00 | 0.00 | 27 | 1006.7 |
| 20260508221404 | 61 | 236 | 3.0 | 9.0 | 0.00 | 0.00 | 0.00 | 27 | 1006.7 |
| 20260508221303 | 61 | 234 | 3.0 | 9.0 | 0.00 | 0.00 | 0.00 | 27 | 1006.7 |
| 20260508221203 | 61 | 230 | 3.0 | 9.0 | 0.00 | 0.00 | 0.00 | 27 | 1006.7 |
| 20260508221104 | 61 | 225 | 3.0 | 9.0 | 0.00 | 0.00 | 0.00 | 26 | 1006.7 |
| 20260508221004 | 62 | 218 | 3.0 | 9.0 | 0.00 | 0.00 | 0.00 | 26 | 1006.7 |
| 20260508220925 | 62 | 214 | 3.0 | 7.0 | 0.00 | 0.00 | 0.00 | 26 | 1006.7 |
| 20260508220803 | 62 | 210 | 3.0 | 7.0 | 0.00 | 0.00 | 0.00 | 26 | 1006.8 |
| 20260508220703 | 62 | 212 | 3.0 | 7.0 | 0.00 | 0.00 | 0.00 | 26 | 1006.8 |
| 20260508220604 | 62 | 206 | 3.0 | 8.0 | 0.00 | 0.00 | 0.00 | 26 | 1006.8 |
| 20260508220504 | 62 | 198 | 3.0 | 8.0 | 0.00 | 0.00 | 0.00 | 25 | 1006.8 |
| 20260508220404 | 62 | 195 | 3.0 | 8.0 | 0.00 | 0.00 | 0.00 | 25 | 1006.8 |
| 20260508220304 | 62 | 189 | 2.0 | 8.0 | 0.00 | 0.00 | 0.00 | 25 | 1006.8 |
| 20260508220204 | 62 | 186 | 2.0 | 8.0 | 0.00 | 0.00 | 0.00 | 26 | 1006.8 |
| 20260508220104 | 62 | 191 | 2.0 | 8.0 | 0.00 | 0.00 | 0.00 | 26 | 1006.8 |
| 20260508220004 | 62 | 194 | 2.0 | 8.0 | 0.00 | 0.00 | 0.00 | 26 | 1006.8 |
| 20260508215904 | 62 | 204 | 3.0 | 8.0 | 0.00 | 0.00 | 0.00 | 26 | 1006.9 |
| 20260508215803 | 62 | 211 | 3.0 | 8.0 | 0.00 | 0.00 | 0.00 | 25 | 1006.9 |
| 20260508215703 | 62 | 215 | 3.0 | 8.0 | 0.00 | 0.00 | 0.00 | 26 | 1006.9 |
| 20260508215604 | 62 | 219 | 2.0 | 6.0 | 0.00 | 0.00 | 0.00 | 26 | 1006.8 |
| 20260508215503 | 62 | 220 | 3.0 | 6.0 | 0.00 | 0.00 | 0.00 | 27 | 1006.8 |
| 20260508215403 | 62 | 216 | 3.0 | 6.0 | 0.00 | 0.00 | 0.00 | 26 | 1006.8 |
| 20260508215306 | 62 | 215 | 3.0 | 6.0 | 0.00 | 0.00 | 0.00 | 26 | 1006.8 |
| 20260508215203 | 62 | 217 | 3.0 | 6.0 | 0.00 | 0.00 | 0.00 | 27 | 1006.8 |
| 20260508215103 | 62 | 214 | 3.0 | 6.0 | 0.00 | 0.00 | 0.00 | 27 | 1006.8 |
| 20260508215003 | 62 | 212 | 3.0 | 6.0 | 0.00 | 0.00 | 0.00 | 27 | 1006.8 |
| 20260508214903 | 62 | 203 | 3.0 | 6.0 | 0.00 | 0.00 | 0.00 | 28 | 1006.8 |
| 20260508214804 | 62 | 207 | 3.0 | 9.0 | 0.00 | 0.00 | 0.00 | 27 | 1006.8 |
| 20260508214704 | 61 | 214 | 4.0 | 9.0 | 0.00 | 0.00 | 0.00 | 27 | 1006.8 |
| 20260508214604 | 61 | 220 | 4.0 | 9.0 | 0.00 | 0.00 | 0.00 | 26 | 1006.8 |
| 20260508214504 | 61 | 226 | 4.0 | 10.0 | 0.00 | 0.00 | 0.00 | 26 | 1006.8 |
| 20260508214403 | 61 | 230 | 4.0 | 10.0 | 0.00 | 0.00 | 0.00 | 27 | 1006.8 |
| 20260508214324 | 61 | 235 | 4.0 | 10.0 | 0.00 | 0.00 | 0.00 | 27 | 1006.8 |
| 20260508214204 | 61 | 242 | 5.0 | 10.0 | 0.00 | 0.00 | 0.00 | 27 | 1006.8 |
| 20260508214104 | 60 | 244 | 4.0 | 10.0 | 0.00 | 0.00 | 0.00 | 28 | 1006.8 |
| 20260508214003 | 60 | 246 | 4.0 | 10.0 | 0.00 | 0.00 | 0.00 | 28 | 1006.8 |
| 20260508213903 | 60 | 247 | 4.0 | 10.0 | 0.00 | 0.00 | 0.00 | 28 | 1006.8 |
| 20260508213803 | 60 | 245 | 4.0 | 10.0 | 0.00 | 0.00 | 0.00 | 28 | 1006.9 |
| 20260508213704 | 60 | 244 | 4.0 | 10.0 | 0.00 | 0.00 | 0.00 | 27 | 1006.9 |
| 20260508213603 | 61 | 244 | 4.0 | 10.0 | 0.00 | 0.00 | 0.00 | 27 | 1006.8 |
| 20260508213504 | 61 | 246 | 4.0 | 9.0 | 0.00 | 0.00 | 0.00 | 27 | 1006.8 |
| 20260508213403 | 61 | 247 | 4.0 | 9.0 | 0.00 | 0.00 | 0.00 | 28 | 1006.9 |
| 20260508213303 | 61 | 244 | 4.0 | 9.0 | 0.00 | 0.00 | 0.00 | 27 | 1006.9 |
| 20260508213204 | 61 | 245 | 5.0 | 10.0 | 0.00 | 0.00 | 0.00 | 28 | 1006.9 |
| 20260508213104 | 60 | 248 | 5.0 | 10.0 | 0.00 | 0.00 | 0.00 | 29 | 1006.9 |
| 20260508213004 | 60 | 249 | 5.0 | 10.0 | 0.00 | 0.00 | 0.00 | 29 | 1006.9 |
| 20260508212903 | 60 | 252 | 5.0 | 10.0 | 0.00 | 0.00 | 0.00 | 28 | 1006.9 |
| 20260508212803 | 60 | 252 | 5.0 | 10.0 | 0.00 | 0.00 | 0.00 | 28 | 1006.9 |
| 20260508212704 | 60 | 252 | 5.0 | 10.0 | 0.00 | 0.00 | 0.00 | 27 | 1006.9 |
| 20260508212625 | 60 | 254 | 5.0 | 10.0 | 0.00 | 0.00 | 0.00 | 27 | 1006.9 |
| 20260508212503 | 60 | 252 | 4.0 | 10.0 | 0.00 | 0.00 | 0.00 | 29 | 1006.9 |
| 20260508212403 | 60 | 250 | 4.0 | 10.0 | 0.00 | 0.00 | 0.00 | 28 | 1006.9 |
| 20260508212306 | 60 | 249 | 4.0 | 10.0 | 0.00 | 0.00 | 0.00 | 28 | 1007.0 |
| 20260508212204 | 60 | 246 | 3.0 | 10.0 | 0.00 | 0.00 | 0.00 | 27 | 1007.0 |
| 20260508212103 | 61 | 234 | 3.0 | 9.0 | 0.00 | 0.00 | 0.00 | 27 | 1007.0 |
| 20260508212003 | 61 | 225 | 3.0 | 9.0 | 0.00 | 0.00 | 0.00 | 27 | 1006.9 |
| 20260508211903 | 62 | 213 | 3.0 | 8.0 | 0.00 | 0.00 | 0.00 | 27 | 1006.9 |
| 20260508211804 | 62 | 204 | 3.0 | 6.0 | 0.00 | 0.00 | 0.00 | 27 | 1007.0 |
| 20260508211705 | 62 | 202 | 3.0 | 9.0 | 0.00 | 0.00 | 0.00 | 28 | 1007.0 |
| 20260508211624 | 62 | 198 | 3.0 | 9.0 | 0.00 | 0.00 | 0.00 | 28 | 1007.0 |
| 20260508211503 | 62 | 200 | 3.0 | 9.0 | 0.00 | 0.00 | 0.00 | 28 | 1007.0 |
| 20260508211403 | 62 | 201 | 3.0 | 9.0 | 0.00 | 0.00 | 0.00 | 28 | 1007.0 |
| 20260508211325 | 62 | 200 | 3.0 | 9.0 | 0.00 | 0.00 | 0.00 | 27 | 1007.1 |
| 20260508211203 | 62 | 204 | 3.0 | 9.0 | 0.00 | 0.00 | 0.00 | 26 | 1007.1 |
| 20260508211103 | 62 | 213 | 3.0 | 10.0 | 0.00 | 0.00 | 0.00 | 27 | 1007.1 |
| 20260508211003 | 62 | 226 | 3.0 | 10.0 | 0.00 | 0.00 | 0.00 | 28 | 1007.1 |
| 20260508210903 | 62 | 229 | 3.0 | 10.0 | 0.00 | 0.00 | 0.00 | 28 | 1007.1 |
| 20260508210804 | 61 | 234 | 3.0 | 10.0 | 0.00 | 0.00 | 0.00 | 27 | 1007.2 |
| 20260508210704 | 61 | 233 | 3.0 | 10.0 | 0.00 | 0.00 | 0.00 | 27 | 1007.1 |
| 20260508210624 | 61 | 232 | 3.0 | 10.0 | 0.00 | 0.00 | 0.00 | 28 | 1007.1 |
| 20260508210503 | 61 | 236 | 4.0 | 10.0 | 0.00 | 0.00 | 0.00 | 29 | 1007.2 |
| 20260508210404 | 61 | 239 | 4.0 | 10.0 | 0.00 | 0.00 | 0.00 | 29 | 1007.2 |
| 20260508210325 | 61 | 240 | 4.0 | 10.0 | 0.00 | 0.00 | 0.00 | 29 | 1007.2 |
| 20260508210203 | 61 | 238 | 4.0 | 10.0 | 0.00 | 0.00 | 0.00 | 29 | 1007.2 |
| 20260508210103 | 61 | 238 | 4.0 | 10.0 | 0.00 | 0.00 | 0.00 | 28 | 1007.2 |
| 20260508210003 | 61 | 232 | 3.0 | 10.0 | 0.00 | 0.00 | 0.00 | 29 | 1007.2 |
| 20260508205903 | 61 | 229 | 4.0 | 10.0 | 0.00 | 0.00 | 0.00 | 30 | 1007.2 |
| 20260508205803 | 60 | 220 | 4.0 | 10.0 | 0.00 | 0.00 | 0.00 | 28 | 1007.3 |
| 20260508205724 | 60 | 218 | 4.0 | 10.0 | 0.00 | 0.00 | 0.00 | 28 | 1007.3 |
| 20260508205603 | 60 | 229 | 4.0 | 10.0 | 0.00 | 0.00 | 0.00 | 28 | 1007.3 |
| 20260508205503 | 61 | 226 | 3.0 | 10.0 | 0.00 | 0.00 | 0.00 | 29 | 1007.2 |
| 20260508205404 | 61 | 222 | 3.0 | 9.0 | 0.00 | 0.00 | 0.00 | 28 | 1007.2 |
| 20260508205306 | 61 | 225 | 4.0 | 9.0 | 0.00 | 0.00 | 0.00 | 27 | 1007.4 |
| 20260508205203 | 61 | 230 | 4.0 | 9.0 | 0.00 | 0.00 | 0.00 | 29 | 1007.4 |
| 20260508205103 | 60 | 229 | 4.0 | 9.0 | 0.00 | 0.00 | 0.00 | 30 | 1007.4 |
| 20260508205003 | 60 | 232 | 4.0 | 12.0 | 0.00 | 0.00 | 0.00 | 30 | 1007.4 |
| 20260508204904 | 60 | 229 | 5.0 | 13.0 | 0.00 | 0.00 | 0.00 | 29 | 1007.4 |
| 20260508204804 | 60 | 236 | 5.0 | 13.0 | 0.00 | 0.00 | 0.00 | 30 | 1007.4 |
| 20260508204725 | 60 | 238 | 5.0 | 13.0 | 0.00 | 0.00 | 0.00 | 30 | 1007.4 |
| 20260508204603 | 60 | 235 | 4.0 | 13.0 | 0.00 | 0.00 | 0.00 | 32 | 1007.4 |
| 20260508204524 | 60 | 235 | 4.0 | 13.0 | 0.00 | 0.00 | 0.00 | 32 | 1007.4 |
| 20260508204404 | 60 | 235 | 5.0 | 13.0 | 0.00 | 0.00 | 0.00 | 31 | 1007.4 |
| 20260508204303 | 60 | 236 | 5.0 | 13.0 | 0.00 | 0.00 | 0.00 | 30 | 1007.4 |
| 20260508204203 | 60 | 239 | 5.0 | 13.0 | 0.00 | 0.00 | 0.00 | 30 | 1007.5 |
| 20260508204103 | 60 | 244 | 6.0 | 13.0 | 0.00 | 0.00 | 0.00 | 31 | 1007.5 |
| 20260508204003 | 60 | 246 | 6.0 | 13.0 | 0.00 | 0.00 | 0.00 | 30 | 1007.5 |
| 20260508203904 | 59 | 249 | 6.0 | 12.0 | 0.00 | 0.00 | 0.00 | 31 | 1007.5 |
| 20260508203804 | 59 | 249 | 6.0 | 12.0 | 0.00 | 0.00 | 0.00 | 31 | 1007.5 |
| 20260508203724 | 59 | 251 | 6.0 | 12.0 | 0.00 | 0.00 | 0.00 | 30 | 1007.6 |
| 20260508203604 | 59 | 253 | 6.0 | 12.0 | 0.00 | 0.00 | 0.00 | 32 | 1007.6 |
| 20260508203503 | 59 | 253 | 6.0 | 12.0 | 0.00 | 0.00 | 0.00 | 33 | 1007.6 |
| 20260508203404 | 59 | 255 | 7.0 | 12.0 | 0.00 | 0.00 | 0.00 | 33 | 1007.6 |
| 20260508203303 | 59 | 256 | 6.0 | 12.0 | 0.00 | 0.00 | 0.00 | 31 | 1007.6 |
| 20260508203224 | 59 | 255 | 6.0 | 12.0 | 0.00 | 0.00 | 0.00 | 32 | 1007.6 |
| 20260508203103 | 60 | 254 | 6.0 | 12.0 | 0.00 | 0.00 | 0.00 | 31 | 1007.6 |
| 20260508203003 | 59 | 253 | 6.0 | 12.0 | 0.00 | 0.00 | 0.00 | 32 | 1007.6 |
| 20260508202904 | 59 | 255 | 6.0 | 12.0 | 0.00 | 0.00 | 0.00 | 33 | 1007.7 |
| 20260508202804 | 59 | 256 | 6.0 | 12.0 | 0.00 | 0.00 | 0.00 | 32 | 1007.7 |
| 20260508202703 | 59 | 256 | 6.0 | 12.0 | 0.00 | 0.00 | 0.00 | 32 | 1007.7 |
| 20260508202603 | 59 | 255 | 6.0 | 12.0 | 0.00 | 0.00 | 0.00 | 29 | 1007.7 |
| 20260508202524 | 59 | 254 | 6.0 | 12.0 | 0.00 | 0.00 | 0.00 | 31 | 1007.7 |
| 20260508202403 | 60 | 251 | 6.0 | 12.0 | 0.00 | 0.00 | 0.00 | 33 | 1007.7 |
| 20260508202306 | 60 | 249 | 5.0 | 12.0 | 0.00 | 0.00 | 0.00 | 32 | 1007.7 |
| 20260508202204 | 59 | 250 | 5.0 | 12.0 | 0.00 | 0.00 | 0.00 | 32 | 1007.7 |
| 20260508202124 | 59 | 249 | 5.0 | 12.0 | 0.00 | 0.00 | 0.00 | 32 | 1007.7 |
| 20260508202003 | 60 | 249 | 4.0 | 12.0 | 0.00 | 0.00 | 0.00 | 32 | 1007.7 |
| 20260508201924 | 60 | 247 | 4.0 | 12.0 | 0.00 | 0.00 | 0.00 | 33 | 1007.7 |
| 20260508201803 | 60 | 243 | 4.0 | 11.0 | 0.00 | 0.00 | 0.00 | 32 | 1007.7 |
| 20260508201703 | 60 | 234 | 4.0 | 9.0 | 0.00 | 0.00 | 0.00 | 32 | 1007.7 |
| 20260508201603 | 60 | 235 | 4.0 | 9.0 | 0.00 | 0.00 | 0.00 | 33 | 1007.7 |
| 20260508201503 | 60 | 237 | 4.0 | 9.0 | 0.00 | 0.00 | 0.00 | 33 | 1007.7 |
| 20260508201403 | 60 | 231 | 4.0 | 9.0 | 0.00 | 0.00 | 0.00 | 32 | 1007.7 |
| 20260508201303 | 60 | 226 | 4.0 | 9.0 | 0.00 | 0.00 | 0.00 | 33 | 1007.8 |
| 20260508201204 | 60 | 225 | 4.0 | 9.0 | 0.00 | 0.00 | 0.00 | 33 | 1007.8 |
| 20260508201103 | 60 | 225 | 4.0 | 9.0 | 0.00 | 0.00 | 0.00 | 34 | 1007.8 |
| 20260508201003 | 60 | 226 | 5.0 | 9.0 | 0.00 | 0.00 | 0.00 | 35 | 1007.8 |
| 20260508200924 | 60 | 230 | 5.0 | 12.0 | 0.00 | 0.00 | 0.00 | 33 | 1007.8 |
| 20260508200803 | 60 | 228 | 5.0 | 12.0 | 0.00 | 0.00 | 0.00 | 34 | 1007.8 |
| 20260508200704 | 60 | 229 | 5.0 | 12.0 | 0.00 | 0.00 | 0.00 | 34 | 1007.8 |
| 20260508200603 | 60 | 225 | 5.0 | 12.0 | 0.00 | 0.00 | 0.00 | 35 | 1007.9 |
| 20260508200503 | 60 | 224 | 4.0 | 12.0 | 0.00 | 0.00 | 0.00 | 33 | 1007.9 |
| 20260508200403 | 60 | 234 | 5.0 | 12.0 | 0.00 | 0.00 | 0.00 | 33 | 1007.9 |
| 20260508200324 | 60 | 237 | 5.0 | 12.0 | 0.00 | 0.00 | 0.00 | 35 | 1007.9 |
| 20260508200203 | 60 | 241 | 5.0 | 12.0 | 0.00 | 0.00 | 0.00 | 36 | 1007.9 |
| 20260508200103 | 60 | 238 | 5.0 | 12.0 | 0.00 | 0.00 | 0.00 | 35 | 1007.9 |
| 20260508200003 | 60 | 236 | 4.0 | 12.0 | 0.00 | 0.00 | 0.00 | 34 | 1007.9 |
| 20260508195903 | 60 | 231 | 4.0 | 10.0 | 0.00 | 0.00 | 0.00 | 33 | 1007.9 |
| 20260508195804 | 60 | 232 | 4.0 | 10.0 | 0.00 | 0.00 | 0.00 | 35 | 1008.0 |
| 20260508195724 | 60 | 237 | 4.0 | 10.0 | 0.00 | 0.00 | 0.00 | 35 | 1008.0 |
| 20260508195603 | 60 | 241 | 4.0 | 10.0 | 0.00 | 0.00 | 0.00 | 36 | 1008.0 |
| 20260508195503 | 60 | 241 | 4.0 | 10.0 | 0.00 | 0.00 | 0.00 | 35 | 1008.0 |
| 20260508195403 | 60 | 240 | 5.0 | 10.0 | 0.00 | 0.00 | 0.00 | 37 | 1008.0 |
| 20260508195306 | 60 | 240 | 4.0 | 12.0 | 0.00 | 0.00 | 0.00 | 35 | 1008.0 |
| 20260508195203 | 60 | 239 | 5.0 | 12.0 | 0.00 | 0.00 | 0.00 | 35 | 1008.0 |
| 20260508195124 | 60 | 241 | 5.0 | 12.0 | 0.00 | 0.00 | 0.00 | 35 | 1008.0 |
| 20260508195003 | 59 | 244 | 5.0 | 12.0 | 0.00 | 0.00 | 0.00 | 36 | 1008.1 |
| 20260508194903 | 59 | 244 | 5.0 | 12.0 | 0.00 | 0.00 | 0.00 | 35 | 1008.1 |
| 20260508194803 | 59 | 246 | 5.0 | 12.0 | 0.00 | 0.00 | 0.00 | 35 | 1008.1 |
| 20260508194703 | 59 | 249 | 5.0 | 12.0 | 0.00 | 0.00 | 0.00 | 34 | 1008.1 |
| 20260508194603 | 59 | 250 | 5.0 | 13.0 | 0.00 | 0.00 | 0.00 | 34 | 1008.1 |
| 20260508194503 | 59 | 250 | 5.0 | 13.0 | 0.00 | 0.00 | 0.00 | 34 | 1008.1 |
| 20260508194407 | 59 | 248 | 5.0 | 13.0 | 0.00 | 0.00 | 0.00 | 33 | 1008.1 |
| 20260508194306 | 59 | 246 | 5.0 | 13.0 | 0.00 | 0.00 | 0.00 | 34 | 1008.2 |
| 20260508194206 | 59 | 247 | 5.0 | 13.0 | 0.00 | 0.00 | 0.00 | 35 | 1008.2 |
| 20260508194106 | 59 | 247 | 5.0 | 13.0 | 0.00 | 0.00 | 0.00 | 35 | 1008.2 |
| 20260508194007 | 59 | 245 | 5.0 | 13.0 | 0.00 | 0.00 | 0.00 | 35 | 1008.3 |
| 20260508193907 | 59 | 246 | 6.0 | 13.0 | 0.00 | 0.00 | 0.00 | 34 | 1008.3 |
| 20260508193806 | 59 | 246 | 5.0 | 13.0 | 0.00 | 0.00 | 0.00 | 34 | 1008.3 |
| 20260508193707 | 59 | 241 | 5.0 | 13.0 | 0.00 | 0.00 | 0.00 | 34 | 1008.4 |
| 20260508193627 | 59 | 242 | 5.0 | 12.0 | 0.00 | 0.00 | 0.00 | 35 | 1008.4 |
| 20260508193506 | 59 | 242 | 5.0 | 12.0 | 0.00 | 0.00 | 0.00 | 35 | 1008.4 |
| 20260508193406 | 59 | 244 | 5.0 | 12.0 | 0.00 | 0.00 | 0.00 | 35 | 1008.4 |
| 20260508193307 | 59 | 243 | 4.0 | 12.0 | 0.00 | 0.00 | 0.00 | 35 | 1008.3 |
| 20260508193206 | 60 | 237 | 4.0 | 12.0 | 0.00 | 0.00 | 0.00 | 34 | 1008.4 |
| 20260508193106 | 60 | 232 | 4.0 | 12.0 | 0.00 | 0.00 | 0.00 | 34 | 1008.4 |
| 20260508193006 | 60 | 229 | 4.0 | 12.0 | 0.00 | 0.00 | 0.00 | 35 | 1008.4 |
| 20260508192906 | 60 | 226 | 4.0 | 12.0 | 0.00 | 0.00 | 0.00 | 34 | 1008.4 |
| 20260508192806 | 60 | 225 | 4.0 | 12.0 | 0.00 | 0.00 | 0.00 | 35 | 1008.4 |
| 20260508192706 | 60 | 224 | 3.0 | 12.0 | 0.00 | 0.00 | 0.00 | 34 | 1008.4 |
| 20260508192606 | 60 | 223 | 4.0 | 8.0 | 0.00 | 0.00 | 0.00 | 35 | 1008.4 |
| 20260508192506 | 60 | 228 | 4.0 | 11.0 | 0.00 | 0.00 | 0.00 | 35 | 1008.4 |
| 20260508192427 | 60 | 225 | 4.0 | 11.0 | 0.00 | 0.00 | 0.00 | 35 | 1008.4 |
| 20260508192306 | 60 | 231 | 4.0 | 11.0 | 0.00 | 0.00 | 0.00 | 34 | 1008.4 |
| 20260508192206 | 60 | 231 | 4.0 | 11.0 | 0.00 | 0.00 | 0.00 | 34 | 1008.4 |
| 20260508192106 | 60 | 236 | 3.0 | 11.0 | 0.00 | 0.00 | 0.00 | 36 | 1008.4 |
| 20260508192027 | 60 | 240 | 3.0 | 11.0 | 0.00 | 0.00 | 0.00 | 38 | 1008.4 |
| 20260508191906 | 60 | 244 | 4.0 | 11.0 | 0.00 | 0.00 | 0.00 | 37 | 1008.4 |
| 20260508191806 | 59 | 246 | 4.0 | 11.0 | 0.00 | 0.00 | 0.00 | 36 | 1008.4 |
| 20260508191707 | 59 | 250 | 5.0 | 11.0 | 0.00 | 0.00 | 0.00 | 35 | 1008.4 |
| 20260508191607 | 59 | 251 | 5.0 | 11.0 | 0.00 | 0.00 | 0.00 | 34 | 1008.4 |
| 20260508191507 | 60 | 250 | 5.0 | 12.0 | 0.00 | 0.00 | 0.00 | 35 | 1008.4 |
| 20260508191406 | 60 | 253 | 5.0 | 12.0 | 0.00 | 0.00 | 0.00 | 35 | 1008.4 |
| 20260508191306 | 60 | 256 | 5.0 | 12.0 | 0.00 | 0.00 | 0.00 | 36 | 1008.4 |
| 20260508191207 | 59 | 259 | 5.0 | 12.0 | 0.00 | 0.00 | 0.00 | 36 | 1008.4 |
| 20260508191106 | 59 | 261 | 6.0 | 12.0 | 0.00 | 0.00 | 0.00 | 36 | 1008.4 |
| 20260508191006 | 59 | 261 | 6.0 | 12.0 | 0.00 | 0.00 | 0.00 | 36 | 1008.5 |
| 20260508190906 | 58 | 260 | 6.0 | 12.0 | 0.00 | 0.00 | 0.00 | 35 | 1008.4 |
| 20260508190806 | 58 | 261 | 6.0 | 12.0 | 0.00 | 0.00 | 0.00 | 34 | 1008.4 |
| 20260508190706 | 58 | 261 | 5.0 | 12.0 | 0.00 | 0.00 | 0.00 | 34 | 1008.5 |
| 20260508190628 | 59 | 260 | 5.0 | 12.0 | 0.00 | 0.00 | 0.00 | 34 | 1008.5 |
| 20260508190528 | 59 | 259 | 5.0 | 12.0 | 0.00 | 0.00 | 0.00 | 35 | 1008.5 |
| 20260508190406 | 59 | 257 | 5.0 | 12.0 | 0.00 | 0.00 | 0.00 | 37 | 1008.5 |
| 20260508190306 | 59 | 252 | 4.0 | 12.0 | 0.00 | 0.00 | 0.00 | 37 | 1008.5 |
| 20260508190228 | 59 | 251 | 4.0 | 11.0 | 0.00 | 0.00 | 0.00 | 34 | 1008.5 |
| 20260508190107 | 59 | 251 | 5.0 | 11.0 | 0.00 | 0.00 | 0.00 | 37 | 1008.5 |
| 20260508190007 | 59 | 250 | 5.0 | 11.0 | 0.00 | 0.00 | 0.00 | 37 | 1008.5 |
| 20260508185927 | 59 | 248 | 5.0 | 11.0 | 0.00 | 0.00 | 0.00 | 37 | 1008.5 |
| 20260508185806 | 60 | 247 | 4.0 | 11.0 | 0.00 | 0.00 | 0.00 | 37 | 1008.5 |
| 20260508185706 | 59 | 241 | 4.0 | 11.0 | 0.00 | 0.00 | 0.00 | 37 | 1008.6 |
| 20260508185606 | 59 | 242 | 4.0 | 11.0 | 0.00 | 0.00 | 0.00 | 37 | 1008.6 |
| 20260508185507 | 59 | 238 | 4.0 | 11.0 | 0.00 | 0.00 | 0.00 | 35 | 1008.6 |
| 20260508185406 | 59 | 236 | 5.0 | 11.0 | 0.00 | 0.00 | 0.00 | 37 | 1008.6 |
| 20260508185328 | 59 | 238 | 5.0 | 11.0 | 0.00 | 0.00 | 0.00 | 37 | 1008.6 |
| 20260508185206 | 59 | 236 | 5.0 | 11.0 | 0.00 | 0.00 | 0.00 | 35 | 1008.6 |
| 20260508185128 | 59 | 236 | 5.0 | 11.0 | 0.00 | 0.00 | 0.00 | 35 | 1008.6 |
| 20260508185006 | 59 | 230 | 4.0 | 11.0 | 0.00 | 0.00 | 0.00 | 34 | 1008.6 |
| 20260508184906 | 59 | 229 | 4.0 | 11.0 | 0.00 | 0.00 | 0.00 | 36 | 1008.6 |
| 20260508184807 | 59 | 230 | 4.0 | 11.0 | 0.00 | 0.00 | 0.00 | 36 | 1008.6 |
| 20260508184707 | 59 | 229 | 4.0 | 11.0 | 0.00 | 0.00 | 0.00 | 36 | 1008.6 |
| 20260508184606 | 59 | 225 | 5.0 | 11.0 | 0.00 | 0.00 | 0.00 | 35 | 1008.6 |
| 20260508184506 | 59 | 231 | 4.0 | 11.0 | 0.00 | 0.00 | 0.00 | 35 | 1008.6 |
| 20260508184406 | 59 | 233 | 5.0 | 11.0 | 0.00 | 0.00 | 0.00 | 35 | 1008.6 |
| 20260508184307 | 59 | 237 | 4.0 | 11.0 | 0.00 | 0.00 | 0.00 | 34 | 1008.6 |
| 20260508184207 | 59 | 235 | 4.0 | 11.0 | 0.00 | 0.00 | 0.00 | 35 | 1008.6 |
| 20260508184106 | 59 | 229 | 4.0 | 11.0 | 0.00 | 0.00 | 0.00 | 35 | 1008.6 |
| 20260508184006 | 59 | 228 | 4.0 | 11.0 | 0.00 | 0.00 | 0.00 | 35 | 1008.6 |
| 20260508183906 | 59 | 230 | 4.0 | 11.0 | 0.00 | 0.00 | 0.00 | 35 | 1008.6 |
| 20260508183827 | 59 | 223 | 4.0 | 11.0 | 0.00 | 0.00 | 0.00 | 35 | 1008.6 |
| 20260508183706 | 59 | 229 | 4.0 | 11.0 | 0.00 | 0.00 | 0.00 | 34 | 1008.7 |
| 20260508183606 | 59 | 239 | 4.0 | 11.0 | 0.00 | 0.00 | 0.00 | 34 | 1008.6 |
| 20260508183506 | 59 | 240 | 4.0 | 11.0 | 0.00 | 0.00 | 0.00 | 34 | 1008.6 |
| 20260508183406 | 59 | 242 | 4.0 | 11.0 | 0.00 | 0.00 | 0.00 | 33 | 1008.6 |
| 20260508183306 | 59 | 238 | 4.0 | 10.0 | 0.00 | 0.00 | 0.00 | 35 | 1008.6 |
| 20260508183206 | 59 | 239 | 4.0 | 10.0 | 0.00 | 0.00 | 0.00 | 34 | 1008.6 |
| 20260508183106 | 59 | 245 | 4.0 | 10.0 | 0.00 | 0.00 | 0.00 | 34 | 1008.6 |
| 20260508183006 | 59 | 246 | 4.0 | 10.0 | 0.00 | 0.00 | 0.00 | 34 | 1008.6 |
| 20260508182928 | 59 | 247 | 4.0 | 10.0 | 0.00 | 0.00 | 0.00 | 32 | 1008.7 |
| 20260508182806 | 59 | 256 | 4.0 | 10.0 | 0.00 | 0.00 | 0.00 | 35 | 1008.7 |
| 20260508182706 | 59 | 257 | 4.0 | 10.0 | 0.00 | 0.00 | 0.00 | 36 | 1008.7 |
| 20260508182606 | 59 | 256 | 4.0 | 10.0 | 0.00 | 0.00 | 0.00 | 35 | 1008.8 |
| 20260508182506 | 59 | 253 | 4.0 | 10.0 | 0.00 | 0.00 | 0.00 | 35 | 1008.8 |
| 20260508182407 | 59 | 252 | 4.0 | 10.0 | 0.00 | 0.00 | 0.00 | 35 | 1008.8 |
| 20260508182307 | 59 | 251 | 4.0 | 10.0 | 0.00 | 0.00 | 0.00 | 35 | 1008.7 |
| 20260508182206 | 59 | 251 | 4.0 | 10.0 | 0.00 | 0.00 | 0.00 | 35 | 1008.7 |
| 20260508182127 | 59 | 247 | 4.0 | 10.0 | 0.00 | 0.00 | 0.00 | 34 | 1008.7 |
| 20260508182006 | 59 | 246 | 4.0 | 10.0 | 0.00 | 0.00 | 0.00 | 33 | 1008.8 |
| 20260508181906 | 59 | 243 | 4.0 | 10.0 | 0.00 | 0.00 | 0.00 | 33 | 1008.8 |
| 20260508181806 | 59 | 240 | 4.0 | 10.0 | 0.00 | 0.00 | 0.00 | 34 | 1008.8 |
| 20260508181706 | 58 | 241 | 4.0 | 10.0 | 0.00 | 0.00 | 0.00 | 34 | 1008.8 |
| 20260508181606 | 59 | 244 | 4.0 | 10.0 | 0.00 | 0.00 | 0.00 | 33 | 1008.8 |
| 20260508181506 | 59 | 245 | 5.0 | 10.0 | 0.00 | 0.00 | 0.00 | 33 | 1008.9 |
| 20260508181407 | 59 | 247 | 5.0 | 11.0 | 0.00 | 0.00 | 0.00 | 32 | 1008.9 |
| 20260508181328 | 59 | 248 | 5.0 | 11.0 | 0.00 | 0.00 | 0.00 | 32 | 1008.8 |
| 20260508181207 | 59 | 249 | 5.0 | 11.0 | 0.00 | 0.00 | 0.00 | 34 | 1008.8 |
| 20260508181106 | 59 | 252 | 5.0 | 11.0 | 0.00 | 0.00 | 0.00 | 34 | 1008.8 |
| 20260508181027 | 59 | 252 | 5.0 | 13.0 | 0.00 | 0.00 | 0.00 | 33 | 1008.8 |
| 20260508180906 | 59 | 252 | 6.0 | 13.0 | 0.00 | 0.00 | 0.00 | 33 | 1008.9 |
| 20260508180806 | 59 | 253 | 5.0 | 13.0 | 0.00 | 0.00 | 0.00 | 33 | 1008.9 |
| 20260508180706 | 59 | 254 | 5.0 | 13.0 | 0.00 | 0.00 | 0.00 | 33 | 1008.9 |
| 20260508180606 | 59 | 254 | 5.0 | 13.0 | 0.00 | 0.00 | 0.00 | 32 | 1008.9 |
| 20260508180506 | 59 | 255 | 5.0 | 13.0 | 0.00 | 0.00 | 0.00 | 32 | 1009.0 |
| 20260508180427 | 59 | 256 | 5.0 | 13.0 | 0.00 | 0.00 | 0.00 | 33 | 1009.0 |
| 20260508180307 | 59 | 262 | 5.0 | 13.0 | 0.00 | 0.00 | 0.00 | 34 | 1009.0 |
| 20260508180206 | 59 | 263 | 5.0 | 13.0 | 0.00 | 0.00 | 0.00 | 32 | 1009.0 |
| 20260508180127 | 59 | 261 | 5.0 | 13.0 | 0.00 | 0.00 | 0.00 | 32 | 1009.0 |
| 20260508180006 | 59 | 266 | 4.0 | 10.0 | 0.00 | 0.00 | 0.00 | 33 | 1009.0 |
| 20260508175906 | 59 | 266 | 4.0 | 10.0 | 0.00 | 0.00 | 0.00 | 32 | 1009.0 |
| 20260508175807 | 59 | 263 | 4.0 | 9.0 | 0.00 | 0.00 | 0.00 | 32 | 1009.1 |
| 20260508175706 | 59 | 258 | 4.0 | 9.0 | 0.00 | 0.00 | 0.00 | 31 | 1009.1 |
| 20260508175606 | 59 | 252 | 4.0 | 9.0 | 0.00 | 0.00 | 0.00 | 32 | 1009.1 |
| 20260508175506 | 59 | 243 | 4.0 | 10.0 | 0.00 | 0.00 | 0.00 | 31 | 1009.1 |
| 20260508175406 | 59 | 237 | 4.0 | 10.0 | 0.00 | 0.00 | 0.00 | 30 | 1009.1 |
| 20260508175306 | 59 | 230 | 3.0 | 10.0 | 0.00 | 0.00 | 0.00 | 31 | 1009.1 |
| 20260508175227 | 59 | 226 | 3.0 | 10.0 | 0.00 | 0.00 | 0.00 | 30 | 1009.1 |
| 20260508175106 | 59 | 220 | 3.0 | 10.0 | 0.00 | 0.00 | 0.00 | 32 | 1009.2 |
| 20260508175006 | 59 | 214 | 3.0 | 10.0 | 0.00 | 0.00 | 0.00 | 31 | 1009.2 |
| 20260508174906 | 59 | 211 | 3.0 | 10.0 | 0.00 | 0.00 | 0.00 | 31 | 1009.2 |
| 20260508174806 | 59 | 220 | 3.0 | 10.0 | 0.00 | 0.00 | 0.00 | 32 | 1009.2 |
| 20260508174706 | 59 | 227 | 4.0 | 10.0 | 0.00 | 0.00 | 0.00 | 32 | 1009.2 |
| 20260508174606 | 59 | 234 | 4.0 | 11.0 | 0.00 | 0.00 | 0.00 | 32 | 1009.2 |
| 20260508174506 | 59 | 240 | 4.0 | 11.0 | 0.00 | 0.00 | 0.00 | 32 | 1009.3 |
| 20260508174406 | 59 | 242 | 4.0 | 11.0 | 0.00 | 0.00 | 0.00 | 32 | 1009.3 |
| 20260508174306 | 59 | 244 | 4.0 | 11.0 | 0.00 | 0.00 | 0.00 | 32 | 1009.3 |
| 20260508174206 | 59 | 248 | 4.0 | 11.0 | 0.00 | 0.00 | 0.00 | 33 | 1009.3 |
| 20260508174106 | 59 | 251 | 4.0 | 11.0 | 0.00 | 0.00 | 0.00 | 33 | 1009.3 |
| 20260508174006 | 59 | 255 | 4.0 | 11.0 | 0.00 | 0.00 | 0.00 | 33 | 1009.3 |
| 20260508173906 | 59 | 258 | 4.0 | 11.0 | 0.00 | 0.00 | 0.00 | 31 | 1009.3 |
| 20260508173806 | 59 | 257 | 4.0 | 11.0 | 0.00 | 0.00 | 0.00 | 31 | 1009.3 |
| 20260508173706 | 59 | 256 | 4.0 | 11.0 | 0.00 | 0.00 | 0.00 | 32 | 1009.3 |
| 20260508173606 | 59 | 253 | 3.0 | 11.0 | 0.00 | 0.00 | 0.00 | 33 | 1009.4 |
| 20260508173506 | 59 | 249 | 3.0 | 11.0 | 0.00 | 0.00 | 0.00 | 33 | 1009.4 |
| 20260508173406 | 59 | 249 | 3.0 | 11.0 | 0.00 | 0.00 | 0.00 | 33 | 1009.4 |
| 20260508173306 | 59 | 248 | 3.0 | 11.0 | 0.00 | 0.00 | 0.00 | 32 | 1009.4 |
| 20260508173206 | 59 | 244 | 3.0 | 11.0 | 0.00 | 0.00 | 0.00 | 32 | 1009.4 |